[[{"header":{"parameterUnit":"m.s-1","parameterCategory":1,"la1":30.6,"la2":28.766,"lo1":-90.7593,"lo2":-88.6598,"dy":0.0162,"dx":0.0183,"nx":116,"ny":114,"refTime":"2023-06-16T12:00:00:Z","depth":0,"parameterNumber":2,"parameterNumberName":"U-component_of_WINDS"},"data":[0.0,0.0,0.0,0.0,0.0,0.0,0.0,0.0,0.0,0.0,0.0,0.0,0.0,0.0,0.0,0.0,0.0,0.0,0.0,0.0,0.0,0.0,0.0,0.0,0.0,0.0,0.0,0.0,0.0,0.0,0.0,0.0,0.0,0.0,0.0,0.0,0.0,0.0,0.0,0.0,0.0,0.0,0.0,0.0,0.0,0.0,0.0,0.0,0.0,0.0,0.0,0.0,0.0,0.0,0.0,0.0,0.0,0.0,0.0,0.0,0.0,0.0,0.0,0.0,0.0,0.0,0.0,0.0,0.0,0.0,0.0,0.0,0.0,0.0,0.0,0.0,0.0,0.0,0.0,0.0,0.0,0.0,0.0,0.0,0.0,0.0,0.0,0.0,0.0,0.0,0.0,0.0,0.0,0.0,0.0,0.0,0.0,0.0,0.0,0.0,0.0,0.0,0.0,0.0,0.0,0.0,0.0,0.0,0.0,0.0,0.0,0.0,0.0,0.0,0.0,0.0,0.0,0.0,0.0,0.0,0.0,0.0,0.0,0.0,0.0,0.0,0.0,0.0,0.0,0.0,0.0,0.0,0.0,0.0,0.0,0.0,0.0,0.0,0.0,0.0,0.0,0.0,0.0,0.0,0.0,0.0,0.0,0.0,0.0,0.0,0.0,0.0,0.0,0.0,0.0,0.0,0.0,0.0,0.0,0.0,0.0,0.0,0.0,0.0,0.0,0.0,0.0,0.0,0.0,0.0,0.0,0.0,0.0,0.0,0.0,0.0,0.0,0.0,0.0,0.0,0.0,0.0,0.0,0.0,0.0,0.0,0.0,0.0,0.0,0.0,0.0,0.0,0.0,0.0,0.0,0.0,0.0,0.0,0.0,0.0,0.0,0.0,0.0,0.0,0.0,0.0,0.0,0.0,0.0,0.0,0.0,0.0,0.0,0.0,0.0,0.0,0.0,0.0,0.0,0.0,0.0,0.0,0.0,0.0,0.0,0.0,0.0,0.0,0.0,0.0,0.0,0.0,0.0,0.0,0.0,0.0,0.0,0.0,0.0,0.0,0.0,0.0,0.0,0.0,0.0,0.0,0.0,0.0,0.0,0.0,0.0,0.0,0.0,0.0,0.0,0.0,0.0,0.0,0.0,0.0,0.0,0.0,0.0,0.0,0.0,0.0,0.0,0.0,0.0,0.0,0.0,0.0,0.0,0.0,0.0,0.0,0.0,0.0,0.0,0.0,0.0,0.0,0.0,0.0,0.0,0.0,0.0,0.0,0.0,0.0,0.0,0.0,0.0,0.0,0.0,0.0,0.0,0.0,0.0,0.0,0.0,0.0,0.0,0.0,0.0,0.0,0.0,0.0,0.0,0.0,0.0,0.0,0.0,0.0,0.0,0.0,0.0,0.0,0.0,0.0,0.0,0.0,0.0,0.0,0.0,0.0,0.0,0.0,0.0,0.0,0.0,0.0,0.0,0.0,0.0,0.0,0.0,0.0,0.0,0.0,0.0,0.0,0.0,0.0,0.0,0.0,0.0,0.0,0.0,0.0,0.0,0.0,0.0,0.0,0.0,0.0,0.0,0.0,0.0,0.0,0.0,0.0,0.0,0.0,0.0,0.0,0.0,0.0,0.0,0.0,0.0,0.0,0.0,0.0,0.0,0.0,0.0,0.0,0.0,0.0,0.0,0.0,0.0,0.0,0.0,0.0,0.0,0.0,0.0,0.0,0.0,0.0,0.0,0.0,0.0,0.0,0.0,0.0,0.0,0.0,0.0,0.0,0.0,0.0,0.0,0.0,0.0,0.0,0.0,0.0,0.0,0.0,0.0,0.0,0.0,0.0,0.0,0.0,0.0,0.0,0.0,0.0,0.0,0.0,0.0,0.0,0.0,0.0,0.0,0.0,0.0,0.0,0.0,0.0,0.0,0.0,0.0,0.0,0.0,0.0,0.0,0.0,0.0,0.0,0.0,0.0,0.0,0.0,0.0,0.0,0.0,0.0,0.0,0.0,0.0,0.0,0.0,0.0,0.0,0.0,0.0,0.0,0.0,0.0,0.0,0.0,0.0,0.0,0.0,0.0,0.0,0.0,0.0,0.0,0.0,0.0,0.0,0.0,0.0,0.0,0.0,0.0,0.0,0.0,0.0,0.0,0.0,0.0,0.0,0.0,0.0,0.0,0.0,0.0,0.0,0.0,0.0,0.0,0.0,0.0,0.0,0.0,0.0,0.0,0.0,0.0,0.0,0.0,0.0,0.0,0.0,0.0,0.0,0.0,0.0,0.0,0.0,0.0,0.0,0.0,0.0,0.0,0.0,0.0,0.0,0.0,0.0,0.0,0.0,0.0,0.0,0.0,0.0,0.0,0.0,0.0,0.0,0.0,0.0,0.0,0.0,0.0,0.0,0.0,0.0,0.0,0.0,0.0,0.0,0.0,0.0,0.0,0.0,0.0,0.0,0.0,0.0,0.0,0.0,0.0,0.0,0.0,0.0,0.0,0.0,0.0,0.0,0.0,0.0,0.0,0.0,0.0,0.0,0.0,0.0,0.0,0.0,0.0,0.0,0.0,0.0,0.0,0.0,0.0,0.0,0.0,0.0,0.0,0.0,0.0,0.0,0.0,0.0,0.0,0.0,0.0,0.0,0.0,0.0,0.0,0.0,0.0,0.0,0.0,0.0,0.0,0.0,0.0,0.0,0.0,0.0,0.0,0.0,0.0,0.0,0.0,0.0,0.0,0.0,0.0,0.0,0.0,0.0,0.0,0.0,0.0,0.0,0.0,0.0,0.0,0.0,0.0,0.0,0.0,0.0,0.0,0.0,0.0,0.0,0.0,0.0,0.0,0.0,0.0,0.0,0.0,0.0,0.0,0.0,0.0,0.0,0.0,0.0,0.0,0.0,0.0,0.0,0.0,0.0,0.0,0.0,0.0,0.0,0.0,0.0,0.0,0.0,0.0,0.0,0.0,0.0,0.0,0.0,0.0,0.0,0.0,0.0,0.0,0.0,0.0,0.0,0.0,0.0,0.0,0.0,0.0,0.0,0.0,0.0,0.0,0.0,0.0,0.0,0.0,0.0,0.0,0.0,0.0,0.0,0.0,0.0,0.0,0.0,0.0,0.0,0.0,0.0,0.0,0.0,0.0,0.0,0.0,0.0,0.0,0.0,0.0,0.0,0.0,0.0,0.0,0.0,0.0,0.0,0.0,0.0,0.0,0.0,0.0,0.0,0.0,0.0,0.0,0.0,0.0,0.0,0.0,0.0,0.0,0.0,0.0,0.0,0.0,0.0,0.0,0.0,0.0,0.0,0.0,0.0,0.0,0.0,0.0,0.0,0.0,0.0,0.0,0.0,0.0,0.0,0.0,0.0,0.0,0.0,0.0,0.0,0.0,0.0,0.0,0.0,0.0,0.0,0.0,0.0,0.0,0.0,0.0,0.0,0.0,0.0,0.0,0.0,0.0,0.0,0.0,0.0,0.0,0.0,0.0,0.0,0.0,0.0,0.0,0.0,0.0,0.0,0.0,0.0,0.0,0.0,0.0,0.0,0.0,0.0,0.0,0.0,0.0,0.0,0.0,0.0,0.0,0.0,0.0,0.0,0.0,0.0,0.0,0.0,0.0,0.0,0.0,0.0,0.0,0.0,0.0,0.0,0.0,0.0,0.0,0.0,0.0,0.0,0.0,0.0,0.0,0.0,0.0,0.0,0.0,0.0,0.0,0.0,0.0,0.0,0.0,0.0,0.0,0.0,0.0,0.0,0.0,0.0,0.0,0.0,0.0,0.0,0.0,0.0,0.0,0.0,0.0,0.0,0.0,0.0,0.0,0.0,0.0,0.0,0.0,0.0,0.0,0.0,0.0,0.0,0.0,0.0,0.0,0.0,0.0,0.0,0.0,0.0,0.0,0.0,0.0,0.0,0.0,0.0,0.0,0.0,0.0,0.0,0.0,0.0,0.0,0.0,0.0,0.0,0.0,0.0,0.0,0.0,0.0,0.0,0.0,0.0,0.0,0.0,0.0,0.0,0.0,0.0,0.0,0.0,0.0,0.0,0.0,0.0,0.0,0.0,0.0,0.0,0.0,0.0,0.0,0.0,0.0,0.0,0.0,0.0,0.0,0.0,0.0,0.0,0.0,0.0,0.0,0.0,0.0,0.0,0.0,0.0,0.0,0.0,0.0,0.0,0.0,0.0,0.0,0.0,0.0,0.0,0.0,0.0,0.0,0.0,0.0,0.0,0.0,0.0,0.0,0.0,0.0,0.0,0.0,0.0,0.0,0.0,0.0,0.0,0.0,0.0,0.0,0.0,0.0,0.0,0.0,0.0,0.0,0.0,0.0,0.0,0.0,0.0,0.0,0.0,0.0,0.0,0.0,0.0,0.0,0.0,0.0,0.0,0.0,0.0,0.0,0.0,0.0,0.0,0.0,0.0,0.0,0.0,0.0,0.0,0.0,0.0,0.0,0.0,0.0,0.0,0.0,0.0,0.0,0.0,0.0,0.0,0.0,0.0,0.0,0.0,0.0,0.0,0.0,0.0,0.0,0.0,0.0,0.0,0.0,0.0,0.0,0.0,0.0,0.0,0.0,0.0,0.0,0.0,0.0,0.0,0.0,0.0,0.0,0.0,0.0,0.0,0.0,0.0,0.0,0.0,0.0,0.0,0.0,0.0,0.0,0.0,0.0,0.0,0.0,0.0,0.0,0.0,0.0,0.0,0.0,0.0,0.0,0.0,0.0,0.0,0.0,0.0,0.0,0.0,0.0,0.0,0.0,0.0,0.0,0.0,0.0,0.0,0.0,0.0,0.0,0.0,0.0,0.0,0.0,0.0,0.0,0.0,0.0,0.0,0.0,0.0,0.0,0.0,0.0,0.0,0.0,0.0,0.0,0.0,0.0,0.0,0.0,0.0,0.0,0.0,0.0,0.0,0.0,0.0,0.0,0.0,0.0,0.0,0.0,0.0,0.0,0.0,0.0,0.0,0.0,0.0,0.0,0.0,0.0,0.0,0.0,0.0,0.0,0.0,0.0,0.0,0.0,0.0,0.0,0.0,0.0,0.0,0.0,0.0,0.0,0.0,0.0,0.0,0.0,0.0,0.0,0.0,0.0,0.0,0.0,0.0,0.0,0.0,0.0,0.0,0.0,0.0,0.0,0.0,0.0,0.0,0.0,0.0,0.0,0.0,0.0,0.0,0.0,0.0,0.0,0.0,0.0,0.0,0.0,0.0,0.0,0.0,0.0,0.0,0.0,0.0,0.0,0.0,0.0,0.0,0.0,0.0,0.0,0.0,0.0,0.0,0.0,0.0,0.0,0.0,0.0,0.0,0.0,0.0,0.0,0.0,0.0,0.0,0.0,0.0,0.0,0.0,0.0,0.0,0.0,0.0,0.0,0.0,0.0,0.0,0.0,0.0,0.0,0.0,0.0,0.0,0.0,0.0,0.0,0.0,0.0,0.0,0.0,0.0,0.0,0.0,0.0,0.0,0.0,0.0,0.0,0.0,0.0,0.0,0.0,0.0,0.0,0.0,0.0,0.0,0.0,0.0,0.0,0.0,0.0,0.0,0.0,0.0,0.0,0.0,0.0,0.0,0.0,0.0,0.0,0.0,0.0,0.0,0.0,0.0,0.0,0.0,0.0,0.0,0.0,0.0,0.0,0.0,0.0,0.0,0.0,0.0,0.0,0.0,0.0,0.0,0.0,0.0,0.0,0.0,0.0,0.0,0.0,0.0,0.0,0.0,0.0,0.0,0.0,0.0,0.0,0.0,0.0,0.0,0.0,0.0,0.0,0.0,0.0,0.0,0.0,0.0,0.0,0.0,0.0,0.0,0.0,0.0,0.0,0.0,0.0,0.0,0.0,0.0,0.0,0.0,0.0,0.0,0.0,0.0,0.0,0.0,0.0,0.0,0.0,0.0,0.0,0.0,0.0,0.0,0.0,0.0,0.0,0.0,0.0,0.0,0.0,0.0,0.0,0.0,0.0,0.0,0.0,0.0,0.0,0.0,0.0,0.0,0.0,0.0,0.0,0.0,0.0,0.0,0.0,0.0,0.0,0.0,0.0,0.0,0.0,0.0,0.0,0.0,0.0,0.0,0.0,0.0,0.0,-4.4336,-4.3045,0.0,0.0,0.0,0.0,0.0,0.0,0.0,0.0,0.0,0.0,0.0,0.0,0.0,0.0,0.0,0.0,0.0,0.0,0.0,0.0,0.0,0.0,0.0,0.0,0.0,0.0,0.0,0.0,0.0,0.0,0.0,0.0,0.0,0.0,0.0,0.0,0.0,0.0,0.0,0.0,0.0,0.0,0.0,0.0,0.0,0.0,0.0,0.0,0.0,0.0,0.0,0.0,0.0,0.0,0.0,0.0,0.0,0.0,0.0,0.0,0.0,0.0,0.0,0.0,0.0,0.0,0.0,0.0,0.0,0.0,0.0,0.0,0.0,0.0,0.0,0.0,0.0,0.0,0.0,0.0,0.0,0.0,0.0,0.0,0.0,0.0,0.0,0.0,0.0,0.0,0.0,0.0,0.0,0.0,0.0,0.0,0.0,0.0,0.0,0.0,0.0,0.0,0.0,0.0,0.0,0.0,0.0,0.0,0.0,0.0,0.0,0.0,0.0,0.0,-4.7323,-4.5957,0.0,0.0,0.0,0.0,0.0,0.0,0.0,0.0,0.0,0.0,0.0,0.0,0.0,0.0,0.0,0.0,0.0,0.0,0.0,0.0,0.0,0.0,0.0,0.0,0.0,0.0,0.0,0.0,0.0,0.0,0.0,0.0,0.0,0.0,0.0,0.0,0.0,0.0,0.0,0.0,0.0,0.0,0.0,0.0,0.0,0.0,0.0,0.0,0.0,0.0,0.0,0.0,0.0,0.0,0.0,0.0,0.0,0.0,0.0,0.0,0.0,0.0,0.0,0.0,0.0,0.0,0.0,0.0,0.0,0.0,0.0,0.0,0.0,0.0,0.0,0.0,0.0,0.0,0.0,0.0,0.0,0.0,0.0,0.0,0.0,0.0,0.0,0.0,0.0,0.0,0.0,0.0,0.0,0.0,0.0,0.0,0.0,0.0,0.0,0.0,0.0,0.0,0.0,0.0,0.0,0.0,0.0,0.0,-5.0282,-5.0767,-5.0791,-5.1528,-5.1847,-5.1771,-5.0388,-4.9121,-4.8045,-4.8042,0.0,0.0,0.0,0.0,0.0,0.0,0.0,0.0,0.0,0.0,0.0,0.0,0.0,0.0,0.0,0.0,0.0,0.0,0.0,0.0,0.0,0.0,0.0,0.0,0.0,0.0,0.0,0.0,0.0,0.0,0.0,0.0,0.0,0.0,0.0,0.0,0.0,0.0,-3.589,-3.5964,-3.5457,-3.4497,-3.4422,0.0,0.0,0.0,0.0,0.0,0.0,0.0,0.0,0.0,0.0,0.0,0.0,0.0,0.0,0.0,0.0,0.0,0.0,0.0,0.0,0.0,0.0,0.0,0.0,0.0,0.0,0.0,0.0,0.0,0.0,0.0,0.0,0.0,0.0,0.0,0.0,0.0,0.0,0.0,0.0,0.0,0.0,0.0,-3.5504,-3.5563,0.0,0.0,0.0,0.0,0.0,0.0,0.0,0.0,0.0,0.0,0.0,0.0,0.0,-4.8394,-4.8456,-5.0131,-5.0991,-5.1085,-5.2645,-5.3426,-5.3496,-5.3596,-5.3663,-5.3631,-5.3416,0.0,-4.9844,-4.9781,0.0,0.0,0.0,0.0,0.0,0.0,0.0,0.0,0.0,0.0,0.0,0.0,0.0,0.0,0.0,0.0,0.0,0.0,0.0,0.0,0.0,0.0,0.0,0.0,0.0,0.0,0.0,0.0,0.0,0.0,0.0,0.0,0.0,0.0,0.0,0.0,-3.6304,-3.6578,-3.6684,-3.6793,-3.6339,-3.5402,-3.4917,-3.4314,-3.3571,-3.2762,0.0,0.0,0.0,0.0,0.0,0.0,0.0,0.0,0.0,0.0,0.0,0.0,0.0,0.0,0.0,0.0,0.0,0.0,0.0,0.0,0.0,0.0,0.0,0.0,0.0,0.0,0.0,0.0,0.0,0.0,0.0,0.0,0.0,0.0,0.0,0.0,0.0,0.0,0.0,-3.5646,-3.7013,-3.7939,-3.9149,-4.0066,0.0,0.0,0.0,0.0,0.0,0.0,0.0,0.0,0.0,-4.8126,-4.9448,-5.0185,-5.0209,-5.1896,-5.2776,-5.2821,-5.4086,-5.4691,-5.4748,-5.5244,-5.5465,-5.5468,-5.5469,-5.455,-5.3024,-5.2513,-5.1806,-5.102,0.0,0.0,0.0,0.0,-5.0262,-5.0266,0.0,0.0,0.0,0.0,0.0,0.0,0.0,0.0,0.0,0.0,0.0,0.0,0.0,0.0,0.0,-3.0258,0.0,0.0,0.0,0.0,0.0,0.0,0.0,0.0,0.0,0.0,0.0,0.0,-3.6926,-3.7059,-3.6964,-3.7088,-3.6618,-3.5681,-3.5064,-3.4268,-3.3389,-3.3131,-3.244,0.0,0.0,0.0,0.0,0.0,0.0,0.0,0.0,0.0,0.0,0.0,0.0,0.0,0.0,0.0,0.0,0.0,0.0,0.0,0.0,0.0,0.0,0.0,0.0,0.0,0.0,0.0,0.0,0.0,0.0,0.0,0.0,0.0,0.0,0.0,0.0,0.0,0.0,-3.7344,-3.8637,-3.9851,-4.0964,-4.1861,0.0,0.0,0.0,0.0,0.0,0.0,-4.6984,-4.8224,-4.9163,-4.9683,-5.0956,-5.1736,-5.1951,-5.3471,-5.4236,-5.4276,-5.5174,-5.562,-5.5654,-5.6306,-5.6601,-5.6601,-5.6599,-5.6224,-5.5532,-5.4677,-5.3814,-5.3024,-5.3034,-5.263,-5.2032,-5.2032,-5.2041,-5.2025,0.0,0.0,0.0,0.0,0.0,0.0,0.0,0.0,0.0,0.0,0.0,0.0,0.0,0.0,-2.8893,-2.9412,-3.0464,-3.1571,0.0,0.0,0.0,0.0,0.0,0.0,0.0,0.0,0.0,-3.6417,-3.6895,-3.6755,-3.6082,-3.6138,-3.57,-3.486,-3.475,-3.4534,-3.4179,-3.3425,-3.2485,-3.1421,0.0,0.0,0.0,0.0,0.0,0.0,0.0,0.0,0.0,0.0,0.0,0.0,0.0,0.0,0.0,0.0,0.0,0.0,0.0,0.0,0.0,0.0,0.0,0.0,0.0,0.0,0.0,0.0,0.0,0.0,0.0,0.0,0.0,0.0,0.0,0.0,0.0,0.0,0.0,-4.0834,-4.2345,0.0,0.0,0.0,0.0,-4.5861,-4.7492,-4.8824,-4.9648,-4.9789,-5.0612,-5.2358,-5.2481,-5.2929,-5.3767,-5.4681,-5.5173,-5.524,-5.6059,-5.6469,-5.6543,-5.6582,-5.6601,-5.6594,-5.6593,-5.6546,-5.6374,-5.5565,-5.4724,-5.3932,-5.3938,-5.3864,-5.3771,-5.3771,-5.3761,-5.3767,0.0,0.0,0.0,0.0,0.0,0.0,0.0,0.0,0.0,0.0,0.0,0.0,0.0,-2.7809,-2.8692,-2.923,-3.0175,-3.1027,-3.1688,0.0,0.0,0.0,0.0,0.0,0.0,0.0,-3.6395,-3.6592,-3.6373,-3.5908,-3.5224,-3.5254,-3.4776,-3.3898,-3.3869,-3.3719,-3.3436,-3.3167,-3.2723,-3.2129,-3.1141,-3.0485,0.0,0.0,0.0,0.0,0.0,0.0,0.0,0.0,0.0,0.0,0.0,0.0,0.0,0.0,0.0,0.0,0.0,0.0,0.0,0.0,0.0,0.0,0.0,0.0,0.0,0.0,0.0,0.0,0.0,0.0,0.0,0.0,0.0,0.0,0.0,0.0,0.0,-4.3155,-4.389,0.0,-4.5743,-4.6445,-4.7045,-4.7575,-4.8743,-4.9568,-4.9886,-5.0952,-5.1887,-5.2578,-5.3689,-5.4429,-5.4739,-5.5606,-5.605,-5.6079,-5.6415,-5.658,-5.6601,-5.66,-5.6573,-5.6538,-5.6538,-5.6526,-5.6481,-5.6185,-5.5892,-5.5603,-5.5616,-5.5578,-5.5514,-5.5514,-5.5509,-5.5517,0.0,0.0,0.0,0.0,0.0,0.0,0.0,0.0,0.0,0.0,0.0,-2.6111,-2.651,-2.7419,-2.8181,-2.8667,-2.9423,-3.0114,-3.069,0.0,0.0,0.0,0.0,0.0,0.0,-3.544,-3.5489,-3.5648,-3.5127,-3.4503,-3.3822,-3.3578,-3.3139,-3.2506,-3.2495,-3.2505,-3.2523,-3.2491,-3.2538,-3.2518,-3.1511,-3.101,-3.0785,0.0,0.0,0.0,0.0,0.0,0.0,0.0,0.0,0.0,0.0,0.0,0.0,0.0,0.0,0.0,0.0,0.0,0.0,0.0,0.0,0.0,0.0,0.0,0.0,0.0,0.0,0.0,0.0,0.0,0.0,0.0,0.0,0.0,0.0,-4.166,-4.2795,-4.4469,-4.5182,-4.5983,-4.7088,-4.7779,-4.8366,-4.8896,-4.9817,-5.0342,-5.0344,-5.1726,-5.2697,-5.3027,-5.4463,-5.536,-5.5642,-5.6235,-5.6522,-5.6528,-5.658,-5.6581,-5.6578,-5.6571,-5.6536,-5.6494,-5.6509,-5.6491,-5.6464,-5.6465,-5.6453,-5.6437,-5.6449,-5.6437,-5.6402,-5.6402,-5.6403,-5.6411,0.0,0.0,0.0,0.0,0.0,0.0,0.0,0.0,0.0,0.0,0.0,-2.5852,-2.6244,-2.6841,-2.7361,-2.774,-2.8152,-2.8771,-2.9675,-2.9989,0.0,0.0,0.0,0.0,-3.3683,-3.414,-3.4083,-3.3565,-3.3157,-3.2573,-3.184,-3.1189,-3.0846,-3.0779,-3.0708,-3.1005,-3.1548,-3.1503,-3.1914,-3.2466,-3.1512,-3.1044,-3.082,0.0,0.0,0.0,0.0,0.0,0.0,0.0,0.0,0.0,0.0,0.0,0.0,0.0,0.0,0.0,0.0,0.0,0.0,0.0,0.0,0.0,0.0,0.0,0.0,0.0,0.0,0.0,0.0,0.0,0.0,0.0,0.0,0.0,-4.0976,-4.313,-4.4682,-4.466,-4.6145,-4.721,-4.7229,-4.8793,-4.9815,-4.9847,-5.067,-5.1205,-5.1191,-5.2118,-5.3031,-5.3887,-5.483,-5.5708,-5.6508,-5.6567,-5.6598,-5.6601,-5.6601,-5.6558,-5.6508,-5.6506,-5.6492,-5.6501,-5.65,-5.6461,-5.6444,-5.6417,-5.6377,-5.6347,-5.6388,-5.6393,-5.6386,-5.6386,-5.6386,-5.6386,0.0,0.0,0.0,0.0,0.0,0.0,0.0,0.0,0.0,0.0,-2.5203,-2.5632,-2.6096,-2.6606,-2.7026,-2.7335,-2.774,-2.8115,-2.848,0.0,0.0,0.0,0.0,0.0,-3.346,-3.3373,-3.306,-3.2582,-3.2046,-3.141,-3.0736,-3.0538,-3.0436,-3.0363,-3.0348,-3.0395,-3.055,-3.1017,-3.1336,-3.1529,-3.1742,-3.1742,-3.1566,0.0,0.0,0.0,0.0,0.0,0.0,0.0,0.0,0.0,0.0,0.0,0.0,0.0,0.0,0.0,0.0,0.0,0.0,0.0,0.0,0.0,0.0,0.0,0.0,0.0,0.0,0.0,0.0,0.0,0.0,0.0,-4.1664,-4.2787,-4.2787,-4.3854,-4.4866,-4.5473,-4.6473,-4.7395,-4.8081,-4.9142,-5.0061,-5.0699,-5.1031,-5.122,-5.128,-5.2719,-5.3673,-5.3957,-5.5391,-5.6304,-5.6574,-5.6599,-5.6601,-5.66,-5.6551,-5.6518,-5.6506,-5.6494,-5.6468,-5.6422,-5.642,-5.6743,-5.7219,-5.6592,-5.6653,-5.7107,-5.6547,-5.6296,-5.6246,-5.6246,-5.6246,-5.6245,0.0,0.0,0.0,0.0,0.0,0.0,0.0,0.0,0.0,0.0,-2.4978,-2.5342,-2.5702,-2.5964,-2.6202,-2.6421,-2.688,-2.7156,-2.724,0.0,0.0,0.0,0.0,-3.1241,-3.2098,-3.1797,-3.1528,-3.1284,-3.0471,-2.9902,-2.9493,-2.924,-2.9099,-2.9024,-2.9024,-2.9152,-2.9439,-3.0124,-3.0594,-3.0907,-3.1617,-3.1893,-3.1876,-3.1673,-3.1548,-3.1445,-3.1369,-3.1339,-3.1452,-3.1955,0.0,0.0,0.0,0.0,0.0,0.0,0.0,0.0,0.0,0.0,0.0,0.0,0.0,0.0,0.0,0.0,0.0,0.0,0.0,0.0,0.0,0.0,0.0,0.0,-4.2625,-4.3957,-4.3957,-4.4646,-4.5325,-4.5802,-4.6917,-4.7865,-4.8442,-4.9626,-5.0546,-5.106,-5.1164,-5.1235,-5.1296,-5.2944,-5.3936,-5.3992,-5.5646,-5.6556,-5.6601,-5.6562,-5.6557,-5.6551,-5.6513,-5.6492,-5.6452,-5.6461,-5.6448,-5.6398,-5.6377,-5.6617,-5.7002,-5.6473,-5.6502,0.0,0.0,0.0,0.0,0.0,-5.6145,-5.6125,0.0,0.0,0.0,0.0,0.0,0.0,0.0,0.0,0.0,0.0,0.0,-2.5005,-2.5174,-2.5158,-2.519,-2.5317,-2.5741,-2.6051,0.0,0.0,0.0,-2.8958,-2.9358,-2.9729,-3.0072,-2.9809,-2.9683,-2.9696,-2.875,-2.825,-2.8164,-2.7636,-2.7373,-2.731,-2.7326,-2.7657,-2.8265,-2.9007,-2.9712,-3.0379,-3.1132,-3.1587,-3.1839,-3.1757,-3.2164,-3.2801,-3.2752,-3.3333,-3.4116,-3.4135,0.0,0.0,0.0,0.0,0.0,0.0,0.0,0.0,0.0,0.0,0.0,0.0,0.0,0.0,0.0,0.0,0.0,0.0,0.0,0.0,0.0,0.0,0.0,0.0,-4.3172,-4.4628,-4.4725,-4.5402,-4.586,-4.5807,-4.7258,-4.8336,-4.8488,-4.9982,-5.1005,-5.1105,-5.1166,-5.1278,-5.1441,-5.3016,0.0,0.0,0.0,-5.6601,-5.6581,-5.6532,-5.6495,-5.6502,-5.6486,-5.6455,-5.6405,-5.6396,-5.6388,-5.6375,-5.631,-5.6337,-5.6408,-5.6253,-5.6098,-5.6003,-5.6117,-5.6168,-5.6168,-5.6109,-5.6048,-5.5995,0.0,0.0,0.0,0.0,0.0,0.0,0.0,0.0,0.0,-2.4766,-2.467,-2.4694,-2.5005,-2.486,-2.4755,-2.4887,-2.4847,-2.5212,0.0,0.0,-2.7894,-2.8271,-2.8286,-2.843,-2.8742,-2.8445,-2.8127,-2.7827,-2.7675,-2.7329,-2.6792,-2.6776,-2.6758,-2.6759,-2.6808,-2.691,-2.708,-2.7879,-2.8592,-2.9286,-3.0068,-3.0878,-3.1644,-3.2205,-3.2569,-3.287,-3.3451,-3.3882,-3.4216,-3.4371,-3.4435,-3.4427,-3.4091,0.0,0.0,0.0,0.0,0.0,0.0,0.0,0.0,0.0,0.0,0.0,0.0,0.0,0.0,0.0,0.0,0.0,0.0,0.0,0.0,-4.3567,-4.4292,-4.4834,-4.5492,-4.5717,-4.5814,-4.5807,-4.6776,-4.772,-4.8438,-4.9484,-5.0417,-5.1132,-5.1243,-5.162,-5.238,-5.3428,-5.4314,-5.5034,-5.6054,-5.658,-5.652,-5.6515,-5.6494,-5.6491,-5.6453,0.0,-5.6398,-5.635,-5.6323,-5.633,-5.6257,-5.6594,-5.7126,-5.6372,-5.5996,-5.5933,-5.5952,-5.5961,-5.5952,-5.5943,-5.5933,-5.5933,0.0,0.0,0.0,0.0,0.0,0.0,0.0,0.0,0.0,0.0,-2.4498,-2.4299,-2.4234,-2.3974,-2.3712,-2.3463,-2.3861,0.0,0.0,-2.6579,-2.7117,-2.7238,-2.73,-2.7356,-2.7394,-2.7004,-2.6744,-2.6659,-2.6404,-2.6211,-2.5994,-2.6101,-2.6189,-2.6258,-2.6278,-2.6295,-2.6362,-2.7478,-2.8144,-2.856,-2.9718,-3.0466,-3.0992,-3.1681,-3.2485,-3.3262,-3.3722,-3.4522,-3.5382,-3.558,-3.5584,-3.5402,-3.4866,-3.458,-3.4349,0.0,0.0,0.0,0.0,0.0,0.0,0.0,0.0,0.0,0.0,0.0,0.0,0.0,0.0,-4.0254,-4.1934,0.0,-4.3206,-4.4389,-4.495,-4.5337,-4.5749,-4.5807,-4.5807,-4.5807,-4.6628,-4.7546,-4.8412,-4.9353,-5.027,-5.1185,-5.1697,-5.2168,-5.2665,-5.394,-5.4854,-5.5292,-5.611,-5.6528,-5.6508,-5.6461,-5.6452,-5.6441,-5.6373,-5.6358,-5.6345,-5.6278,-5.6225,-5.6209,-5.6122,-5.6306,-5.6603,-5.6058,-5.5837,-5.5796,-5.5724,-5.5735,-5.5806,-5.5806,-5.5765,-5.5703,0.0,0.0,0.0,0.0,0.0,0.0,0.0,0.0,0.0,0.0,0.0,-2.4002,-2.3627,-2.3162,-2.2644,0.0,0.0,0.0,0.0,-2.5928,-2.6275,-2.6169,-2.6316,-2.6262,-2.5969,-2.549,-2.5368,-2.5576,-2.5167,-2.5095,-2.5362,-2.5441,-2.557,-2.5696,-2.5733,-2.5752,-2.5833,-2.7121,-2.774,-2.8005,-2.9382,-3.003,-3.0246,-3.0788,-3.1965,-3.3366,-3.3707,-3.4794,-3.6093,-3.6315,-3.6261,-3.5972,-3.5323,-3.495,-3.4634,-3.4032,-3.421,0.0,0.0,0.0,0.0,0.0,0.0,0.0,0.0,-3.9228,-3.9705,-4.1259,-4.1535,-4.1951,-4.3461,-4.4242,-4.4709,-4.4828,-4.5376,-4.5807,-4.5807,-4.5814,-4.5814,-4.5814,-4.6641,-4.754,-4.8423,-4.9363,-5.0301,-5.1234,-5.2118,-5.2717,-5.2936,-5.4441,-5.5369,-5.5527,-5.6156,-5.6484,-5.6475,-5.6422,-5.6401,-5.6378,-5.6331,-5.6291,-5.6272,-5.6204,-5.6126,-5.6082,-5.5986,-5.5913,-5.5847,-5.5716,-5.5651,-5.564,-5.5527,-5.5539,-5.5618,-5.564,-5.5585,-5.5485,0.0,0.0,0.0,0.0,0.0,0.0,0.0,0.0,0.0,0.0,0.0,0.0,0.0,0.0,0.0,0.0,0.0,0.0,-2.4527,-2.5353,-2.5652,-2.5357,-2.5127,-2.4809,-2.4359,-2.3896,-2.3814,-2.4133,-2.4078,-2.4214,-2.4538,-2.4664,-2.4784,-2.4934,-2.5111,-2.5204,-2.5252,-2.611,-2.6855,-2.7517,-2.8292,-2.9048,-2.9705,-2.9881,-3.0927,-3.2394,-3.3294,-3.3982,-3.4497,-3.4821,-3.5064,-3.5135,-3.4665,-3.4685,-3.4773,-3.4225,-3.482,-3.5708,-3.6083,-3.7573,-3.9103,-3.9359,-4.0066,-4.0911,0.0,-4.1953,-4.2213,-4.3122,-4.326,-4.3508,-4.4402,-4.4593,-4.4847,-4.5543,-4.5749,-4.5807,-4.5807,-4.5854,-4.5893,-4.5893,-4.6655,-4.7572,-4.8491,-4.9445,-5.0356,-5.1238,-5.2161,-5.303,-5.3817,-5.4761,-5.5625,-5.6341,-5.6442,-5.6467,-5.6402,-5.6394,-5.6364,-5.6317,-5.6304,-5.6265,-5.6206,-5.607,-5.6029,-5.6003,-5.5808,-5.5716,-5.5705,-5.5573,-5.5527,-5.5516,-5.5444,-5.5383,-5.5358,-5.548,-5.5516,-5.5408,0.0,0.0,0.0,0.0,0.0,0.0,0.0,0.0,0.0,0.0,0.0,0.0,0.0,0.0,0.0,0.0,0.0,0.0,-2.3919,-2.4721,-2.4874,-2.4173,-2.4049,-2.3635,-2.2894,-2.2761,-2.283,-2.3084,-2.315,-2.337,-2.3694,-2.3758,-2.3927,-2.4224,-2.4307,-2.4585,-2.5024,-2.5805,-2.6554,-2.7306,-2.8029,-2.8599,-2.9005,-2.928,-2.9883,-3.0729,-3.2148,-3.3182,0.0,0.0,-3.4816,-3.5028,-3.46,-3.4714,-3.4908,-3.4377,-3.5079,-3.6319,-3.7696,-3.9122,-4.0372,-4.1007,-4.1507,-4.2049,-4.2948,-4.3136,-4.3333,-4.4176,-4.4269,-4.4433,-4.5243,-4.5383,-4.546,-4.5756,-4.5807,-4.5814,-4.5854,-4.5886,-4.6093,-4.6639,-4.7492,-4.8175,-4.8568,-4.9458,-5.0587,-5.2012,-5.2943,-5.3847,-5.4701,-5.6035,-5.6906,-5.7242,-5.771,-5.7938,-5.7905,-5.7322,-5.7027,-5.6991,-5.6415,-5.6102,-5.6082,-5.5987,-5.5895,-5.5817,-5.5651,-5.5562,-5.5516,-5.542,-5.5371,-5.5333,-5.5255,-5.493,-5.4497,-5.46,-5.4594,-5.4441,0.0,0.0,0.0,0.0,0.0,0.0,0.0,0.0,0.0,0.0,0.0,0.0,0.0,0.0,0.0,0.0,0.0,0.0,0.0,-2.4237,-2.4181,-2.3379,-2.3256,-2.2789,-2.1924,-2.1876,-2.1969,-2.2128,-2.2282,-2.2512,-2.2815,-2.2838,-2.3054,-2.3414,-2.3592,-2.4023,-2.4642,-2.5588,-2.6314,-2.6892,-2.7665,-2.8085,-2.8255,-2.8606,-2.8896,-2.9357,-3.0967,-3.2105,0.0,0.0,-3.4057,-3.4371,-3.4204,-3.444,-3.4747,-3.4437,-3.5468,-3.7139,-3.9199,-4.0306,-4.1081,-4.2081,-4.2366,-4.2692,-4.3806,-4.4014,-4.4195,-4.5056,-4.5133,-4.5243,-4.5819,-4.5918,-4.5887,-4.5841,-4.5834,-4.5918,-4.6216,-4.628,-4.6628,-4.755,-4.8651,-4.9338,-4.9343,-5.0178,-5.1262,-5.2594,-5.3727,-5.4739,-5.5605,-5.7024,-5.7904,-5.8117,-5.8699,-5.8978,-5.8948,-5.8227,-5.7709,-5.7434,-5.6709,-5.6227,-5.5968,-5.5885,-5.5756,-5.5607,-5.5492,-5.5408,-5.5345,-5.5268,-5.5203,-5.5135,-5.5066,-5.4529,-5.3755,-5.3568,-5.352,-5.3432,0.0,0.0,0.0,0.0,0.0,0.0,0.0,0.0,0.0,0.0,0.0,0.0,0.0,0.0,0.0,0.0,0.0,0.0,0.0,-2.3907,-2.3693,-2.3223,-2.284,-2.234,-2.1719,-2.1274,-2.1115,-2.1248,-2.1372,-2.1592,-2.1841,-2.1996,-2.2156,-2.2365,-2.3093,-2.3569,-2.392,-2.5306,-2.5985,-2.6184,-2.6857,-2.7287,-2.754,-2.7775,-2.8131,-2.8701,-2.9924,0.0,0.0,-3.178,-3.2284,-3.2741,-3.3119,-3.3601,-3.4098,-3.4404,-3.6131,-3.8332,-4.0179,-4.0824,-4.1225,-4.2156,-4.2403,-4.2851,-4.4578,-4.4914,-4.5095,-4.5896,-4.6018,-4.5972,-4.5983,-4.5949,-4.5905,-4.5905,-4.5905,-4.6196,-4.7049,-4.722,-4.7575,-4.8463,-5.014,-5.1226,-5.1226,-5.1999,-5.2579,-5.2683,-5.4292,-5.5644,-5.6504,-5.7347,-5.8156,-5.8946,-5.8999,-5.8943,-5.8804,-5.8778,-5.8273,-5.7308,-5.7288,-5.679,-5.5895,-5.5775,-5.5596,-5.5408,-5.5333,-5.5268,-5.5197,-5.5135,-5.5085,-5.5,-5.4931,-5.4326,-5.3414,-5.2568,-5.2423,-5.2519,0.0,0.0,0.0,0.0,0.0,0.0,0.0,0.0,0.0,0.0,0.0,0.0,0.0,0.0,0.0,0.0,0.0,0.0,0.0,-2.3569,-2.3401,-2.2754,-2.2606,-2.2206,-2.1519,-2.1078,-2.0875,-2.0927,-2.1069,-2.1236,-2.1415,-2.1901,-2.2255,-2.2524,-2.2971,-2.3531,-2.4114,-2.4703,-2.5269,-2.581,-2.6158,-2.6416,-2.6613,-2.693,-2.7327,-2.7824,0.0,0.0,0.0,-3.1321,-3.1932,-3.2488,-3.2972,-3.3508,-3.429,-3.6044,-3.76,-3.9019,-4.0397,-4.0854,-4.1178,-4.2141,-4.2393,-4.2714,-4.387,-4.4538,-4.4959,-4.5196,-4.5648,-4.5991,-4.6003,-4.5949,-4.5911,-4.5911,-4.639,-4.6874,-4.7226,-4.7772,-4.8724,-5.0213,-5.0929,-5.1752,-5.2916,-5.3328,-5.3992,-5.5142,-5.5819,-5.6776,-5.8186,-5.9063,-5.9635,-5.9856,-6.0335,-6.0572,-6.0526,-5.932,-5.8543,-5.8159,-5.685,-5.6046,-5.5692,-5.5516,-5.5395,-5.5333,-5.5216,-5.5094,-5.5,-5.4971,-5.4901,-5.4742,-5.4097,-5.3296,-5.24,-5.1532,-5.0903,-5.0457,0.0,0.0,0.0,0.0,0.0,0.0,0.0,0.0,0.0,0.0,0.0,0.0,0.0,0.0,0.0,0.0,0.0,-2.2583,0.0,0.0,-2.3077,-2.2594,-2.2351,-2.2018,-2.1567,-2.1091,-2.0844,-2.0789,-2.0941,-2.1022,-2.1037,-2.1582,-2.1968,-2.2199,-2.268,-2.3202,-2.3768,-2.4189,-2.4653,-2.5147,-2.5342,-2.5508,-2.5742,-2.6149,-2.6587,0.0,0.0,0.0,0.0,-3.0951,-3.1677,-3.23,-3.2829,-3.3686,-3.4958,-3.7284,-3.8523,-3.9365,-4.0468,-4.0854,-4.1178,-4.2158,-4.2391,-4.2637,-4.3503,-4.4077,-4.4501,-4.4783,-4.5224,-4.5672,-4.5988,-4.6005,-4.6072,-4.6383,-4.6907,-4.7501,-4.8165,-4.9011,-5.0111,-5.1587,-5.231,-5.3264,-5.4682,-5.5173,-5.5714,-5.6482,-5.7128,-5.8093,-5.9495,-6.0067,-6.0477,-6.0716,-6.1174,-6.1388,-6.1356,-5.985,-5.8739,-5.7999,-5.641,-5.5596,-5.5492,-5.5358,-5.5242,-5.5149,-5.5071,-5.4941,-5.481,-5.478,-5.4686,-5.45,-5.3553,-5.2658,-5.1745,-5.0876,-5.002,-4.9286,0.0,0.0,0.0,0.0,0.0,0.0,0.0,0.0,0.0,0.0,0.0,0.0,0.0,0.0,0.0,0.0,0.0,0.0,0.0,0.0,0.0,-2.269,-2.2144,-2.182,-2.182,-2.1293,-2.0937,-2.0807,-2.0937,-2.0897,-2.0713,-2.1051,-2.1303,-2.1465,-2.2166,-2.2652,-2.2923,-2.3709,-2.4118,-2.4263,-2.4408,-2.4637,-2.4963,-2.5384,0.0,0.0,0.0,0.0,-2.9422,-3.0584,-3.147,-3.2197,-3.2773,-3.4237,-3.6105,-3.8015,-3.8888,-3.9453,-4.0424,-4.0839,-4.1206,-4.2095,-4.2337,-4.2556,-4.3376,-4.3548,-4.3763,-4.4605,-4.4783,-4.5051,-4.5884,-4.6078,-4.639,-4.7265,-4.744,-4.8083,-4.9819,-5.081,-5.1713,-5.2614,-5.4222,-5.5619,-5.6474,-5.7457,-5.7695,-5.6855,-5.8264,-5.9551,-6.0425,-6.0403,-6.0711,-6.1465,-6.1428,-6.1356,-6.1297,-6.0245,-5.879,-5.6926,-5.6022,-5.548,-5.5294,-5.5281,-5.5135,-5.4901,-5.4886,-5.4814,-5.4673,-5.4538,-5.442,-5.4242,-5.3295,-5.2348,-5.1404,-5.0552,-4.9699,-4.9008,0.0,0.0,0.0,0.0,0.0,0.0,0.0,0.0,0.0,0.0,0.0,0.0,0.0,0.0,0.0,0.0,0.0,0.0,0.0,0.0,0.0,0.0,0.0,0.0,0.0,0.0,0.0,0.0,0.0,-2.0896,-2.0867,-2.1451,-2.1734,-2.1777,-2.2244,-2.2535,-2.2703,-2.3075,-2.3275,-2.3424,0.0,-2.3793,-2.4028,0.0,0.0,0.0,0.0,0.0,-2.9761,-3.0458,-3.191,-3.3611,-3.4693,-3.6072,-3.7461,-3.8222,-3.9124,-3.9971,-4.0501,-4.073,-4.0922,-4.1276,-4.14,-4.1493,-4.1719,-4.226,-4.2749,-4.2924,-4.3983,-4.4939,-4.5149,-4.571,-4.6387,-4.7265,-4.7942,-4.8987,-5.0719,-5.1721,-5.2836,-5.4362,-5.5499,-5.6516,-5.7376,-5.8867,-5.9678,-5.945,-5.9831,-6.0431,-6.1257,-6.129,-6.1314,-6.1421,-6.1366,-6.1263,-6.1155,-5.9513,-5.7788,-5.603,-5.5595,-5.5345,-5.5294,-5.5099,-5.4956,-5.4886,-5.4799,-5.4641,-5.4458,-5.4441,-5.3964,-5.3171,-5.2191,-5.1245,-5.0354,-4.9378,-4.8898,-4.8713,0.0,0.0,0.0,0.0,0.0,0.0,0.0,0.0,0.0,0.0,0.0,0.0,0.0,0.0,0.0,0.0,0.0,0.0,0.0,0.0,0.0,0.0,0.0,0.0,0.0,0.0,0.0,0.0,0.0,0.0,0.0,-2.1491,-2.1694,-2.1694,-2.1956,-2.2142,-2.2235,0.0,0.0,0.0,0.0,0.0,0.0,0.0,0.0,0.0,0.0,-2.8784,-3.0823,-3.1808,-3.3056,-3.4446,-3.5822,-3.6903,-3.7822,-3.854,-3.9335,-4.0023,-4.0307,-4.0542,-4.0748,-4.0887,-4.0958,-4.102,-4.1058,-4.1463,-4.1932,-4.2269,-4.3115,-4.4036,-4.4794,-4.5306,-4.6135,-4.7742,-4.8413,-4.9492,-5.1613,-5.2649,-5.3819,-5.5556,-5.6545,-5.7553,-5.8828,-5.9834,-6.0553,-6.089,-6.0919,-6.1112,-6.1573,-6.1542,-6.1479,-6.14,-6.1291,-6.0777,-5.989,-5.8819,-5.737,-5.5527,-5.5371,-5.5229,-5.5127,-5.4975,-5.4841,-5.4714,-5.4606,-5.4476,-5.4321,-5.3806,-5.327,-5.2621,-5.1268,-5.0435,-4.9898,-4.8846,-4.8458,-4.8421,0.0,0.0,0.0,0.0,0.0,0.0,0.0,0.0,0.0,0.0,0.0,0.0,0.0,0.0,0.0,0.0,0.0,0.0,0.0,0.0,0.0,0.0,0.0,0.0,0.0,0.0,0.0,0.0,0.0,0.0,0.0,0.0,0.0,0.0,0.0,0.0,0.0,0.0,0.0,0.0,0.0,0.0,0.0,0.0,0.0,0.0,0.0,-2.9735,-3.2101,-3.3647,-3.4421,-3.4972,-3.6378,-3.7132,-3.7694,-3.8795,-3.9383,-3.9746,-3.9956,-4.0253,-4.054,-4.0687,-4.0791,-4.0867,-4.0941,-4.1016,-4.1298,-4.2049,-4.2303,-4.2881,-4.4518,-4.4917,-4.5824,-4.8376,-4.8796,-4.9752,-5.2481,-5.3576,-5.472,-5.6479,-5.7538,-5.8789,-6.0396,-6.0668,-6.1065,-6.1864,-6.1817,-6.1705,-6.1588,-6.1441,-6.1378,-6.1356,-6.1154,-6.016,-5.8311,-5.8258,-5.7266,-5.5294,-5.5255,-5.514,-5.4901,-5.4856,-5.4717,-5.4489,-5.4407,-5.4306,-5.4163,-5.3051,-5.2531,-5.2234,-5.0546,-4.9787,-4.9584,-4.8601,-4.8267,-4.8119,0.0,0.0,0.0,0.0,0.0,0.0,0.0,0.0,0.0,0.0,-2.435,-2.3806,0.0,0.0,0.0,0.0,0.0,0.0,0.0,0.0,0.0,0.0,0.0,0.0,0.0,-2.1874,-2.1781,-2.1667,-2.1667,0.0,0.0,0.0,0.0,0.0,0.0,0.0,0.0,0.0,0.0,0.0,0.0,0.0,0.0,0.0,0.0,0.0,-2.9283,-3.1096,-3.2535,-3.4013,-3.4871,-3.5533,-3.6688,-3.7488,-3.8051,-3.8431,-3.882,-3.9205,-3.9529,-3.98,-4.0072,-4.0266,-4.0436,-4.0603,-4.0722,-4.0839,-4.0971,-4.1132,-4.181,-4.2708,-4.3652,-4.4433,-4.5777,-4.8387,-4.8794,-4.9968,-5.3315,-5.4468,-5.5624,-5.7379,-5.8978,-6.0336,-6.13,-6.2036,-6.2775,-6.3531,-6.2925,-6.2192,-6.1473,-6.1359,-6.1247,-6.1079,-6.0929,-6.0019,-5.8311,-5.808,-5.7079,-5.5294,-5.5085,-5.4946,-5.4886,-5.4622,-5.4458,-5.4407,-5.4216,0.0,-5.3833,-5.2958,-5.2122,-5.1248,-5.0096,-4.9208,-4.8546,-4.8186,-4.8052,-4.7942,0.0,0.0,0.0,0.0,0.0,0.0,0.0,-2.554,-2.5721,-2.5721,-2.554,-2.5204,-2.4626,-2.4326,-2.4157,0.0,0.0,0.0,0.0,0.0,0.0,0.0,0.0,0.0,0.0,-2.1843,-2.1761,-2.1698,0.0,-2.1698,-2.1698,-2.1698,-2.1698,-2.1698,-2.1698,-2.1761,0.0,0.0,0.0,0.0,0.0,0.0,0.0,0.0,0.0,0.0,0.0,-3.1463,-3.2578,-3.362,-3.4457,-3.5222,-3.6377,-3.7113,-3.7614,-3.7772,-3.814,-3.8624,-3.9308,-3.9757,-4.0158,-4.0825,-4.0832,-4.0765,-4.0966,-4.0823,-4.0666,-4.0761,-4.1217,-4.1975,-4.3292,-4.392,-4.5225,-4.8298,-4.8807,-5.0018,-5.3454,-5.4662,-5.6002,-5.8168,-5.9934,-6.129,-6.209,-6.2966,-6.3597,-6.3867,-6.3084,-6.2401,-6.1993,-6.141,-6.1022,-6.0897,-6.0769,-5.9861,-5.8111,-5.7867,-5.6858,-5.5099,-5.4931,-5.4764,-5.4638,-5.4474,-5.4285,-5.4126,-5.4,-5.3609,-5.3012,-5.2102,-5.1172,-5.0206,-4.926,-4.8556,-4.8131,-4.8008,-4.7634,-4.7102,0.0,0.0,0.0,0.0,0.0,0.0,0.0,-2.5937,-2.6274,-2.6274,-2.6621,-2.6573,-2.5709,-2.5144,-2.482,0.0,0.0,0.0,0.0,0.0,0.0,0.0,0.0,0.0,0.0,0.0,0.0,-2.1824,-2.1824,0.0,0.0,0.0,0.0,0.0,-2.2036,-2.2135,-2.226,-2.2537,0.0,0.0,0.0,-2.4154,0.0,0.0,0.0,0.0,0.0,-3.1349,-3.2355,-3.2964,-3.3691,-3.452,-3.5487,-3.6256,-3.6821,-3.6983,-3.7431,-3.8078,-3.8952,-3.9593,-4.0228,-4.1155,-4.1116,-4.0884,-4.1032,-4.0749,-4.0471,-4.053,-4.0626,-4.1243,-4.3086,-4.3482,-4.4682,-4.8181,-4.876,-4.9957,-5.3377,-5.4769,-5.6309,-5.8679,-6.0599,-6.2049,-6.286,-6.3722,-6.424,-6.4268,-6.3245,-6.2481,-6.215,-6.1309,-6.08,-6.0741,-6.0585,-5.9726,-5.8113,-5.7749,-5.6732,-5.5106,-5.4843,-5.4592,-5.4356,-5.4304,-5.4127,-5.387,-5.3552,-5.301,-5.2228,-5.1055,-5.0163,-4.9421,-4.8497,-4.8048,-4.7929,-4.7842,-4.7231,-4.6316,0.0,0.0,0.0,0.0,0.0,0.0,0.0,-2.6502,-2.6825,-2.6825,-2.6861,-2.6861,-2.6753,-2.6286,-2.5949,0.0,0.0,0.0,0.0,0.0,0.0,0.0,0.0,0.0,0.0,0.0,0.0,-2.2166,-2.2278,0.0,0.0,0.0,0.0,0.0,0.0,-2.3352,-2.3389,-2.3911,0.0,0.0,0.0,0.0,0.0,0.0,0.0,0.0,0.0,-3.097,-3.1836,-3.2327,-3.2949,-3.3547,-3.377,-3.4757,-3.5873,-3.6053,-3.6751,-3.7561,-3.8093,-3.8922,-3.9764,-4.0221,-4.0547,-4.0646,-4.0356,-4.0491,-4.0537,-4.007,-4.0175,-4.0926,-4.2789,-4.3251,-4.4499,-4.8035,-4.8628,-4.9805,-5.3234,-5.5147,-5.6844,-5.862,-6.0987,-6.2823,-6.3629,-6.444,-6.5161,-6.5738,-6.4082,-6.2437,-6.104,-6.0753,-6.0604,-6.0539,-6.0337,-5.9745,-5.8724,-5.7852,-5.6885,-5.5802,-5.4884,-5.4373,-5.4214,-5.3963,-5.3851,-5.3757,-5.2706,-5.2177,0.0,-5.0228,-4.9429,-4.9161,-4.8273,-4.7861,-4.7699,-4.7575,-4.6981,-4.6122,0.0,0.0,0.0,0.0,0.0,0.0,-2.6093,-2.6839,-2.7366,-2.7366,-2.7642,-2.7846,-2.7846,-2.7392,-2.6947,-2.6597,0.0,0.0,0.0,0.0,0.0,0.0,0.0,0.0,0.0,0.0,-2.3284,-2.3284,-2.3457,0.0,0.0,0.0,0.0,0.0,0.0,-2.4386,-2.4494,-2.4675,0.0,0.0,0.0,0.0,0.0,0.0,0.0,0.0,0.0,0.0,-3.0955,-3.1552,-3.2033,-3.2403,-3.2621,-3.3229,-3.4077,-3.5328,-3.6041,-3.6709,-3.8025,-3.8773,-3.942,-4.0366,-4.0537,-4.0503,-4.0706,-4.0352,-4.0011,-4.0071,-4.0322,-4.0974,-4.2421,-4.3227,-4.4677,-4.7746,-4.8711,-5.0121,-5.3092,-5.5397,-5.7215,-5.8419,-6.125,-6.3207,-6.3533,-6.4734,-6.5122,-6.4251,-6.3331,-6.2089,-6.0472,-6.0373,-6.0337,-6.0266,-6.0103,-5.9529,-5.8513,-5.7574,-5.6611,-5.5647,-5.4609,-5.4054,-5.3963,-5.3717,-5.3282,-5.2681,-5.2149,-5.1307,0.0,-4.9508,-4.8857,-4.8239,-4.7826,-4.7593,-4.7414,-4.6902,-4.6108,-4.519,0.0,0.0,0.0,0.0,0.0,-2.6346,-2.6346,-2.726,-2.7957,-2.7957,-2.8282,-2.851,-2.851,-2.8174,-2.7762,-2.739,-2.6755,0.0,0.0,0.0,0.0,0.0,0.0,0.0,0.0,0.0,-2.4013,-2.4091,-2.432,-2.4451,0.0,0.0,-2.4815,-2.4827,0.0,0.0,0.0,0.0,0.0,0.0,0.0,0.0,0.0,0.0,0.0,0.0,0.0,0.0,0.0,0.0,0.0,-3.1749,-3.1908,-3.2181,-3.2752,-3.4484,-3.527,-3.596,-3.7588,-3.8361,-3.8975,-4.0039,-4.0227,-4.0219,-4.0488,-4.0119,-3.9784,-4.0029,-4.0432,-4.1081,-4.2252,-4.3327,-4.4881,-4.7414,-4.8817,-5.0423,-5.2877,-5.5374,-5.728,-5.8188,-6.1227,-6.3229,-6.3225,-6.4627,-6.481,-6.2987,-6.2592,-6.1725,-6.0039,-5.9941,-5.9941,-5.9944,-5.9853,-5.9401,-5.8571,-5.7375,-5.6424,-5.5716,-5.441,-5.3737,-5.3639,-5.344,-5.2794,-5.1857,-5.1472,-5.045,0.0,-4.8708,-4.8185,-4.7554,-4.7464,-4.7338,-4.712,-4.6327,-4.5426,-4.4466,0.0,0.0,0.0,0.0,0.0,0.0,-2.6885,-2.7786,-2.8498,-2.8498,-2.851,-2.851,-2.851,-2.851,-2.8498,-2.8498,-2.7498,0.0,0.0,0.0,0.0,0.0,0.0,0.0,0.0,0.0,-2.4079,-2.43,-2.4621,-2.4802,-2.4802,-2.5135,-2.5294,-2.5333,0.0,0.0,0.0,0.0,0.0,0.0,0.0,0.0,0.0,0.0,0.0,0.0,0.0,0.0,0.0,0.0,0.0,0.0,0.0,-3.182,-3.2168,-3.3437,-3.4441,-3.5342,-3.6418,-3.7504,-3.8402,-3.8827,-3.9361,-3.9716,-3.9405,-3.9753,-4.0109,-3.9857,-4.0328,-4.116,-4.2369,-4.3591,-4.5063,-4.7074,-4.8859,-5.0646,-5.2544,-5.5006,-5.6951,-5.7888,-6.0903,-6.2882,-6.2796,-6.413,-6.4322,-6.2615,-6.2265,-6.1369,-5.9691,-5.9419,-5.9401,-5.9616,-5.9546,-5.9402,-5.9196,-5.7398,-5.6424,-5.6286,-5.4396,-5.344,-5.3297,-5.3088,-5.248,-5.1551,-5.0548,-4.9575,0.0,-4.7709,-4.732,-4.7298,-4.7223,-4.7111,-4.689,-4.5952,-4.5035,-4.42,0.0,0.0,0.0,0.0,0.0,0.0,0.0,-2.8065,-2.851,-2.851,-2.851,-2.851,-2.851,-2.851,-2.851,-2.851,-2.7834,0.0,0.0,0.0,0.0,0.0,0.0,0.0,0.0,0.0,-2.5565,-2.5743,-2.598,-2.616,-2.6306,-2.656,-2.6659,-2.6672,-2.6952,-2.7096,0.0,0.0,0.0,0.0,0.0,0.0,-2.8142,0.0,0.0,0.0,0.0,0.0,0.0,0.0,0.0,0.0,0.0,0.0,0.0,-3.3118,-3.3964,-3.4912,-3.6165,-3.6749,-3.7161,-3.7722,-3.8234,-3.8652,-3.8966,-3.9141,-3.9341,-3.9669,-4.0217,-4.1043,-4.2359,-4.3659,-4.537,-4.794,-4.9449,-5.1119,-5.3547,-5.5648,-5.7456,-5.8856,-6.1475,-6.3355,-6.3836,-6.4312,-6.3879,-6.2145,-6.1864,-6.1017,-5.929,-5.9081,-5.9119,-5.9309,-5.9234,-5.88,-5.8062,-5.6747,-5.5749,-5.505,-5.3771,-5.3088,-5.2959,-5.2757,-5.1851,-5.0397,-4.9915,-4.8915,-4.7631,-4.716,-4.6962,-4.6939,-4.6824,-4.6754,-4.6548,-4.5207,-4.4478,-4.3981,0.0,0.0,0.0,0.0,0.0,0.0,0.0,-2.8174,-2.851,-2.851,-2.851,-2.8595,-2.8787,-2.8811,-2.8883,-2.9088,-2.8799,0.0,0.0,0.0,0.0,0.0,0.0,0.0,0.0,-2.6691,-2.7009,-2.7148,-2.744,-2.7674,-2.7859,-2.8053,-2.8224,-2.8279,-2.8381,-2.8347,0.0,0.0,0.0,0.0,0.0,0.0,-2.8952,0.0,0.0,0.0,0.0,0.0,0.0,0.0,0.0,0.0,0.0,0.0,0.0,0.0,-3.3568,-3.4454,-3.5535,-3.5991,-3.6243,-3.6754,-3.7237,-3.7719,-3.8234,-3.8525,-3.8932,-3.9829,-4.0533,-4.1416,-4.2774,-4.4387,-4.6151,-4.8126,-5.012,-5.2045,-5.3862,-5.5916,-5.7977,-5.9985,-6.1863,-6.3307,-6.4072,-6.4125,-6.3389,-6.1662,-6.1429,-6.0619,-5.8898,-5.8698,-5.8696,-5.8821,-5.8764,-5.8271,-5.7307,-5.6242,-5.5242,-5.4304,-5.3277,-5.2735,-5.2604,-5.2062,-5.105,-4.9693,-4.9161,-4.8204,0.0,-4.6778,-4.6684,-4.6637,-4.6495,-4.6246,-4.5817,-4.4472,-4.3775,-4.3266,0.0,0.0,0.0,0.0,0.0,0.0,0.0,-2.8198,-2.851,-2.851,-2.851,-2.8715,-2.9244,-2.9304,-2.9508,-3.0037,0.0,0.0,0.0,0.0,0.0,0.0,0.0,0.0,-2.752,-2.7926,-2.8206,-2.8411,-2.8808,-2.9106,-2.931,-2.9522,-2.9719,-2.9894,-2.9894,-2.9789,0.0,0.0,0.0,0.0,0.0,0.0,0.0,0.0,0.0,0.0,0.0,0.0,0.0,0.0,0.0,0.0,0.0,0.0,0.0,0.0,0.0,0.0,0.0,-3.5246,-3.5703,-3.5955,-3.6476,-3.703,-3.7424,-3.8085,0.0,-4.0254,-4.1161,-4.2135,-4.3563,-4.5538,-4.7218,-4.8029,-5.0887,-5.3233,-5.3826,-5.6036,-5.857,-6.1104,-6.2063,-6.2798,-6.3565,-6.3527,-6.2792,-6.1159,-6.0941,-6.0152,-5.8539,-5.8268,-5.8174,-5.8133,-5.8131,-5.773,-5.689,-5.587,-5.4866,-5.3877,-5.2917,-5.2387,-5.2233,-5.1144,-5.0187,-4.9317,-4.8372,-4.7411,-4.6566,-4.6542,-4.6471,-4.6332,-4.6158,-4.5604,-4.4764,-4.3781,-4.3001,-4.2271,0.0,0.0,0.0,0.0,0.0,0.0,0.0,0.0,0.0,0.0,-2.851,-2.8715,-2.9244,-2.9304,-2.9508,0.0,0.0,0.0,0.0,0.0,0.0,0.0,0.0,0.0,-2.773,-2.8121,-2.8424,-2.8618,-2.9012,-2.9345,-2.9522,-2.9754,-2.9859,-2.9894,-2.9894,-2.9789,0.0,0.0,0.0,0.0,0.0,0.0,0.0,0.0,0.0,0.0,-3.2092,-3.2205,0.0,0.0,0.0,0.0,0.0,0.0,0.0,0.0,-3.3492,-3.4031,-3.4649,0.0,-3.5269,-3.6106,-3.6702,-3.7385,0.0,-3.9151,-3.9863,-4.0652,-4.1399,-4.253,-4.4501,-4.5683,-4.734,-5.0271,-5.1692,-5.3203,-5.545,-5.8042,-6.0167,-6.1411,-6.2253,-6.2805,-6.299,-6.2431,-6.1658,-6.0641,-5.9996,-5.9136,-5.8015,-5.7909,-5.7792,-5.7583,-5.6909,-5.6246,-5.5629,-5.521,-5.4241,-5.2687,-5.2246,-5.198,-5.1804,-5.0827,-4.9877,-4.8972,-4.7964,-4.7065,-4.6284,-4.608,-4.5972,-4.5877,-4.5284,-4.4928,-4.4589,-4.3182,-4.2549,-4.2271,0.0,0.0,0.0,0.0,0.0,0.0,0.0,0.0,0.0,0.0,0.0,0.0,0.0,0.0,0.0,0.0,0.0,0.0,0.0,0.0,0.0,0.0,0.0,-2.9159,-2.8725,-2.9112,-2.9446,-2.9766,-3.0059,-3.0385,-3.0672,-3.078,-3.0887,-3.0958,-3.0851,-3.0744,0.0,0.0,0.0,0.0,-3.0838,0.0,0.0,0.0,0.0,0.0,-3.2146,-3.2241,0.0,-3.23,-3.2395,-3.2561,0.0,0.0,0.0,0.0,-3.3804,-3.4368,-3.4717,-3.5082,-3.5558,-3.6427,-3.7098,-3.78,-3.8579,-3.9282,-4.0143,-4.1443,-4.227,-4.3362,-4.5501,-4.7003,-4.8627,-5.0875,-5.2426,-5.4223,-5.6776,-5.9128,-6.0763,-6.1182,-6.2,-6.2526,-6.2526,-6.1795,-6.0991,-6.0187,-5.9316,-5.844,-5.7565,-5.748,-5.7381,-5.7213,-5.631,-5.5539,-5.4942,-5.4424,-5.3453,-5.2011,-5.1882,-5.1708,-5.1477,-5.012,-4.9233,-4.868,-4.7269,-4.6432,-4.6005,-4.5871,-4.577,-4.5623,-4.491,-4.4364,-4.388,-4.2587,-4.1905,-4.1559,0.0,0.0,0.0,0.0,0.0,0.0,0.0,0.0,0.0,0.0,0.0,0.0,0.0,0.0,0.0,0.0,0.0,0.0,0.0,0.0,0.0,0.0,0.0,-3.0263,-2.9956,-3.0267,-3.0647,-3.0986,-3.1248,-3.1545,-3.189,-3.1927,-3.2036,-3.2182,-3.2036,-3.1927,0.0,0.0,-3.1646,-3.1646,-3.1646,0.0,0.0,0.0,0.0,0.0,0.0,0.0,0.0,-3.2453,-3.2596,-3.2775,-3.2952,0.0,0.0,0.0,0.0,0.0,-3.5146,-3.5668,-3.6335,-3.6945,-3.7708,-3.8427,-3.8888,-3.959,-4.0706,-4.262,-4.357,-4.467,-4.6654,-4.8668,-5.0264,-5.1102,-5.3397,-5.5814,-5.7962,-5.9646,-6.0729,-6.0865,-6.1571,-6.2014,-6.1914,-6.1215,-6.0399,-5.9582,-5.8655,-5.7836,-5.7167,-5.7003,-5.6853,-5.6719,-5.5798,-5.4981,-5.4273,-5.3594,-5.2702,-5.164,-5.1589,-5.1444,-5.1149,-4.9362,-4.853,-4.8416,-4.6577,0.0,-4.5787,-4.5718,-4.5589,-4.5295,-4.4517,-4.3723,-4.2839,-4.194,-4.1204,-4.0648,0.0,0.0,0.0,0.0,0.0,0.0,0.0,0.0,0.0,0.0,0.0,0.0,0.0,0.0,0.0,0.0,0.0,0.0,0.0,0.0,0.0,0.0,-3.1299,-3.0795,-3.0707,-3.0676,-3.0761,-3.0986,-3.1373,-3.1669,-3.189,-3.2073,-3.2182,-3.2218,-3.2182,-3.2073,-3.189,-3.1853,-3.1853,-3.1853,-3.1853,0.0,0.0,0.0,0.0,0.0,0.0,0.0,0.0,-3.2668,-3.281,-3.2952,-3.2988,0.0,0.0,0.0,0.0,0.0,-3.6664,-3.7272,-3.7659,-3.786,-3.8802,-3.9973,-4.1044,-4.2207,-4.3343,-4.4284,-4.5374,-4.6626,-4.8202,-4.9573,-5.1098,-5.2887,-5.5186,-5.7368,-5.92,-5.9784,-6.0322,-6.1146,-6.1354,-6.1232,-6.0735,-5.9943,-5.9132,-5.834,-5.7503,-5.6946,-5.6707,-5.6662,-5.6251,-5.533,-5.4519,-5.3655,-5.283,-5.2913,-5.2424,-5.1376,-5.1061,-5.0928,-5.0822,-4.9012,-4.818,-4.8067,0.0,-4.5632,-4.5615,-4.538,-4.4922,-4.4233,-4.3314,-4.2518,-4.1739,-4.0979,-4.0637,-4.0534,0.0,0.0,0.0,0.0,0.0,0.0,0.0,0.0,0.0,0.0,0.0,0.0,0.0,0.0,0.0,0.0,0.0,0.0,0.0,0.0,0.0,-3.3018,-3.2449,-3.1842,-3.1253,-3.1267,-3.13,-3.1336,-3.1633,-3.1853,-3.2073,-3.2146,-3.2218,-3.2218,-3.2218,-3.2146,-3.2073,-3.2073,-3.2262,-3.2546,0.0,0.0,0.0,0.0,0.0,0.0,0.0,0.0,0.0,0.0,-3.4027,-3.4209,-3.4331,0.0,0.0,0.0,0.0,0.0,-3.7172,-3.823,-3.9288,-3.9454,-4.0126,-4.1015,-4.2133,-4.3439,-4.4687,-4.5738,-4.6927,-4.8216,-4.9572,-5.1085,-5.2808,-5.4925,-5.6784,-5.8277,-5.9135,-5.9747,-6.0306,-6.0861,-6.063,-6.0326,-6.0056,-5.8895,-5.8019,-5.7644,-5.6793,-5.6282,-5.6227,-5.6227,-5.5816,-5.4924,-5.4061,-5.3156,-5.2233,-5.1847,-5.1458,-5.1026,-5.0874,-5.0529,-4.9946,-4.8605,-4.774,-4.7226,0.0,-4.5353,-4.5239,-4.4712,-4.4281,-4.387,-4.2595,-4.1911,-4.1518,-4.0684,-4.0362,-4.0271,0.0,0.0,0.0,0.0,0.0,0.0,0.0,0.0,0.0,0.0,0.0,0.0,0.0,0.0,0.0,0.0,0.0,0.0,0.0,0.0,-3.3441,-3.3569,-3.3454,-3.2898,-3.1798,-3.1824,-3.179,-3.1683,-3.1817,-3.2,-3.2218,-3.2218,-3.2218,-3.2218,-3.2218,-3.2218,-3.2218,-3.2368,-3.268,-3.3115,0.0,0.0,0.0,0.0,0.0,0.0,0.0,0.0,0.0,0.0,0.0,0.0,0.0,0.0,0.0,-3.6019,-3.6779,-3.7557,-3.7813,-3.9114,-4.0537,-4.1105,-4.1547,-4.213,-4.32,-4.4503,-4.5824,-4.7058,-4.8476,-4.9799,-5.0876,-5.2657,-5.4618,-5.6638,-5.7842,-5.8619,-5.9001,-5.9685,-6.0199,-6.0374,-5.9858,-5.94,-5.9253,-5.796,-5.7067,-5.689,-5.6226,-5.5775,-5.5729,-5.557,-5.5129,-5.4324,-5.3437,-5.2534,-5.1633,-5.0872,-5.0575,-5.0694,-5.0509,-4.9988,-4.9139,-4.8031,-4.7133,-4.6429,-4.5547,-4.4984,-4.4714,-4.4097,-4.3653,-4.3209,-4.1963,-4.1401,-4.1179,-4.0492,-4.0188,-4.0096,0.0,0.0,0.0,0.0,0.0,0.0,0.0,0.0,0.0,0.0,0.0,0.0,0.0,0.0,0.0,0.0,0.0,0.0,0.0,0.0,-3.3611,-3.4034,-3.4037,-3.3604,-3.2607,-3.2253,-3.2004,-3.189,-3.189,-3.2,-3.2218,-3.2218,-3.2218,-3.2218,-3.2218,-3.2218,-3.2259,-3.2803,-3.3061,-3.3179,-3.3926,0.0,0.0,0.0,0.0,0.0,0.0,0.0,0.0,0.0,0.0,0.0,0.0,0.0,-3.6662,-3.6847,-3.7502,-3.8335,-3.9339,-4.001,-4.08,-4.2455,-4.3135,-4.3713,-4.4802,-4.6045,-4.7255,-4.8345,-5.0188,-5.1694,-5.2106,-5.4028,-5.6045,-5.755,-5.7891,-5.8335,-5.9396,-5.9602,-5.9685,-5.9829,-5.9228,-5.8556,-5.7978,-5.7166,-5.6375,-5.5684,-5.5566,-5.5455,-5.5259,-5.4594,-5.3818,-5.2875,-5.2126,-5.1359,-5.0512,-5.032,-5.0302,-5.0425,-4.9618,-4.9069,-4.8791,-4.7159,-4.6316,-4.6093,-4.533,-4.4612,-4.397,-4.3785,-4.2864,-4.1571,-4.1315,-4.0807,-4.0206,-4.0155,-4.0113,-4.0096,0.0,0.0,0.0,0.0,0.0,0.0,0.0,0.0,0.0,0.0,0.0,0.0,0.0,0.0,0.0,0.0,0.0,0.0,0.0,0.0,-3.3907,-3.4076,-3.4382,-3.425,-3.3648,-3.3105,-3.2715,-3.2479,-3.2212,-3.2146,-3.2218,-3.2218,-3.2218,-3.2218,-3.2218,-3.2422,-3.2775,-3.3006,-3.3612,-3.4435,-3.4744,-3.5253,0.0,0.0,0.0,0.0,0.0,0.0,0.0,0.0,-3.6571,-3.6647,0.0,-3.7195,-3.7494,-3.7831,-3.8543,-3.9325,-3.9823,-4.098,-4.2289,-4.3327,-4.4434,-4.5335,-4.5712,-4.7624,-4.9453,-4.9957,-5.168,-5.3386,-5.4352,-5.5559,-5.6737,-5.7733,-5.8116,-5.8462,-5.8978,-5.9047,-5.8942,-5.8642,-5.8029,-5.7361,-5.6694,-5.5985,-5.5471,-5.5221,-5.4767,-5.4416,-5.4231,-5.35,-5.2676,-5.1736,-5.1341,-5.0782,-4.9971,-4.9825,-4.9573,-4.9137,-4.8902,-4.8449,-4.7763,-4.669,-4.586,-4.5261,-4.4528,-4.3953,-4.3515,-4.2545,-4.1807,-4.1205,-4.0619,-4.0162,-3.9858,-3.9858,-3.9572,-3.916,0.0,0.0,0.0,0.0,0.0,0.0,0.0,0.0,0.0,0.0,0.0,0.0,0.0,0.0,0.0,0.0,0.0,0.0,-3.3611,-3.3907,-3.4118,-3.4202,-3.459,-3.4694,-3.4499,-3.3953,-3.3522,-3.316,-3.2715,-3.2395,-3.2218,-3.2218,-3.2218,-3.2218,-3.2218,-3.2436,-3.2843,-3.3285,-3.4039,-3.4961,-3.5476,-3.6071,0.0,0.0,0.0,0.0,0.0,0.0,0.0,0.0,0.0,0.0,0.0,0.0,0.0,0.0,-3.9295,-3.9925,-4.0552,-4.2024,-4.3472,-4.4139,-4.5611,-4.6904,-4.7123,-4.8943,-5.0756,-5.1343,-5.2941,-5.4656,-5.5933,-5.6553,-5.7089,-5.7687,-5.808,-5.8367,-5.8509,-5.858,-5.841,-5.7809,-5.7135,-5.646,-5.5734,-5.5052,-5.4579,-5.4337,-5.3852,-5.3424,-5.3042,-5.233,-5.1597,-5.0961,-5.0618,-5.0198,-4.9619,-4.9458,-4.8963,-4.826,-4.7987,-4.7488,-4.6755,-4.5959,-4.5126,-4.4275,-4.3728,-4.3156,-4.2507,-4.1495,-4.0939,-4.0669,-4.006,-3.9781,-3.967,-3.9452,-3.9024,-3.8572,0.0,0.0,0.0,0.0,0.0,0.0,0.0,0.0,0.0,0.0,0.0,0.0,0.0,0.0,0.0,0.0,0.0,0.0,-3.4076,-3.4118,-3.4202,-3.4397,-3.466,-3.488,-3.5086,-3.4701,-3.4322,-3.3908,-3.3363,-3.2803,-3.2218,-3.2218,-3.2218,-3.2218,-3.2218,-3.2218,-3.23,-3.3707,-3.4327,-3.4437,-3.6064,-3.6721,-3.6707,0.0,0.0,0.0,0.0,0.0,0.0,0.0,-3.7586,0.0,0.0,0.0,0.0,0.0,-3.9648,-4.0132,-4.1679,-4.3022,-4.4155,-4.4838,-4.6689,-4.848,-4.9191,-4.9987,-5.1005,-5.2429,-5.3927,-5.5335,-5.6487,-5.6872,-5.7139,-5.7514,-5.7772,-5.7954,-5.8152,-5.8367,-5.82,-5.7465,-5.6679,-5.5911,-5.5142,-5.4407,-5.3673,-5.2938,-5.287,-5.256,-5.1808,-5.1022,-5.0564,-5.0564,-4.9863,-4.9488,-4.9488,-4.9138,-4.8612,-4.7881,-4.6807,-4.6157,-4.5875,-4.4925,-4.4013,-4.3182,-4.306,-4.2166,-4.0799,-4.0782,-4.0373,-3.9703,-3.9703,-3.9687,-3.9603,-3.8874,-3.8589,-3.8472,0.0,0.0,0.0,0.0,0.0,0.0,0.0,0.0,0.0,0.0,0.0,0.0,0.0,0.0,0.0,0.0,0.0,0.0,-3.4076,-3.4424,-3.4632,-3.4673,-3.5031,-3.5236,-3.5318,-3.5346,-3.4884,-3.3908,-3.3731,-3.3376,-3.283,-3.283,-3.2672,-3.2322,-3.2322,-3.2641,-3.3253,-3.4124,-3.483,-3.544,-3.6323,-3.6786,-3.6915,0.0,0.0,0.0,0.0,0.0,0.0,0.0,0.0,0.0,0.0,0.0,0.0,-3.9404,-4.0085,-4.0873,-4.249,-4.3816,-4.4999,-4.6138,-4.7721,-4.9291,-5.0492,-5.1335,-5.2381,-5.422,-5.5093,-5.5721,-5.6195,-5.658,-5.6834,-5.6949,-5.7252,-5.7514,-5.7551,-5.7187,-5.6634,-5.5875,-5.5239,-5.4566,-5.3856,-5.3195,-5.2718,-5.2498,-5.1513,-5.0803,-5.0488,-4.9712,-4.9227,-4.9118,-4.8899,-4.8798,-4.8798,-4.8169,-4.7516,-4.676,-4.5932,-4.5475,-4.5387,-4.4589,-4.3793,-4.3026,-4.2484,-4.1686,-4.0749,-4.0256,-3.9826,-3.9563,-3.9563,-3.9168,-3.8624,-3.8382,-3.7677,-3.6746,0.0,0.0,0.0,0.0,0.0,0.0,0.0,0.0,0.0,0.0,0.0,0.0,0.0,0.0,0.0,0.0,0.0,0.0,0.0,0.0,-3.4921,-3.4921,-3.5236,-3.544,-3.5521,-3.5642,-3.5317,-3.4612,-3.4368,-3.3962,-3.3403,-3.3271,-3.3018,-3.2759,-3.2585,-3.2803,-3.3275,-3.4007,-3.4742,-3.5481,-3.621,-3.6665,-3.6978,0.0,0.0,0.0,0.0,0.0,0.0,0.0,0.0,0.0,0.0,0.0,0.0,-3.9915,-4.0731,-4.167,-4.324,-4.4534,-4.5667,-4.6746,-4.8301,-4.9988,-5.1543,-5.2566,-5.3576,-5.4895,-5.5442,-5.5685,-5.579,-5.6188,-5.6463,-5.6463,-5.6719,-5.6849,-5.6549,-5.6208,-5.5595,-5.467,-5.4276,-5.3711,-5.274,-5.232,-5.1865,-5.1275,-5.0399,-4.9744,-4.9362,-4.8877,-4.8562,-4.8388,-4.8388,-4.8206,-4.7873,-4.7345,-4.6566,-4.5582,-4.5056,-4.466,-4.4344,-4.3823,-4.3175,-4.2406,-4.1332,-4.0604,-4.0171,-3.973,-3.9484,-3.9422,-3.9422,-3.892,-3.8153,-3.788,-3.7019,-3.5959,0.0,0.0,0.0,0.0,0.0,0.0,0.0,0.0,0.0,0.0,0.0,0.0,0.0,0.0,0.0,0.0,0.0,0.0,0.0,0.0,-3.5127,-3.5127,-3.5358,-3.5562,-3.5723,-3.575,-3.5764,-3.5764,-3.522,-3.4611,-3.4027,-3.367,-3.3453,-3.3353,-3.2949,-3.2795,-3.2816,-3.3606,-3.4278,-3.4901,-3.5761,-3.6441,-3.6908,-3.6964,0.0,0.0,0.0,0.0,0.0,0.0,0.0,0.0,-3.8202,0.0,-3.9651,-4.0542,-4.1385,-4.2396,-4.3952,-4.5182,-4.6143,-4.6913,-4.8618,-5.0537,-5.2359,-5.3571,-5.4412,-5.4713,-5.5072,-5.5344,-5.5344,-5.5709,-5.6006,-5.6046,-5.6139,-5.6017,-5.538,-5.5319,-5.4928,-5.3748,-5.3568,-5.3057,-5.1813,-5.1629,-5.1011,-4.9608,-4.944,-4.9106,-4.8453,-4.842,-4.8324,-4.813,-4.813,-4.77,-4.6858,-4.6599,-4.5794,-4.4476,-4.4238,-4.3719,-4.2982,-4.2804,-4.2304,-4.1472,-3.9966,-3.9299,-3.9299,-3.9299,-3.9299,-3.9299,-3.9299,-3.8841,-3.8103,-3.7466,-3.6738,-3.6009,0.0,0.0,0.0,0.0,0.0,0.0,0.0,0.0,0.0,0.0,0.0,0.0,0.0,0.0,0.0,0.0,0.0,0.0,0.0,0.0,-3.5358,-3.5358,-3.5737,-3.5952,-3.5992,-3.6152,-3.6232,-3.6232,-3.5949,-3.5487,-3.4899,-3.4967,-3.4578,-3.3784,-3.3681,-3.3483,-3.3199,-3.3864,-3.4237,-3.4447,-3.563,-3.6188,-3.6356,-3.6796,-3.6978,0.0,0.0,0.0,0.0,0.0,0.0,0.0,-3.8202,-3.869,-3.9474,-4.0503,-4.1268,-4.2287,-4.4504,-4.5406,-4.61,-4.7463,-4.9309,-5.1219,-5.289,-5.3443,-5.377,-5.437,-5.4739,-5.4922,-5.4922,-5.5155,-5.536,-5.5507,-5.5277,-5.5067,-5.5044,-5.4137,-5.3391,-5.3115,-5.2573,-5.1865,-5.1013,-5.0404,-4.9696,-4.8807,-4.8247,-4.7869,-4.7704,-4.7737,-4.7704,-4.7637,-4.7637,-4.7276,-4.652,-4.5896,-4.5142,-4.4256,-4.3621,-4.2982,-4.2324,-4.2265,-4.1593,-4.0392,-3.9626,-3.9299,-3.9299,-3.9299,-3.9299,-3.9299,-3.9299,-3.8841,-3.8169,-3.8004,-3.75,-3.6828,0.0,0.0,0.0,0.0,0.0,0.0,0.0,0.0,0.0,0.0,0.0,0.0,0.0,0.0,0.0,0.0,0.0,0.0,0.0,0.0,0.0,-3.5737,-3.6072,-3.6246,-3.6246,-3.6365,-3.6405,-3.6405,-3.6405,-3.616,-3.5764,-3.5695,-3.5363,-3.4785,-3.4259,-3.3934,-3.3726,-3.3754,-3.3936,-3.4287,-3.525,-3.5836,-3.6174,-3.6754,-3.6978,-3.7017,-3.7226,0.0,0.0,0.0,0.0,0.0,0.0,0.0,-3.9551,-4.0489,-4.1307,-4.2337,-4.4295,-4.5244,-4.618,-4.811,-4.9668,-5.1043,-5.2427,-5.2984,-5.3299,-5.3404,-5.3994,-5.446,-5.446,-5.4755,-5.4893,-5.4647,-5.4398,-5.4034,-5.3457,-5.2728,-5.2183,-5.1988,-5.129,-5.0595,-4.9952,-4.9254,-4.8537,-4.7804,-4.7412,-4.7217,-4.7217,-4.7217,-4.7183,-4.7064,-4.6755,-4.6202,-4.5355,-4.4642,-4.3913,-4.32,-4.289,-4.2252,-4.1317,-4.1122,-4.0484,-3.9456,-3.9177,-3.9067,-3.9067,-3.9121,-3.9148,-3.9175,-3.9272,-3.8841,-3.8186,-3.8186,-3.768,-3.7001,0.0,0.0,0.0,0.0,0.0,0.0,0.0,0.0,0.0,0.0,0.0,0.0,0.0,0.0,0.0,0.0,0.0,0.0,0.0,0.0,0.0,0.0,-3.6325,-3.6445,-3.6445,-3.647,-3.651,-3.651,-3.6668,-3.6668,-3.6496,-3.6153,-3.5938,-3.5798,-3.4901,-3.4399,-3.4175,-3.3655,-3.374,-3.4259,-3.4936,-3.5555,-3.6174,-3.6754,-3.7017,-3.707,-3.7264,-3.7457,-3.7701,-3.7891,0.0,0.0,0.0,0.0,-3.9583,-4.0356,-4.1257,-4.2327,-4.3717,-4.4974,-4.6392,-4.8609,-4.9621,-5.0347,-5.14,-5.2149,-5.2516,-5.2116,-5.297,-5.3796,-5.3686,-5.3967,-5.4029,-5.3464,-5.3298,-5.2844,-5.1717,-5.1485,-5.1291,-5.0884,-5.0215,-4.9549,-4.8949,-4.8311,-4.7599,-4.6837,-4.6789,-4.6789,-4.6789,-4.6789,-4.6689,-4.637,-4.584,-4.5064,-4.4061,-4.3469,-4.2813,-4.2109,-4.2029,-4.135,-4.0227,-3.9805,-3.9294,-3.875,-3.8805,-3.8805,-3.8805,-3.8914,-3.8969,-3.8969,-3.9148,-3.8828,-3.8299,-3.8299,-3.784,-3.7209,0.0,0.0,0.0,0.0,0.0,0.0,0.0,0.0,0.0,0.0,-3.141,0.0,0.0,0.0,0.0,0.0,0.0,0.0,0.0,0.0,0.0,-3.6365,-3.6563,-3.6682,-3.6682,-3.685,-3.6915,-3.6915,-3.6954,-3.6954,-3.6915,-3.6869,-3.6547,-3.6065,-3.5897,-3.5236,-3.4189,-3.4104,-3.4133,-3.4259,-3.4936,-3.5555,-3.6174,-3.6754,-3.7109,-3.7303,-3.7495,-3.7701,-3.7891,-3.8104,-3.8165,0.0,0.0,0.0,-3.9295,-3.9583,-4.0656,-4.1972,-4.3006,-4.4822,-4.6852,-4.83,-4.894,-4.9357,-5.0114,-5.0459,-5.068,-5.0588,-5.1661,-5.2445,-5.1883,-5.1815,-5.1868,-5.1952,-5.1638,-5.1341,-5.1327,-5.0984,-5.0724,-5.0644,-5.0009,-4.9288,-4.8636,-4.7894,-4.7173,-4.6433,-4.6369,-4.6369,-4.6369,-4.6369,-4.608,-4.5472,-4.5376,-4.4687,-4.3341,-4.3262,-4.2813,-4.2093,-4.0893,-3.9946,-3.9191,-3.866,-3.8489,-3.8644,-3.875,-3.8805,-3.8805,-3.8832,-3.8832,-3.8832,-3.886,-3.881,-3.8728,-3.8728,-3.8663,-3.8526,0.0,0.0,0.0,0.0,0.0,0.0,0.0,0.0,0.0,0.0,0.0,-3.178,0.0,0.0,0.0,0.0,0.0,0.0,0.0,0.0,0.0,-3.6563,-3.6772,-3.685,-3.685,-3.6954,-3.6978,-3.6978,-3.6978,-3.6978,-3.6978,-3.6978,-3.6838,-3.661,-3.6258,-3.5808,-3.5236,-3.4899,-3.4745,-3.4801,-3.5456,-3.5864,-3.6174,-3.6754,-3.7109,-3.7341,-3.7534,-3.7739,-3.7929,-3.8127,-3.8202,-3.8202,-3.8202,0.0,0.0,0.0,-3.9953,-4.0856,-4.2614,-4.4348,-4.6005,-4.7204,-4.8147,-4.8912,-4.933,-4.9811,-5.0022,-4.9641,-5.0054,-5.0629,-5.108,-5.1281,-5.1283,-5.0986,-5.0755,-5.0508,-5.0236,-5.0002,-4.9892,-4.9892,-4.8874,-4.8085,-4.7785,-4.6807,-4.6034,-4.5698,-4.5667,-4.5667,-4.5667,-4.534,-4.4993,-4.4678,-4.394,-4.3229,-4.2597,-4.2201,-4.1764,-4.1246,-4.0323,-3.957,-3.8974,-3.8312,-3.8164,-3.8363,-3.8532,-3.8572,-3.8572,-3.8655,-3.8683,-3.8683,-3.8777,-3.8805,-3.8805,-3.8805,-3.875,-3.8683,0.0,0.0,0.0,0.0,0.0,0.0,0.0,0.0,0.0,0.0,0.0,0.0,0.0,0.0,0.0,0.0,0.0,0.0,0.0,0.0,0.0,-3.6772,-3.6915,-3.6978,-3.6978,-3.6978,-3.6978,-3.6978,-3.6978,-3.6978,-3.6978,-3.6978,-3.6978,-3.6964,-3.6539,-3.6244,-3.6075,-3.5625,-3.5428,-3.547,-3.592,-3.6286,-3.6624,-3.7049,-3.7473,-3.7887,-3.8018,-3.8251,-3.8481,-3.8605,-3.858,-3.8449,-3.8449,-3.8333,0.0,0.0,0.0,-4.0021,-4.2347,-4.3697,-4.4674,-4.5813,-4.7034,-4.7976,-4.8192,-4.8836,-4.9272,-4.8728,-4.8708,-4.9075,-5.0035,-5.0399,-5.037,-4.9786,-4.975,-4.9621,-4.9109,-4.9113,-4.905,-4.8879,-4.7791,-4.6998,-4.6812,-4.5739,-4.5055,-4.5055,-4.5055,-4.4977,-4.4806,-4.4324,-4.391,-4.3603,-4.256,-4.1972,-4.1835,-4.118,-4.0642,-4.0196,-3.966,-3.9102,-3.8523,-3.8057,-3.7934,-3.8078,-3.825,-3.8351,-3.8379,-3.8476,-3.8548,-3.856,-3.8655,-3.8711,-3.8711,-3.8711,-3.8628,-3.8548,0.0,0.0,0.0,0.0,0.0,0.0,0.0,0.0,0.0,0.0,0.0,0.0,-3.2345,-3.2381,-3.2489,-3.2668,-3.3275,0.0,0.0,0.0,0.0,-3.6964,-3.6978,0.0,-3.6978,-3.6978,-3.6978,-3.6978,-3.6978,-3.6978,-3.6978,-3.6978,-3.6978,-3.6978,-3.695,-3.6652,-3.6103,-3.6075,-3.6061,-3.6061,-3.6103,-3.6768,-3.7807,-3.7835,-3.8496,-3.9396,-3.9396,-3.9661,-4.0002,-4.0002,-3.9625,-3.9146,-3.9146,-3.871,-3.8202,0.0,0.0,0.0,-4.2118,-4.2788,-4.3142,-4.4482,-4.5465,-4.6141,-4.6141,-4.6948,-4.7714,-4.7684,-4.7898,-4.8067,-4.814,-4.8155,-4.814,-4.811,-4.8263,-4.8416,-4.8343,-4.8537,-4.8414,-4.7768,-4.7074,-4.6381,-4.5734,-4.5041,-4.461,-4.461,-4.461,-4.4332,-4.3738,-4.3661,-4.3117,-4.1961,-4.1852,-4.1616,-4.1164,-4.0493,-3.9776,-3.909,-3.8623,-3.8009,-3.7301,-3.7583,-3.77,-3.773,-3.8049,-3.8209,-3.8237,-3.8351,-3.8391,-3.8391,-3.842,-3.842,-3.842,-3.842,-3.842,-3.8391,0.0,0.0,0.0,0.0,0.0,0.0,0.0,0.0,0.0,0.0,0.0,0.0,0.0,-3.3166,-3.3463,-3.4071,-3.4432,0.0,0.0,0.0,0.0,-3.6413,-3.6427,-3.661,-3.6978,-3.6978,-3.6796,-3.6427,-3.6427,-3.623,-3.5836,-3.5836,-3.5836,-3.5878,-3.6666,-3.6866,-3.6694,-3.6694,-3.6694,-3.6722,-3.7091,-3.7498,-3.7948,-3.8369,-3.8934,-3.9482,-3.9482,-3.9747,-4.0104,-4.0104,-3.9958,-3.9712,-3.932,-3.9044,-3.8754,-3.8333,-3.8719,-3.9488,-4.0407,-4.1546,-4.2658,-4.3237,-4.429,-4.5276,-4.5633,-4.6172,-4.6685,-4.706,-4.7366,-4.7553,-4.7553,-4.781,-4.8007,-4.8007,-4.8049,-4.8091,-4.8091,-4.816,-4.7958,-4.7287,-4.6615,-4.5944,-4.5273,-4.4601,-4.4205,-4.4205,-4.4205,-4.3915,-4.3243,-4.2801,-4.2181,-4.1301,-4.0893,-4.0627,-4.0589,-4.0013,-3.9433,-3.8882,-3.8341,-3.7731,-3.7075,-3.73,-3.7389,-3.7419,-3.7714,-3.7992,-3.8193,-3.825,-3.8323,-3.8391,-3.8391,-3.8391,-3.8456,-3.8926,-3.9104,-3.9169,0.0,0.0,0.0,0.0,0.0,0.0,0.0,0.0,-3.2036,-3.2182,0.0,0.0,0.0,0.0,-3.4335,-3.4962,-3.5115,-3.5226,-3.5263,-3.5263,-3.5582,-3.6278,-3.6307,-3.6452,-3.6785,-3.6799,-3.6451,-3.5808,-3.5808,-3.5583,-3.5189,-3.5189,-3.5189,-3.5231,-3.6047,-3.6525,-3.6722,-3.6894,-3.6978,-3.7035,-3.7653,-3.8032,-3.8313,-3.9156,-3.9882,-4.0453,-4.0709,-4.1042,-4.1366,-4.1149,-4.0931,-4.0655,-4.0046,-3.9538,-3.9073,-3.8405,-3.8522,-3.8952,-3.9308,-4.0354,-4.1449,-4.2019,-4.304,-4.4093,-4.4711,-4.5206,-4.5732,-4.6326,-4.6604,-4.6809,-4.7032,-4.7337,-4.7581,-4.7752,-4.7767,-4.7709,-4.7651,-4.7624,-4.7292,-4.6319,-4.5808,-4.5206,-4.4318,-4.3837,-4.3581,-4.3581,-4.3581,-4.319,-4.2318,-4.1851,-4.1242,-4.0513,-4.0167,-4.0066,-4.0207,-3.9409,-3.887,-3.8573,-3.7839,-3.7297,-3.6908,-3.7104,-3.7194,-3.7224,-3.7524,-3.7788,-3.8049,-3.8135,-3.8395,-3.8691,-3.8748,-3.891,-3.9169,-3.9596,-3.9774,-3.9809,0.0,0.0,0.0,0.0,0.0,0.0,0.0,0.0,-3.2259,-3.2273,0.0,0.0,0.0,0.0,0.0,-3.5217,-3.5217,-3.5277,-3.5388,-3.541,-3.5804,-3.6668,-3.6682,0.0,-3.642,-3.642,-3.5996,-3.5161,-3.5161,-3.5161,-3.5133,-3.5133,-3.5133,-3.5133,-3.5161,-3.5513,-3.6117,-3.6736,-3.6978,-3.7063,-3.7681,-3.8327,-3.9085,-4.0266,-4.1397,-4.2424,-4.3082,-4.3574,-4.3892,-4.3239,-4.2629,-4.2005,-4.1323,-4.0234,-3.9073,-3.842,-3.8217,-3.8347,0.0,0.0,0.0,-4.0757,-4.1718,-4.2538,-4.3238,-4.4051,-4.4811,-4.543,-4.5548,-4.5769,-4.6447,-4.6565,-4.6712,-4.7207,-4.7266,-4.7207,-4.6931,-4.6873,-4.6311,-4.4796,-4.4619,-4.4118,-4.285,-4.2703,-4.2688,-4.2688,-4.2688,-4.2128,-4.087,-4.0766,-4.0313,-3.9418,-3.9783,-3.996,-3.993,-3.8641,-3.8044,-3.8167,-3.7027,-3.6554,-3.6693,-3.7043,-3.7194,-3.721,-3.7436,-3.7601,-3.7764,-3.8097,-3.8599,-3.924,-3.9434,-3.9914,-4.0467,-4.0365,-4.0321,-4.0307,0.0,0.0,0.0,0.0,0.0,-3.3571,-3.3447,-3.342,-3.3495,0.0,0.0,0.0,-3.5127,-3.5955,-3.6266,-3.5892,-3.5963,-3.5891,-3.5489,-3.5608,-3.6002,-3.6668,-3.6682,-3.6607,-3.642,-3.642,-3.5783,-3.4492,-3.4492,-3.4267,-3.3831,-3.3831,-3.3831,-3.3845,-3.4295,-3.4829,-3.5484,-3.6103,-3.6838,-3.7695,-3.8341,-3.9282,-4.028,-4.1067,-4.2048,-4.3054,-4.3239,-4.3574,-4.3964,-4.3776,-4.3282,-4.2557,-4.1439,-4.0234,-3.916,-3.8986,-3.858,-3.8246,-3.8434,0.0,0.0,0.0,0.0,0.0,-4.2871,-4.3447,-4.3923,-4.4526,-4.4829,-4.5163,-4.5739,-4.5857,-4.6063,-4.6697,-4.6771,-4.6771,-4.6683,-4.6668,-4.6329,-4.5445,-4.4914,-4.4295,-4.3499,-4.2983,-4.2688,0.0,-4.2688,-4.2128,-4.087,-3.9896,-3.9239,-3.8958,-3.9213,-3.9206,-3.8853,-3.8129,-3.7634,-3.7332,-3.6624,-3.6305,-3.6367,-3.6677,-3.7187,-3.7794,-3.7979,-3.8446,-3.8995,-3.8699,-3.9056,-3.9772,-3.9848,-3.9991,-4.0185,-4.0683,-4.0876,-4.0925,0.0,0.0,0.0,0.0,0.0,-3.4192,-3.3948,-3.3984,-3.4137,0.0,0.0,0.0,-3.6235,-3.6729,-3.6877,-3.664,-3.6726,-3.6585,-3.6145,-3.6227,-3.6495,-3.6942,-3.6882,-3.6605,-3.6148,-3.6074,-3.5303,-3.381,-3.381,-3.3627,-3.329,-3.3206,-3.3157,-3.3171,-3.3449,-3.4083,-3.4971,-3.5419,-3.6504,-3.7962,-3.8649,-3.9606,-4.08,-4.1685,-4.2824,-4.3961,-4.4352,-4.4723,-4.4992,-4.482,-4.3979,-4.2818,-4.1831,-4.0815,-3.9944,-3.9654,-3.9291,-3.8986,-3.8986,-3.9276,-3.9726,-4.035,0.0,0.0,-4.2382,-4.2755,-4.3013,-4.364,-4.3856,-4.4188,-4.4833,-4.4936,-4.5068,-4.5464,-4.5669,-4.5917,-4.6373,-4.6447,-4.6168,-4.5391,-4.4631,-4.3945,-4.3332,-4.2592,-4.2172,-4.2172,-4.191,-4.1252,-4.0086,-3.9057,-3.8612,-3.8686,-3.887,-3.8741,-3.8301,-3.7729,-3.7274,-3.6877,-3.6356,-3.6148,-3.6211,-3.6862,-3.739,-3.7904,-3.8466,-3.9141,-3.9818,-3.9581,-3.98,-4.0338,-4.0416,-4.0622,-4.0926,-4.1294,-4.1422,-4.1486,0.0,0.0,-3.5547,-3.4978,-3.4897,-3.4707,-3.4179,-3.4342,-3.4533,0.0,-3.5401,-3.6308,-3.7119,-3.7228,-3.7307,-3.7515,-3.754,-3.7477,-3.7253,-3.7247,-3.7292,-3.7418,-3.722,-3.6689,-3.5804,-3.5608,-3.478,-3.329,-3.329,-3.329,-3.3276,-3.3072,-3.2988,-3.2952,-3.2844,-3.3477,-3.4609,-3.4863,-3.6126,-3.8006,-3.8636,-3.9732,-4.1025,-4.2149,-4.3567,-4.5014,-4.5769,-4.6232,-4.6454,-4.6036,-4.469,-4.3079,-4.2411,-4.1744,-4.1076,-4.0408,-4.0162,-4.0104,-4.0104,-4.0104,-4.0249,-4.0931,-4.1091,0.0,-4.1947,-4.2092,-4.2252,-4.2774,-4.289,-4.3094,-4.3761,-4.3877,-4.3863,-4.3921,-4.4239,-4.4817,-4.5886,-4.6032,-4.5753,-4.4922,-4.4095,-4.3344,-4.2696,-4.1894,-4.1396,-4.1396,-4.0753,-3.9946,-3.8937,-3.8413,-3.8217,-3.8441,-3.8612,-3.8479,-3.7929,-3.7371,-3.689,-3.6541,-3.6165,-3.6067,-3.6302,-3.7231,-3.7745,-3.7994,-3.8966,-3.9768,-4.0445,-4.0639,-4.0784,-4.0912,-4.1087,-4.1518,-4.2013,-4.1915,-4.1866,-4.18,0.0,-3.5669,-3.5683,-3.556,-3.5533,-3.5506,-3.5358,-3.5597,-3.5809,-3.5967,-3.686,-3.7754,-3.8466,-3.8658,-3.8793,-3.8833,-3.9139,-3.9104,-3.8549,-3.8673,-3.8556,-3.8057,-3.7818,-3.7112,-3.5818,-3.5608,-3.478,-3.329,-3.329,-3.3206,-3.3072,-3.3023,-3.2917,-3.2803,-3.3242,-3.3854,-3.4623,-3.5117,-3.648,-3.8405,-3.8764,-4.0252,-4.2233,-4.2486,-4.3836,-4.5548,-4.5723,-4.6376,-4.7059,-4.6181,-4.5271,-4.4313,-4.3181,-4.2397,-4.1773,-4.1091,-4.0525,-4.0104,-4.0104,-4.0104,-4.0249,-4.0931,-4.1091,0.0,-4.1947,-4.2092,-4.2121,-4.2237,-4.2281,-4.2455,-4.3065,-4.3068,-4.3113,-4.3589,-4.3616,-4.3888,-4.4788,-4.5127,-4.5063,-4.4387,-4.3771,-4.3083,-4.2439,-4.1781,-4.1396,-4.1396,-4.0324,-3.9379,-3.8714,-3.8069,-3.7801,-3.8005,-3.8202,-3.7872,-3.691,-3.7044,-3.6565,-3.5505,-3.5666,-3.6135,-3.6843,-3.7159,-3.8061,-3.9422,-3.979,-4.0391,-4.1119,-4.1333,-4.1416,-4.1449,-4.1497,-4.1576,-4.1687,-4.1654,-4.1571,-4.139,-3.571,-3.571,-3.571,-3.571,-3.571,-3.5764,-3.5898,-3.6112,-3.6422,-3.6952,-3.7844,-3.855,-3.8996,-3.9161,-3.9282,-3.947,-3.9656,-3.9711,-3.9512,-3.9325,-3.902,-3.8558,-3.8064,-3.722,-3.6128,-3.5617,-3.4812,-3.374,-3.3346,-3.3108,-3.2988,-3.281,-3.282,-3.3014,-3.3248,-3.3868,-3.4744,-3.5109,-3.6396,-3.8214,-3.8546,-4.0265,-4.2584,-4.2584,-4.3814,-4.5557,-4.6011,-4.6719,-4.7289,-4.6449,-4.5602,-4.4777,-4.4139,-4.3297,-4.2484,-4.204,-4.142,-4.0859,-4.0792,-4.0752,-4.0838,-4.1169,-4.1324,0.0,0.0,-4.1531,-4.1512,-4.1163,-4.1091,-4.1152,-4.1389,-4.1324,-4.1416,-4.1965,-4.2096,-4.2438,-4.3167,-4.3795,-4.4081,-4.3811,-4.3093,-4.2522,-4.2195,-4.1483,-4.0788,-4.022,-3.9582,-3.8842,-3.8022,-3.7628,-3.7586,-3.7891,-3.8005,-3.773,-3.7061,-3.7317,-3.7005,-3.6145,-3.6532,-3.6977,-3.7491,-3.7994,-3.8714,-3.9673,-4.0231,-4.0912,-4.1706,-4.1924,-4.228,-4.2616,-4.2268,-4.2141,-4.2173,-4.2404,-4.2412,-4.2325,-3.571,-3.571,-3.571,-3.571,-3.571,-3.5804,-3.6072,-3.6382,-3.6899,-3.789,-3.8778,-3.9434,-3.9725,-3.9921,-4.0183,-4.0495,-4.0591,-4.0556,-4.0495,-4.0031,-3.9503,-3.8933,-3.8183,-3.7377,-3.6434,-3.5624,-3.4843,-3.4153,-3.3366,-3.2952,-3.2881,-3.2561,-3.2695,-3.3246,-3.3247,-3.3824,-3.4841,-3.5297,-3.6428,-3.7949,-3.8422,-4.0178,-4.2525,-4.257,-4.3722,-4.5408,-4.6364,-4.6942,-4.7128,-4.653,-4.5722,-4.492,-4.479,-4.4052,-4.3141,-4.2753,-4.2265,-4.1735,-4.1466,-4.1396,-4.1396,-4.1396,-4.1507,-4.1502,0.0,0.0,0.0,-4.0115,-3.9971,-3.9946,-3.9762,-3.9696,-3.9788,-4.0196,-4.0432,-4.0788,-4.1326,-4.2009,-4.258,-4.2951,-4.2363,-4.1878,-4.1751,-4.1126,-4.0196,-3.9,-3.8902,-3.8394,-3.7296,-3.7226,-3.7419,-3.7777,-3.7815,-3.7702,-3.7419,-3.7622,-3.75,-3.7055,-3.7434,-3.7782,-3.8205,-3.8891,-3.9367,-3.9754,-4.0588,-4.1414,-4.2065,-4.2394,-4.2959,-4.352,-4.3021,-4.2834,-4.2879,-4.3242,-4.3325,-4.3255,-3.571,-3.571,-3.571,-3.571,-3.571,-3.5804,-3.6072,-3.6726,-3.777,-3.9326,-4.0322,-4.1043,-4.1639,-4.2524,-4.3099,-4.3142,-4.3401,-4.3037,-4.1947,-4.1802,-4.0908,-3.8991,-3.8638,-3.7819,-3.6448,-3.5624,-3.4769,-3.393,-3.333,-3.281,-3.2489,-3.2417,-3.265,-3.3152,-3.3607,-3.4179,-3.4856,-3.5954,-3.7016,-3.7962,-3.8738,-4.0338,-4.2272,-4.2525,-4.3722,-4.5408,-4.6364,-4.6687,-4.6636,-4.6262,-4.5656,-4.4955,-4.4457,-4.4185,-4.3841,-4.2696,-4.2281,-4.2096,-4.1553,-4.1396,-4.1396,-4.1396,-4.1438,-4.128,-4.0693,0.0,-4.0363,-3.9691,0.0,-3.9562,-3.9522,0.0,0.0,-3.9341,-3.9235,-3.9182,-3.9253,-3.9323,-4.0013,-4.1618,-4.1701,-4.1448,-4.0899,-4.0744,-4.0196,-3.9,-3.8902,-3.8354,-3.7088,-3.7017,-3.7148,-3.7341,-3.7534,-3.7438,-3.7082,-3.7383,-3.7315,-3.691,-3.7089,-3.7768,-3.8892,-3.8987,-3.9524,-4.0447,-4.1299,-4.1744,-4.1903,-4.2685,-4.3087,-4.3185,-4.3282,-4.3321,-4.3321,-4.3189,-4.3007,-4.2864,-3.571,-3.571,-3.571,-3.571,-3.5844,-3.6032,-3.6246,-3.7368,-3.8712,-4.0154,-4.1071,-4.1909,-4.2665,-4.3256,-4.3676,-4.3835,-4.3936,-4.3761,-4.3239,-4.2359,-4.1398,-4.0402,-3.9099,-3.8022,-3.7303,-3.6129,-3.5204,-3.4487,-3.3591,-3.2904,-3.2431,-3.2677,-3.3071,-3.3607,-3.4165,-3.4748,-3.5358,-3.6252,-3.7,-3.7751,-3.8722,-4.029,-4.206,-4.2435,-4.3722,-4.5352,-4.5763,-4.5957,-4.6058,-4.5912,-4.5527,-4.5081,-4.481,-4.4481,-4.4024,-4.2948,-4.2392,-4.1966,-4.1213,-4.1001,-4.1001,-4.1001,-4.1071,-4.0942,-3.9975,-3.9829,-3.961,-3.861,0.0,0.0,0.0,0.0,0.0,0.0,-3.838,-3.844,-3.886,-3.8765,-3.9004,-3.9929,-4.0013,0.0,-3.9662,-3.9536,-3.9116,-3.8369,-3.8313,-3.792,-3.7035,-3.6978,-3.7109,-3.7303,-3.7495,-3.7572,-3.7503,-3.7899,-3.8048,-3.8001,-3.818,-3.8671,-3.94,-3.9536,-4.0076,-4.0999,-4.1467,-4.2195,-4.3046,-4.3412,-4.3863,-4.433,-4.4278,-4.4101,-4.3825,-4.405,-4.4022,-4.3837,-3.571,-3.571,-3.571,-3.571,-3.5938,-3.6316,-3.6873,-3.8223,-3.9605,-4.0872,-4.1793,-4.275,-4.377,-4.4265,-4.463,-4.501,-4.4864,-4.4646,-4.4428,-4.3185,-4.2122,-4.1326,-3.9808,-3.8613,-3.792,-3.6699,-3.5708,-3.5068,-3.389,-3.3051,-3.2604,-3.2921,-3.3376,-3.3935,-3.4531,-3.5209,-3.5995,-3.6605,-3.7216,-3.784,-3.9033,-4.0603,-4.2292,-4.2884,-4.4017,-4.5262,-4.508,-4.5279,-4.5595,-4.5378,-4.5152,-4.4894,-4.4894,-4.4595,-4.4112,-4.3293,-4.264,-4.1975,-4.1166,-4.0828,-4.0702,-4.0702,-4.0802,-4.0605,-3.9389,-3.9228,-3.8965,-3.7713,-3.7419,0.0,0.0,0.0,-3.7328,-3.7622,0.0,-3.7742,-3.8218,-3.8098,-3.8128,-3.8723,-3.8738,-3.8697,0.0,-3.8546,-3.824,-3.7868,-3.7826,-3.7585,-3.7021,-3.6978,-3.707,-3.7226,-3.7457,-3.7663,-3.7815,-3.8217,-3.8538,-3.8782,-3.8943,-3.9339,-3.9988,-4.0126,-4.0705,-4.1597,-4.1904,-4.273,-4.384,-4.4025,-4.4456,-4.5017,-4.4799,-4.4489,-4.4192,-4.4576,-4.4648,-4.4511,-3.571,-3.571,-3.571,-3.571,-3.5938,-3.6631,-3.8213,-3.92,-4.028,-4.178,-4.2707,-4.3829,-4.5257,-4.6177,-4.6937,-4.7608,-4.71,-4.6338,-4.5535,-4.4886,-4.3457,-4.1128,-4.0944,-3.9982,-3.7934,-3.7065,-3.6295,-3.5502,-3.4008,-3.3196,-3.3074,-3.3088,-3.3376,-3.3935,-3.4531,-3.5439,-3.6605,-3.7243,-3.7811,-3.8491,-3.9953,-4.158,-4.3157,-4.4037,-4.4762,-4.5192,-4.465,-4.4818,-4.524,-4.4635,-4.4425,0.0,0.0,-4.4397,-4.4256,-4.3638,-4.3034,-4.2402,-4.1755,-4.1151,-4.0702,-4.0702,-4.0688,-4.0378,-3.9183,-3.8902,-3.855,-3.7285,-3.7017,-3.7017,-3.7017,-3.7017,-3.7031,-3.7046,-3.6892,0.0,0.0,-3.6619,-3.6955,-3.8351,-3.8353,-3.82,-3.82,-3.82,-3.8062,-3.7627,-3.7611,-3.7426,-3.7021,-3.6978,-3.6978,-3.7017,-3.738,-3.7625,-3.7625,-3.8014,-3.8427,-3.8782,-3.8819,-3.9453,-4.0682,-4.0682,-4.1264,-4.2316,-4.2974,-4.3392,-4.3655,-4.4317,-4.4594,-4.461,-4.4396,-4.4305,-4.4289,-4.4305,-4.432,-4.4281,-3.5938,-3.5938,-3.5938,-3.5938,-3.6481,-3.744,-3.9103,-3.9943,-4.0914,-4.2417,-4.3348,-4.4457,-4.6022,-4.6524,-4.7085,-4.7724,-4.7406,-4.6875,-4.6209,-4.5273,-4.4172,-4.2913,-4.1551,-4.0478,-3.976,-3.8004,-3.6761,-3.6085,-3.4883,-3.39,-3.3115,-3.3457,-3.3718,-3.3935,-3.4531,-3.5493,-3.6632,-3.7228,-3.7838,-3.8559,-4.0611,-4.2117,-4.3199,-4.4079,-4.4537,-4.4692,-4.4481,-4.4537,0.0,-4.4481,-4.4411,-4.4411,-4.4411,-4.4411,-4.4284,-4.368,-4.3357,-4.2964,0.0,0.0,-4.1018,-4.0612,-4.0515,-4.0291,-3.941,-3.9382,-3.9282,-3.8438,-3.7892,-3.7597,-3.7597,-3.7156,-3.6811,-3.6811,-3.6628,-3.6524,0.0,-3.6325,-3.6303,-3.6592,-3.6742,-3.6851,-3.7013,-3.6891,-3.6795,-3.6829,-3.6934,-3.7123,-3.7384,-3.7125,-3.7161,-3.7569,-3.7477,-3.7457,-3.7625,-3.7891,-3.8434,-3.9258,-3.9423,-3.9987,-4.098,-4.1242,-4.1791,-4.2592,-4.297,-4.364,-4.454,-4.4769,-4.5081,-4.5437,-4.5413,-4.5373,-4.5266,-4.4424,-4.4026,-4.3832,-3.648,-3.6522,-3.6522,-3.6522,-3.7399,-3.8519,-3.9915,-4.0631,-4.1562,-4.3024,-4.4003,-4.5115,-4.667,-4.7142,-4.7612,-4.8263,-4.7865,-4.7286,-4.6622,-4.5665,-4.4694,-4.374,-4.2209,-4.1122,-4.0587,-3.8866,-3.7483,-3.6587,-3.5598,-3.4543,-3.339,-3.3693,-3.3831,-3.3935,-3.4453,-3.5534,-3.6958,-3.7323,-3.7946,-3.8915,-4.0927,-4.2376,-4.3324,-4.4022,-4.4317,-4.4411,0.0,-4.4411,-4.4411,-4.4411,-4.4411,-4.4411,-4.4411,-4.4317,-4.4186,-4.3794,-4.3482,-4.2984,-4.1951,-4.1444,0.0,-4.0408,-4.0255,-4.0088,-3.9449,-3.9438,-3.9397,-3.8782,-3.8334,-3.7931,-3.7721,-3.7252,-3.6853,-3.6631,-3.6445,-3.6272,0.0,-3.6018,-3.5898,-3.571,-3.5858,-3.6032,-3.6152,-3.6018,-3.6072,-3.6286,-3.6405,-3.6813,-3.7543,-3.7368,-3.7517,-3.8215,-3.8062,-3.8086,-3.8282,-3.849,-3.8987,-3.9817,-3.9933,-4.0515,-4.1421,-4.169,-4.2256,-4.3057,-4.3438,-4.4092,-4.5005,-4.5232,-4.5541,-4.5879,-4.5839,-4.5757,-4.5585,-4.4845,-4.4408,-4.4103,-3.7234,-3.7412,-3.7426,-3.7426,-3.8588,-3.9788,-4.0603,-4.1264,-4.2181,-4.3619,-4.4644,-4.5774,-4.7199,-4.7889,-4.8537,-4.9198,-4.8422,-4.7612,-4.6773,-4.6101,-4.5082,-4.3638,-4.2978,-4.1976,-4.051,-3.9614,-3.8419,-3.6976,-3.613,-3.51,-3.3908,-3.3754,-3.374,-3.3856,-3.4295,-3.5534,-3.7404,-3.7472,-3.8247,-3.9495,-4.0923,-4.2304,-4.3559,-4.3837,-4.4059,-4.428,-4.4355,-4.4369,-4.4355,-4.4326,-4.4294,-4.4322,-4.4322,-4.4148,-4.3974,-4.3974,-4.3382,-4.2601,-4.1984,-4.1377,-4.0797,-4.0161,-4.0009,0.0,0.0,-3.9139,-3.8974,-3.8407,-3.8269,-3.8062,-3.7454,-3.7316,-3.7095,-3.6502,-3.6192,-3.5992,-3.5723,-3.571,-3.571,-3.571,-3.571,-3.571,-3.571,-3.571,-3.5804,-3.6072,-3.6086,-3.6533,-3.7545,-3.7599,-3.7999,-3.8889,-3.9093,-3.9268,-3.9482,-3.9696,-3.9989,-4.0397,-4.0437,-4.1008,-4.2021,-4.2065,-4.2673,-4.3726,-4.4359,-4.478,-4.5086,-4.5667,-4.5914,-4.5904,-4.571,-4.5518,-4.5382,-4.5485,-4.5289,-4.4902,-3.8144,-3.8726,-3.9145,-3.9145,-3.9494,-4.0097,-4.1221,-4.1924,-4.2688,-4.3675,-4.483,-4.5964,-4.7005,-4.7649,-4.8279,-4.8937,-4.8589,-4.8084,-4.7411,-4.6621,-4.5737,-4.4888,-4.365,-4.2562,-4.1781,-4.0297,-3.8894,-3.7619,-3.6797,-3.5533,-3.3908,-3.3754,-3.3486,-3.3095,-3.365,-3.4646,-3.6006,-3.7064,-3.8691,-4.0675,-4.1264,-4.1978,-4.273,0.0,-4.2888,-4.2647,-4.343,-4.3736,-4.3606,-4.2992,-4.3054,-4.3399,-4.3259,-4.341,-4.3709,-4.3709,-4.3551,-4.3144,-4.2095,-4.1571,-4.1078,-4.0035,-3.9774,-3.9733,0.0,0.0,0.0,-3.9568,-3.9181,-3.8684,-3.8076,-3.7456,-3.6838,-3.6262,-3.5978,-3.5764,-3.571,-3.571,-3.571,-3.571,-3.571,-3.571,-3.571,-3.571,-3.5723,-3.5804,-3.5992,-3.6619,-3.7772,0.0,-3.8113,-3.9257,-3.9059,-3.9065,-3.9268,-3.9496,-3.9926,-4.0712,-4.1004,-4.1525,-4.232,-4.2968,-4.3401,-4.3731,-4.4534,-4.5084,-4.5476,-4.5824,-4.6139,-4.6441,-4.634,-4.6311,-4.6149,-4.52,-4.4718,-4.4422,-3.9019,-3.9887,-4.0589,-4.0589,-4.0814,-4.1235,-4.1924,-4.257,-4.3332,-4.4343,-4.5459,-4.6404,-4.7193,-4.782,-4.8297,-4.8717,-4.8495,-4.7977,-4.7087,-4.6574,-4.5838,-4.4769,-4.3678,-4.2731,-4.1924,-4.0697,-3.9314,-3.7739,-3.7217,-3.5913,-3.3792,-3.3651,-3.3265,-3.2691,-3.3306,-3.4257,-3.5493,-3.7171,-3.8993,-4.0716,-4.0886,-4.1346,0.0,-4.2172,-4.2104,-4.1951,-4.2234,-4.2534,-4.2715,-4.2217,-4.2296,-4.2542,-4.245,-4.2532,-4.27,-4.27,-4.2606,-4.2293,-4.1347,-4.101,-4.0714,-3.9786,-3.9554,-3.9554,-3.9554,-3.9615,-3.9689,0.0,-3.9429,-3.9004,0.0,-3.7672,-3.6893,-3.6048,-3.5723,-3.5562,-3.5562,-3.548,-3.544,-3.544,-3.544,-3.544,-3.544,-3.5602,-3.571,-3.571,-3.5858,-3.6511,0.0,0.0,-3.8367,-3.9771,-3.9648,-3.9676,-3.9981,-4.009,-4.0481,-4.1198,-4.1415,-4.1954,-4.2816,-4.3321,-4.3713,-4.4133,-4.4923,-4.5368,-4.5608,-4.6076,-4.6416,-4.6594,-4.6373,-4.6284,-4.6196,-4.5171,-4.4909,-4.4924,-4.0027,-4.1011,-4.1741,-4.1741,-4.2275,-4.2697,-4.2697,-4.3146,-4.3933,-4.5122,-4.6113,-4.688,-4.7503,-4.8077,-4.8445,-4.8445,-4.8137,-4.7558,-4.649,-4.6265,-4.5531,-4.4202,-4.3482,-4.2643,-4.1493,-4.0927,-3.9649,-3.7485,-3.7485,-3.6225,-3.3715,-3.3496,-3.3033,-3.2419,-3.3086,-3.4232,-3.5776,-3.7551,-3.902,-4.0187,-4.0187,-4.065,-4.131,-4.131,-4.1453,-4.1483,-4.0887,-4.1138,-4.1754,-4.1639,-4.1667,-4.1736,-4.169,-4.1549,-4.1433,-4.1433,-4.1309,-4.0987,-4.035,-4.0187,-4.0038,-3.9396,-3.9247,-3.9247,-3.9216,-3.9203,-3.9247,-3.9216,-3.9203,-3.9071,-3.8445,-3.7738,-3.6941,-3.5886,-3.5521,-3.5358,-3.5358,-3.5195,-3.5086,-3.5086,-3.5086,0.0,-3.5086,-3.544,-3.5642,-3.5669,-3.5669,0.0,0.0,0.0,-3.8639,-4.027,-4.0356,-4.0544,-4.093,0.0,-4.1255,-4.1734,-4.1776,-4.2331,-4.3348,-4.3436,-4.3884,-4.4696,-4.5373,-4.5624,-4.5624,-4.6226,-4.6462,-4.6373,-4.597,-4.579,-4.5745,-4.5216,-4.5321,-4.5654,-4.1966,-4.2261,-4.2402,-4.2402,-4.2921,-4.3329,-4.3329,-4.3427,-4.3933,-4.5122,-4.5934,-4.6616,-4.7186,-4.7805,-4.817,-4.817,-4.7656,-4.7277,-4.7066,-4.5902,-4.51,-4.4829,-4.3835,-4.2697,-4.1507,-4.12,-3.9879,-3.7485,-3.7485,-3.6266,-3.3869,-3.3535,-3.2806,-3.1809,-3.2913,-3.4768,-3.7159,-3.7512,-3.8654,-4.0187,-4.0187,-4.03,-4.0441,-4.0441,-4.0142,-3.9738,-3.9629,-4.0237,-4.0945,-4.0299,-4.0433,-4.0785,-4.0577,-4.0794,-4.117,-4.117,-4.1123,-4.0987,-4.035,-4.0187,-3.9992,-3.9204,-3.8953,-3.8922,-3.8769,-3.8845,-3.8922,-3.8769,-3.8845,-3.8733,-3.7962,0.0,-3.6129,-3.5915,-3.5475,-3.5154,-3.5154,-3.5127,-3.5086,-3.5086,-3.5086,-3.5086,-3.5086,-3.5154,-3.5277,-3.544,-3.544,-3.6088,0.0,0.0,-3.8469,0.0,-4.0182,0.0,0.0,0.0,-4.1312,-4.1938,-4.211,-4.2668,-4.356,-4.4123,-4.4544,-4.488,-4.5712,-4.5871,-4.5526,-4.5882,-4.5776,-4.5353,-4.5261,-4.5216,-4.517,-4.4676,-4.4597,-4.4644,-4.2514,-4.2837,-4.3062,-4.3062,-4.3568,-4.3975,-4.3975,-4.3975,-4.4411,-4.5675,-4.6378,-4.701,-4.7614,-4.767,-4.7642,-4.7642,-4.7094,-4.6553,-4.6084,-4.5413,-4.4746,-4.4125,-4.3568,-4.2664,-4.1322,-4.117,-3.9943,-3.7485,-3.7485,-3.6225,-3.3792,-3.3651,-3.3028,-3.2102,-3.3391,-3.5292,-3.7485,0.0,0.0,-3.9726,-3.9726,-3.9726,-3.9726,-3.9726,-3.9549,-3.9305,-3.9305,-3.9615,-3.9998,-3.9636,-3.9687,-3.9887,-3.9771,-3.9929,-4.0173,-4.0173,-4.0083,-3.991,-3.96,-3.9456,-3.9253,-3.8836,-3.8756,-3.8711,-3.8602,-3.8679,-3.8711,-3.8602,-3.8679,-3.8537,-3.7843,-3.7226,0.0,-3.6415,-3.608,-3.5823,-3.5823,-3.5487,-3.5205,-3.5205,-3.4927,-3.4743,-3.4743,-3.4743,-3.4867,-3.5236,-3.5236,-3.5841,0.0,0.0,-3.8226,0.0,0.0,0.0,0.0,0.0,0.0,-4.2022,-4.2108,-4.278,-4.393,-4.4246,-4.4637,-4.5043,-4.5436,-4.5489,-4.5307,-4.5413,-4.5307,-4.5078,-4.4815,-4.4723,-4.4676,-4.4148,-4.4007,-4.4007,-4.295,-4.3357,-4.3694,-4.3694,-4.4088,-4.4411,-4.4411,-4.4523,-4.4959,-4.5956,-4.6504,-4.7052,-4.767,-4.7305,-4.696,-4.6911,-4.635,-4.5692,-4.4962,-4.476,-4.4228,-4.3335,-4.3273,-4.2569,-4.115,-4.1123,-3.9965,-3.7675,-3.7553,-3.6346,-3.4131,-3.3971,-3.3545,-3.2965,0.0,0.0,0.0,0.0,-3.8328,-3.9305,-3.9305,-3.9305,-3.9305,-3.9305,-3.9224,-3.9115,-3.9115,-3.9034,-3.8925,-3.8925,-3.9102,-3.9305,-3.9305,-3.9247,-3.9203,-3.9203,-3.9024,-3.8832,-3.8832,-3.8711,-3.8602,-3.8557,-3.8498,-3.8512,-3.8466,-3.8466,-3.8512,-3.8466,-3.8421,-3.8289,-3.7838,-3.7639,0.0,0.0,-3.6564,-3.6354,-3.6354,-3.5695,-3.5201,-3.5201,-3.4721,-3.4397,-3.4397,-3.4397,-3.4564,-3.4908,-3.499,-3.5633,-3.7048,0.0,0.0,0.0,0.0,-3.9876,-4.0269,0.0,-4.1004,-4.2031,-4.2172,-4.2956,-4.4305,-4.4305,-4.4621,-4.5124,-4.5032,-4.4986,-4.4847,-4.4787,-4.4787,-4.4741,-4.4383,-4.4209,-4.4162,-4.3662,-4.3471,-4.341,-4.413,-4.4284,-4.4326,-4.4326,-4.4369,-4.4411,-4.4411,-4.4874,-4.5234,-4.5408,-4.5416,-4.5745,-4.6392,-4.642,-4.628,-4.6034,-4.5476,-4.4989,-4.465,-4.3898,-4.3424,-4.3321,-4.308,-4.2378,-4.115,-4.1123,-4.0201,-3.8342,-3.7756,-3.6808,-3.5493,-3.4766,-3.4365,0.0,0.0,0.0,0.0,-3.8055,-3.8708,-3.9305,-3.9305,-3.9305,-3.9305,-3.9305,-3.8966,-3.8491,-3.8491,-3.8109,-3.7662,-3.7662,-3.8423,-3.9305,-3.9305,-3.9158,-3.8953,-3.8953,-3.88,-3.8647,-3.8647,-3.8602,-3.8544,-3.8304,-3.8258,-3.8181,-3.8037,-3.8103,-3.8181,-3.7979,-3.7992,-3.7933,-3.788,-3.7409,-3.703,0.0,-3.6356,-3.5854,-3.5854,-3.5349,-3.493,-3.493,-3.4624,-3.4397,-3.4397,-3.4397,-3.4439,-3.4439,-3.4701,-3.5425,0.0,0.0,0.0,-3.8926,0.0,-3.97,-3.9788,-4.0473,-4.1293,-4.2175,-4.2715,-4.362,-4.4745,-4.4745,-4.4865,-4.5078,-4.4922,-4.4551,-4.4068,-4.3851,-4.3743,-4.3743,-4.3695,-4.3648,-4.3614,-4.3163,-4.2984,-4.2887,-4.4355,-4.4411,-4.4411,-4.4411,-4.4411,-4.4411,-4.4411,-4.4621,-4.4776,-4.4776,-4.5436,-4.5998,-4.6265,-4.5811,-4.5504,-4.5358,-4.4615,-4.4049,-4.3808,-4.3492,-4.3225,-4.308,-4.2596,-4.1964,-4.1137,-4.0757,-3.9861,-3.8423,-3.7783,-3.6862,-3.571,-3.4994,0.0,0.0,0.0,-3.6644,-3.7526,-3.8122,-3.8762,-3.9305,-3.9305,-3.9088,-3.8776,-3.8776,-3.841,-3.7851,-3.7851,-3.7689,-3.7485,-3.7371,-3.7955,-3.8732,-3.86,-3.8728,-3.8863,-3.8756,-3.853,-3.8349,-3.8349,-3.8285,-3.8161,-3.807,-3.8011,-3.8024,-3.79,-3.7979,-3.8024,-3.79,-3.7762,-3.7657,-3.7657,-3.7311,-3.7051,-3.7051,0.0,-3.6592,-3.6592,-3.5794,-3.5185,-3.5185,-3.4491,-3.3966,-3.3966,-3.4288,-3.4508,-3.4508,-3.4904,-3.5542,0.0,0.0,0.0,-3.8697,0.0,-3.9305,-3.9452,-4.0319,-4.1135,-4.1987,-4.2579,-4.3296,-4.4101,-4.4101,-4.4134,-4.4228,-4.4134,-4.396,-4.3757,-4.3648,-4.3519,-4.3389,-4.3245,-4.3053,-4.2922,-4.2533,-4.2435,-4.2387,-4.4411,-4.4411,-4.4411,-4.4411,-4.4411,-4.4411,-4.4411,-4.4411,-4.4411,-4.4411,-4.5183,-4.5697,-4.5635,-4.5064,-4.4655,-4.4511,-4.3725,-4.3176,-4.2917,-4.2753,-4.2549,-4.2371,-4.1964,-4.1462,-4.0865,-4.0418,-3.9699,-3.8667,-3.8041,-3.7309,-3.6497,0.0,0.0,0.0,-3.6687,-3.7379,-3.7783,-3.8423,-3.8817,-3.9047,-3.9047,-3.8681,-3.8122,-3.8122,-3.7743,-3.7228,-3.7228,-3.7064,-3.6873,-3.6705,-3.7151,-3.7706,-3.7722,-3.8077,-3.8443,-3.8304,-3.8198,-3.8089,-3.8089,-3.8024,-3.79,-3.79,-3.79,-3.79,-3.79,-3.7854,-3.7749,-3.7703,-3.7505,-3.7366,-3.7366,-3.7214,-3.7108,-3.7108,0.0,-3.6968,-3.6968,-3.6011,-3.5309,-3.5309,-3.4374,-3.379,-3.3956,-3.4353,-3.4674,-3.4827,-3.5313,-3.5878,0.0,0.0,0.0,0.0,0.0,0.0,0.0,-4.0382,-4.121,-4.1865,-4.253,-4.3119,-4.36,-4.36,-4.3505,-4.3375,-4.3375,-4.3314,-4.317,-4.317,-4.3088,-4.2922,-4.2728,-4.2533,-4.2351,-4.2092,-4.1931,-4.1832,-4.4411,-4.4411,-4.4411,-4.4411,-4.4411,-4.4411,-4.4411,-4.4411,-4.4411,-4.4411,-4.4425,-4.4331,-4.4063,-4.4001,-4.3812,-4.3369,-4.2786,-4.2289,-4.2019,-4.1462,-4.115,-4.1137,-4.1123,-4.0838,-4.0214,-4.0187,-3.9888,-3.9292,-3.8695,-3.8396,-3.8369,0.0,-3.7458,-3.7485,-3.8125,-3.8396,-3.845,-3.9034,-3.8952,-3.8423,-3.8423,-3.8027,-3.7499,-3.7499,-3.7161,-3.6605,-3.6605,-3.6116,-3.5426,-3.5413,-3.5692,-3.6113,-3.6727,-3.7152,-3.7408,-3.7408,-3.7637,-3.79,-3.79,-3.79,-3.79,-3.79,-3.79,-3.79,-3.79,-3.7703,-3.7413,-3.7155,-3.7108,-3.7108,-3.7108,-3.7108,-3.7108,-3.7108,0.0,0.0,-3.6709,-3.5783,-3.5098,-3.5098,-3.4257,-3.3943,-3.4533,-3.4597,-3.4827,-3.5347,-3.5942,0.0,0.0,0.0,0.0,-3.8187,-3.8984,0.0,-3.9415,-4.0871,-4.1727,-4.2005,-4.2876,-4.3389,-4.36,-4.36,-4.3328,-4.2887,-4.2887,-4.2631,-4.2128,-4.2128,-4.2128,-4.2128,-4.2128,-4.2128,-4.2079,-4.1796,-4.1547,-4.1261,-4.4411,-4.4411,-4.4411,-4.4411,-4.4411,-4.4411,-4.4411,-4.4411,-4.4411,-4.4411,-4.4411,-4.4116,-4.3263,-4.3521,-4.3462,-4.2745,-4.2351,-4.1923,-4.1435,-4.1232,-4.1123,-4.1123,-4.0716,-4.039,-4.0187,-3.9794,-3.9495,-3.9305,0.0,0.0,0.0,-3.758,-3.7485,-3.7526,-3.8109,-3.8149,-3.7811,-3.845,-3.8355,-3.777,-3.777,-3.7404,-3.6848,-3.6737,-3.6317,-3.575,-3.564,-3.5397,-3.5154,-3.5044,-3.5082,-3.5184,-3.5202,-3.594,-3.6731,-3.6586,-3.6572,-3.6671,-3.6671,-3.6671,-3.6776,-3.7181,-3.7299,-3.7345,-3.7566,-3.7413,-3.7201,-3.7108,-3.6956,-3.6815,-3.6815,-3.6734,-3.664,-3.664,-3.6546,0.0,-3.5949,-3.5269,-3.4816,-3.4816,-3.425,-3.4066,-3.4622,-3.4981,-3.5272,-3.5448,0.0,0.0,0.0,0.0,0.0,0.0,-3.9267,0.0,-3.9746,-4.0813,-4.1357,-4.1467,-4.214,-4.252,-4.2604,-4.2604,-4.252,-4.2324,-4.2324,-4.2275,-4.2079,-4.2079,-4.198,-4.1845,-4.1845,-4.1584,-4.1285,-4.1198,-4.0997,-4.0757,-4.4411,-4.4411,-4.4411,-4.4411,-4.4411,-4.4411,-4.4411,-4.4411,-4.4411,-4.4411,-4.4411,-4.4032,-4.2999,-4.3155,0.0,-4.2002,-4.1556,-4.1164,-4.0798,-4.0553,-4.0431,-4.0431,-4.0065,-3.9848,-3.9848,-3.9495,0.0,-3.9305,-3.8925,-3.8559,-3.8163,-3.8163,-3.8041,-3.7838,-3.8247,-3.8041,-3.7512,-3.7878,-3.7689,-3.7147,-3.7062,-3.6697,-3.6156,-3.595,-3.564,-3.5277,-3.5154,-3.5044,-3.4962,-3.4839,-3.4714,-3.4618,-3.4439,-3.4978,-3.5736,-3.5774,-3.594,-3.6109,-3.6109,-3.6109,-3.6188,-3.6567,-3.6627,-3.6605,-3.6856,-3.6755,-3.6713,-3.6837,-3.6687,-3.6581,-3.6581,-3.6499,-3.6358,-3.6275,-3.6228,-3.5993,-3.5351,-3.4931,-3.4645,-3.4479,-3.4155,-3.4155,0.0,-3.5018,-3.5304,0.0,0.0,0.0,0.0,0.0,0.0,-3.8527,-3.9345,0.0,-3.9935,-4.0803,-4.1302,-4.14,-4.163,-4.1639,-4.1474,-4.1474,-4.1426,-4.1329,-4.1329,-4.1232,-4.1134,-4.1037,-4.1021,-4.107,-4.0984,-4.0865,-4.0744,-4.0744,-4.0593,-4.0338,-4.4355,-4.4383,-4.4411,0.0,-4.4411,0.0,-4.4411,-4.4411,-4.4411,-4.4411,-4.4369,-4.4023,-4.3129,-4.2833,-4.2246,-4.1088,0.0,0.0,0.0,-3.9604,-3.9305,-3.9305,-3.9305,-3.9305,-3.9305,-3.9305,-3.9305,-3.9305,-3.9305,-3.9305,-3.9305,-3.9264,-3.8952,-3.8423,-3.8383,-3.7987,-3.7431,-3.7431,-3.7065,-3.6496,-3.6344,-3.5883,-3.5399,-3.5154,-3.5086,-3.5086,-3.5044,-3.4921,-3.4756,-3.4756,-3.4632,-3.4397,-3.4397,-3.4397,-3.4502,-3.5064,-3.5587,-3.5979,-3.5979,-3.5979,-3.5992,-3.5987,-3.5864,-3.578,-3.5844,-3.5859,-3.5945,-3.6288,-3.638,-3.6405,-3.6405,-3.6358,-3.6275,-3.6063,-3.5968,-3.5674,-3.4895,-3.4809,-3.4625,-3.4121,0.0,0.0,-3.4809,-3.4871,-3.5092,0.0,0.0,0.0,0.0,0.0,-3.8168,-3.8828,-3.9352,-3.9783,-4.0057,-4.0837,-4.1335,-4.1581,-4.1223,-4.0811,-4.0287,-4.0287,-4.0145,-3.992,-3.992,-3.979,-3.9516,-3.9297,-3.9462,-3.9891,-3.9706,-3.9953,-4.0402,-4.0402,-4.0262,-4.0019,0.0,0.0,-4.4411,-4.4411,-4.4411,-4.4411,-4.4411,-4.4411,-4.4411,-4.4411,-4.4003,-4.3378,-4.2506,-4.1793,-4.0966,-4.0121,-4.0114,-3.9983,-3.9536,-3.9386,-3.9305,-3.9305,-3.9305,-3.9305,-3.9305,-3.9305,-3.9305,-3.9305,-3.9305,-3.9305,-3.9292,-3.8844,-3.8559,-3.8396,-3.7905,-3.7406,-3.6822,-3.6822,-3.6469,-3.5886,-3.5683,-3.552,-3.5358,-3.5003,-3.488,-3.4839,-3.466,-3.4535,-3.4481,-3.4481,-3.4439,-3.4397,-3.4397,-3.4397,-3.4424,-3.4567,-3.4698,-3.4803,-3.4803,-3.4803,-3.4865,-3.5094,-3.5241,-3.5258,-3.5308,-3.5423,-3.5625,-3.5717,-3.6069,-3.6405,-3.6405,-3.6228,-3.6051,-3.6015,-3.5824,-3.5484,-3.4883,-3.4809,-3.476,0.0,-3.4625,-3.4834,-3.5375,-3.5424,-3.5645,0.0,0.0,0.0,0.0,-3.7902,-3.8329,-3.9131,-3.9916,-4.0299,-4.04,-4.0592,-4.0538,-4.015,-4.007,-3.9744,-3.9175,-3.9175,-3.9126,-3.9078,-3.9078,-3.903,-3.8981,-3.8933,-3.8961,-3.909,-3.9041,-3.9265,-3.9575,-3.9575,-3.9537,-3.9465,-4.3076,-4.3343,-4.3582,-4.3582,-4.3582,-4.3582,-4.3582,-4.3582,-4.3582,-4.3582,-4.3287,-4.2778,-4.1999,-4.1427,-4.0731,-3.9903,-3.9827,-3.9644,-3.9319,-3.9305,-3.9305,-3.9305,-3.9305,-3.9305,-3.9305,-3.9305,-3.9305,-3.9305,-3.9305,-3.9169,-3.8884,-3.8559,-3.8125,-3.7568,-3.7243,-3.6768,-3.6198,-3.6198,-3.6008,-3.5669,-3.5399,-3.5277,-3.5236,-3.4784,-3.4618,-3.4577,-3.4439,-3.4397,-3.4397,-3.4397,-3.4397,-3.4397,-3.4397,-3.4397,-3.4397,-3.4397,-3.4397,-3.4397,-3.4397,-3.4314,-3.4266,-3.4195,-3.4257,-3.4344,-3.4521,-3.4677,-3.4893,-3.5395,-3.578,-3.6022,-3.6191,-3.6098,-3.592,-3.5668,-3.5524,-3.5185,-3.4553,-3.4639,-3.47,-3.4457,-3.4639,-3.4907,-3.5199,-3.5442,-3.5709,-3.6001,-3.6575,0.0,-3.78,-3.8172,-3.8669,-3.9296,-3.9726,-4.0083,-4.0287,-4.0197,-3.9838,-3.931,-3.9066,-3.8595,-3.8018,-3.8018,-3.8018,-3.8018,-3.8018,-3.8018,-3.8018,-3.7862,-3.8028,-3.8258,-3.8112,-3.8322,-3.8717,-3.8869,-3.8879,-3.891,-4.2444,-4.2514,-4.2584,-4.2584,-4.2584,-4.2584,-4.2584,-4.2584,-4.2584,-4.2584,-4.25,-4.2219,-4.1671,-4.1339,-4.0868,-4.0138,-3.9659,-3.9394,-3.9305,-3.9305,-3.9305,-3.9305,-3.9305,-3.9305,-3.9305,-3.9305,-3.9264,-3.9169,-3.9169,-3.8871,-3.8274,-3.8193,-3.7596,-3.6605,-3.6497,-3.6185,-3.571,-3.571,-3.571,-3.5669,-3.5277,-3.5086,-3.5031,-3.4564,-3.4397,-3.4397,-3.4397,-3.4397,-3.4397,-3.4397,-3.4397,-3.4397,-3.4397,-3.4397,-3.4397,-3.4397,-3.4397,-3.4397,-3.4397,-3.423,-3.3949,-3.3526,-3.3398,-3.3439,-3.3702,-3.3847,-3.4161,-3.5056,-3.5382,-3.5553,-3.5852,-3.5906,-3.5764,-3.5271,-3.5175,-3.4921,-3.4222,0.0,-3.4619,-3.4162,-3.4498,-3.4811,-3.4895,-3.5352,-3.5677,-3.5845,-3.6819,-3.743,-3.7555,-3.8127,-3.8595,-3.8906,-3.9119,-3.9415,-3.9841,-3.9638,-3.9177,-3.8549,-3.8114,-3.759,-3.6968,-3.6968,-3.6968,-3.6968,-3.6968,-3.6968,-3.6968,-3.6675,-3.6919,-3.7314,-3.7061,-3.7302,-3.7804,-3.809,-3.8237,-3.8335,-4.1813,-4.2205,-4.2584,-4.2584,-4.2584,-4.2584,-4.2584,-4.2584,-4.2584,-4.2584,-4.2107,-4.1727,-4.1629,-4.0962,-4.0496,-4.0356,-4.0053,-3.9733,-3.9349,-3.9305,-3.9305,-3.9305,-3.9305,-3.9305,-3.9305,-3.9305,-3.9061,-3.8559,-3.8559,-3.8247,-3.7621,-3.7134,-3.6782,-3.6578,-3.6076,-3.5805,-3.571,-3.571,-3.571,-3.5669,-3.5277,-3.5086,-3.5031,-3.4564,-3.4397,-3.4397,-3.4397,-3.4397,-3.4397,-3.4397,-3.4397,-3.4397,-3.4397,-3.4397,-3.4397,-3.4397,-3.4397,-3.4397,-3.4397,-3.4105,-3.3725,-3.3484,-3.3283,-3.3136,-3.3224,-3.3558,-3.3947,-3.4123,-3.4856,-3.5487,-3.5354,-3.5503,-3.5572,-3.5271,-3.503,-3.4799,-3.4667,0.0,-3.4751,-3.4667,-3.4727,-3.5004,-3.5449,-3.5569,-3.599,-3.6879,-3.6738,-3.6774,-3.722,-3.6958,-3.6906,-3.7173,-3.831,-3.8815,-3.8652,-3.8603,-3.8216,-3.7457,-3.7369,-3.7041,-3.6499,-3.6499,-3.6499,-3.6499,-3.6499,-3.6499,-3.6499,-3.6241,-3.6148,-3.6235,-3.5936,-3.6172,-3.6715,-3.7195,-3.7535,-3.7782,-4.1311,-4.1435,-4.1573,-4.1573,-4.1573,-4.1573,-4.1573,-4.1573,-4.1573,-4.1573,-4.1306,-4.1123,-4.1123,-4.0798,-4.0515,-4.0399,-4.0298,-4.0067,-3.9689,-3.9584,-3.9452,-3.9305,-3.9305,-3.9305,-3.9305,-3.9305,-3.9007,-3.8423,-3.8423,-3.7935,-3.7026,-3.6727,-3.6429,-3.6103,-3.5832,-3.571,-3.571,-3.571,-3.571,-3.5669,-3.5399,-3.5195,-3.5072,-3.4743,-3.4535,-3.4397,-3.4397,-3.4397,-3.4397,-3.4397,-3.4397,-3.4397,-3.4397,-3.4397,-3.4397,-3.4397,-3.4314,-3.4202,-3.405,-3.381,-3.3471,-3.3283,-3.3154,-3.3124,-3.3124,-3.3269,-3.3533,-3.3847,-3.4165,-3.452,-3.4944,-3.4971,-3.4943,-3.4981,-3.4884,0.0,0.0,-3.4775,-3.4775,-3.4775,-3.5088,-3.5352,-3.5593,-3.5869,-3.6242,-3.6723,-3.6543,-3.6519,-3.6759,-3.6531,-3.6461,-3.6563,-3.7506,-3.7947,-3.7789,-3.7493,-3.7147,-3.6749,-3.6464,-3.6191,-3.5991,-3.5991,-3.5991,-3.5991,-3.5991,-3.5991,-3.5943,-3.586,-3.5764,-3.5764,-3.5668,-3.5768,-3.6014,-3.6394,-3.6831,-3.7215,-4.11,-4.093,-4.0773,-4.0773,-4.073,-4.0702,-4.0702,-4.0702,-4.0702,-4.0702,-4.0702,-4.0702,-4.0702,-4.0702,-4.0616,-4.0471,-4.0471,-4.0385,-4.0097,-3.995,-3.973,-3.9407,-3.9349,-3.9305,-3.9305,-3.9305,-3.8952,-3.8206,-3.8206,-3.7582,-3.6388,-3.6388,-3.6144,-3.571,-3.571,-3.571,-3.571,-3.571,-3.571,-3.5669,-3.548,-3.5318,-3.5113,-3.488,-3.4673,-3.4481,-3.4439,-3.4397,-3.4397,-3.4397,-3.4397,-3.4397,-3.4397,-3.4397,-3.4397,-3.4397,-3.4189,-3.3937,-3.3768,-3.3556,-3.3356,-3.3154,-3.3124,-3.3124,-3.3124,-3.3124,-3.3206,-3.3621,-3.3689,-3.3888,-3.4511,-3.4586,-3.4653,-3.4763,0.0,0.0,0.0,-3.4775,-3.4775,-3.4775,-3.5292,-3.5617,-3.5617,-3.6098,-3.6411,-3.6411,-3.629,-3.6218,-3.6218,-3.611,-3.6038,-3.6038,-3.6732,-3.7057,-3.6984,-3.653,-3.626,-3.6235,-3.5817,-3.562,-3.562,-3.562,-3.562,-3.562,-3.562,-3.562,-3.562,-3.5524,-3.5524,-3.5512,-3.5416,-3.5416,-3.5441,-3.5721,-3.6081,-3.6466,-4.1423,-4.1156,-4.1001,-4.1001,-4.0802,-4.0702,-4.0702,-4.0702,-4.0702,-4.0702,-4.0702,-4.0702,-4.0702,-4.0702,-4.0702,-4.0659,-4.0659,-4.0587,-4.0385,-4.0356,-4.0138,-3.97,-3.9452,-3.9305,-3.9305,-3.9305,-3.8735,-3.7567,-3.7567,-3.693,-3.5791,-3.5791,-3.575,-3.571,-3.571,-3.571,-3.571,-3.571,-3.571,-3.5669,-3.548,-3.5399,-3.5358,-3.4962,-3.4797,-3.4756,-3.4481,-3.4397,-3.4397,-3.4397,-3.4397,-3.4397,-3.4397,-3.4397,-3.4397,-3.4397,-3.4092,-3.3725,-3.3725,-3.3556,-3.3356,-3.3154,-3.3124,-3.3124,-3.3124,-3.3124,-3.3124,-3.3174,-3.3726,-3.4177,-3.4093,-3.4635,-3.5078,-3.4823,0.0,0.0,-3.4775,-3.4775,-3.4775,-3.4775,-3.5292,-3.5617,-3.5617,-3.6098,-3.6411,-3.6411,-3.5954,-3.5677,-3.5677,-3.5208,-3.4895,-3.4895,-3.5944,-3.6372,-3.6086,-3.6038,-3.5917,-3.5682,-3.5633,-3.562,-3.562,-3.562,-3.562,-3.562,-3.562,-3.562,-3.5572,-3.532,-3.5223,-3.5223,-3.4981,-3.4884,-3.4895,-3.5165,-3.5292,-3.542,-4.1577,-4.1409,-4.1241,-4.1241,-4.1071,-4.0887,-4.0887,-4.0773,-4.0702,-4.0702,-4.0702,-4.0702,-4.0702,-4.0702,-4.0702,-4.0702,-4.0702,-4.0659,-4.0587,-4.0471,-4.0182,-3.97,-3.9598,-3.9452,-3.9305,-3.9305,-3.8722,-3.7485,-3.7485,-3.6862,-3.571,-3.571,-3.571,-3.571,-3.571,-3.571,-3.571,-3.571,-3.571,-3.5669,-3.5642,-3.5521,-3.5358,-3.5086,-3.4921,-3.4756,-3.4494,-3.4397,-3.4397,-3.4397,-3.4397,-3.4397,-3.4397,-3.4397,-3.4397,-3.4397,-3.405,-3.3713,-3.3713,-3.3484,-3.3197,-3.3124,-3.3124,-3.3124,-3.3124,-3.3124,-3.3038,-3.2896,-3.3275,-3.365,-3.3753,-3.4144,-3.4547,-3.4775,0.0,-3.4775,-3.4775,-3.4775,-3.4775,-3.4775,-3.5292,-3.5617,-3.5617,-3.5797,-3.5918,-3.5918,-3.5425,-3.5075,-3.5075,-3.4895,-3.4775,-3.4775,-3.522,-3.5378,-3.5283,-3.5283,-3.5223,-3.5126,-3.5126,-3.5126,-3.5126,-3.5126,-3.5126,-3.5078,-3.492,-3.4884,-3.4823,-3.4604,-3.4506,-3.4506,-3.4408,-3.4359,-3.4382,-3.4473,-3.4695,-3.5014,-4.1841,-4.1633,-4.1507,-4.1507,-4.1283,-4.1142,-4.1142,-4.0986,-4.0915,-4.0816,-4.0802,-4.0773,-4.0702,-4.0702,-4.0702,-4.0702,-4.0702,-4.0702,-4.0702,-4.0587,-4.0298,-3.9818,-3.9818,-3.9686,-3.9452,-3.9407,-3.8918,-3.777,-3.758,-3.697,-3.5995,-3.5805,-3.571,-3.571,-3.571,-3.571,-3.571,-3.571,-3.571,-3.571,-3.571,-3.5642,-3.548,-3.5277,-3.5086,-3.488,-3.4618,-3.4481,-3.4397,-3.4397,-3.4397,-3.4397,-3.4397,-3.4397,-3.4397,-3.4397,-3.4147,-3.381,-3.3713,-3.3441,-3.3197,-3.3124,-3.3124,-3.3124,-3.3124,-3.3124,-3.3075,-3.2978,-3.3197,-3.3526,-3.3776,-3.4075,-3.4354,-3.4727,-3.4775,-3.4775,-3.4775,-3.4775,-3.4775,-3.4775,-3.5292,-3.5557,-3.5388,-3.5521,-3.5545,-3.5376,-3.493,-3.464,-3.4592,-3.4592,-3.4592,-3.4592,-3.4592,-3.4592,-3.4592,-3.4738,-3.4775,-3.4677,-3.4677,-3.464,-3.4592,-3.4592,-3.4592,-3.4543,-3.4396,-3.4298,-3.4298,-3.4162,-3.4125,-3.4125,-3.4125,-3.4125,-3.4075,-3.4026,-3.4188,-3.4454,-4.2092,-4.1897,-4.1688,-4.1688,-4.1549,-4.1396,-4.1396,-4.1396,-4.1297,-4.1043,-4.1001,-4.093,-4.073,-4.0702,-4.0702,-4.0702,-4.0702,-4.0702,-4.0702,-4.0702,-4.0487,-4.0039,-3.9996,-3.9922,-3.97,-3.97,-3.9267,-3.8423,-3.7783,-3.7216,-3.6592,-3.5995,-3.571,-3.571,-3.571,-3.571,-3.571,-3.571,-3.571,-3.571,-3.571,-3.571,-3.5669,-3.548,-3.5277,-3.5086,-3.488,-3.4618,-3.4397,-3.4397,-3.4397,-3.4397,-3.4397,-3.4397,-3.4397,-3.4397,-3.4285,-3.4034,-3.3768,-3.3556,-3.3356,-3.3154,-3.3124,-3.3124,-3.3124,-3.3124,-3.3188,-3.3463,-3.3753,-3.4078,-3.4323,-3.4619,-3.4775,-3.4775,-3.4775,-3.4775,-3.4775,-3.4775,-3.4775,-3.4775,-3.5292,-3.54,-3.4823,-3.5304,-3.5388,-3.4823,-3.4531,-3.4298,-3.4125,-3.4125,-3.4125,-3.4125,-3.4125,-3.4125,-3.4125,-3.4543,-3.4677,-3.4384,-3.4384,-3.4298,-3.4125,-3.4125,-3.4125,-3.4125,-3.4125,-3.4125,-3.4125,-3.4075,-3.4075,-3.4075,-3.4075,-3.4075,-3.4075,-3.3779,-3.3679,-3.3749,-4.2133,-4.2051,-4.1995,-4.1995,-4.1758,-4.1619,-4.1619,-4.1465,-4.1396,-4.1297,-4.1297,-4.1198,-4.093,-4.093,-4.0845,-4.0688,-4.0702,-4.0702,-4.0702,-4.0702,-4.0659,-4.0487,-4.0371,-4.0154,-3.9922,-3.9922,-3.9502,-3.8669,-3.8068,-3.7383,-3.6592,-3.5995,-3.571,-3.571,-3.571,-3.571,-3.571,-3.571,-3.571,-3.571,-3.571,-3.571,-3.5669,-3.548,-3.5358,-3.5277,-3.4921,-3.4756,-3.466,-3.4439,-3.4397,-3.4397,-3.4397,-3.4397,-3.4397,-3.4397,-3.4285,-3.4076,-3.3992,-3.3696,-3.3356,-3.3154,-3.3124,-3.3124,-3.3124,-3.337,-3.3608,-3.3493,-3.4061,-3.4519,-3.4396,-3.4619,-3.4775,-3.4775,-3.4775,-3.4775,-3.4775,-3.4775,-3.4775,-3.4775,-3.4919,-3.5004,-3.4799,-3.4919,-3.4894,-3.4543,-3.4298,-3.4162,-3.4125,-3.4125,-3.4125,-3.4125,-3.4125,-3.4125,-3.4125,-3.4211,-3.4261,-3.4211,-3.4211,-3.4162,-3.4125,-3.4125,-3.4125,-3.4075,-3.3878,-3.3828,-3.3779,-3.363,-3.353,-3.353,-3.353,-3.353,-3.353,-3.3431,-3.3431,-3.3404,-4.2242,-4.2201,-4.2216,-4.2092,-4.1953,-4.1841,-4.1841,-4.1773,-4.1647,-4.1549,-4.1507,-4.1423,-4.1184,-4.1142,-4.1071,-4.0859,-4.073,-4.0702,-4.0702,-4.0702,-4.0702,-4.0702,-4.0587,-4.0428,-4.0154,-4.0154,-3.9873,-3.9284,-3.8594,-3.7864,-3.7083,-3.6388,-3.594,-3.571,-3.571,-3.571,-3.571,-3.571,-3.571,-3.571,-3.571,-3.571,-3.5669,-3.5562,-3.548,-3.5358,-3.5127,-3.4921,-3.4756,-3.4618,-3.4481,-3.4397,-3.4397,-3.4397,-3.4397,-3.4397,-3.4314,-3.4202,-3.4118,-3.3823,-3.3471,-3.3283,-3.3154,-3.3174,-3.3357,-3.3658,-3.3934,-3.4147,-3.4493,-3.4777,-3.4748,-3.4764,-3.4775,-3.4775,-3.4775,-3.4775,-3.4775,-3.4775,-3.4775,-3.4775,-3.4775,-3.4775,-3.4775,-3.4775,-3.464,-3.4298,-3.4064,-3.3878,-3.3779,-3.3779,-3.3779,-3.3779,-3.3779,-3.3779,-3.3779,-3.3779,-3.3828,-3.3927,-3.3927,-3.3878,-3.3779,-3.3779,-3.3779,-3.3779,-3.363,-3.353,-3.353,-3.3381,-3.3281,-3.3281,-3.3281,-3.3242,-3.3131,-3.3131,-3.3081,-3.2969,-4.2474,-4.2392,-4.2366,-4.2175,-4.2092,-4.2092,-4.2092,-4.2092,-4.1995,-4.1744,-4.1744,-4.166,-4.1438,-4.1438,-4.1339,-4.1057,-4.0859,-4.0744,-4.073,-4.073,-4.073,-4.0702,-4.0702,-4.0616,-4.0442,-4.0442,-4.0298,-4.0053,-3.9218,-3.8484,-3.7894,-3.7016,-3.628,-3.571,-3.571,-3.571,-3.571,-3.571,-3.571,-3.571,-3.571,-3.571,-3.571,-3.571,-3.5602,-3.544,-3.5399,-3.5154,-3.4839,-3.4797,-3.4618,-3.4397,-3.4397,-3.4397,-3.4397,-3.4397,-3.4397,-3.4356,-3.4202,-3.3937,-3.3696,-3.3547,-3.3346,-3.3325,-3.3784,-3.3972,-3.4247,-3.5077,-3.5046,-3.4936,-3.5186,-3.4981,-3.4775,-3.4775,-3.4775,-3.4775,-3.4775,-3.4775,-3.4775,-3.4775,-3.4775,-3.4775,-3.4775,-3.4775,-3.4543,-3.4125,-3.3828,-3.358,-3.3331,-3.3281,-3.3281,-3.3281,-3.3281,-3.3281,-3.3281,-3.3281,-3.3431,-3.3679,-3.3679,-3.353,-3.3281,-3.3281,-3.3281,-3.3281,-3.3281,-3.3281,-3.3281,-3.3281,-3.3281,-3.3281,-3.3281,-3.3081,-3.288,-3.288,-3.2718,-3.2493,-4.2688,-4.2514,-4.2392,-4.2366,-4.2201,-4.2092,-4.2092,-4.2092,-4.2092,-4.1995,-4.1995,-4.1912,-4.166,-4.1619,-4.1535,-4.1339,-4.1255,-4.117,-4.0972,-4.0916,-4.0845,-4.0702,-4.0702,-4.0659,-4.063,-4.0616,-4.0544,-4.0298,-3.9116,-3.8436,-3.8103,-3.6811,-3.6155,-3.5992,-3.5804,-3.571,-3.571,-3.571,-3.571,-3.571,-3.571,-3.571,-3.571,-3.571,-3.5669,-3.5602,-3.548,-3.5358,-3.5236,-3.4921,-3.4618,-3.4397,-3.4397,-3.4397,-3.4397,-3.4397,-3.4397,-3.4397,-3.4356,-3.4189,-3.4053,-3.4302,-3.4145,-3.3952,-3.3916,-3.4562,-3.5207,-3.5411,-3.5424,-3.5425,-3.55,-3.5126,-3.4775,-3.4775,-3.4775,-3.4775,-3.4775,-3.4775,-3.4775,-3.4775,-3.4775,-3.4775,-3.4775,-3.4457,-3.4223,-3.4125,-3.3679,-3.3381,-3.3281,-3.3281,-3.3281,-3.3281,-3.3281,-3.3281,-3.3281,-3.3281,-3.3331,-3.3381,-3.3381,-3.3331,-3.3281,-3.3281,-3.3281,-3.3281,-3.3281,-3.3281,-3.3281,-3.3281,-3.3181,-3.2992,-3.2992,-3.283,-3.2606,-3.2606,-3.2555,-3.2443,-4.2875,-4.2769,-4.2662,-4.2541,-4.2392,-4.2242,-4.2242,-4.2175,-4.2092,-4.2092,-4.2092,-4.2051,-4.1897,-4.1897,-4.1814,-4.1549,-4.148,-4.1339,-4.1198,-4.1198,-4.1114,-4.0845,-4.0845,-4.0816,-4.0702,-4.0702,-4.0659,-4.0544,-3.9452,-3.8714,-3.8325,-3.722,-3.648,-3.6072,-3.5938,-3.5804,-3.571,-3.571,-3.571,-3.571,-3.571,-3.571,-3.571,-3.571,-3.571,-3.5669,-3.5602,-3.548,-3.5358,-3.4921,-3.4714,-3.4577,-3.4439,-3.4397,-3.4397,-3.4397,-3.4397,-3.4397,-3.4397,-3.4243,-3.4176,-3.4499,-3.4627,-3.4629,-3.467,-3.5094,-3.5571,-3.5881,-3.5852,-3.5764,-3.562,-3.5271,-3.4932,-3.4823,-3.4775,-3.4775,-3.4775,-3.4775,-3.4775,-3.4775,-3.4775,-3.4775,-3.4775,-3.4445,-3.4211,-3.4125,-3.3729,-3.3431,-3.3331,-3.3281,-3.3281,-3.3281,-3.3281,-3.3281,-3.3281,-3.3281,-3.3281,-3.3281,-3.3281,-3.3281,-3.3281,-3.3281,-3.3281,-3.3281,-3.3281,-3.3231,-3.3081,-3.3081,-3.293,-3.2718,-3.2718,-3.2505,-3.228,-3.228,-3.2179,-3.2037,-4.3076,-4.3036,-4.2955,-4.2769,-4.2581,-4.2433,-4.2392,-4.2242,-4.2133,-4.2092,-4.2092,-4.2092,-4.2092,-4.2092,-4.1995,-4.1785,-4.1606,-4.148,-4.1438,-4.1338,-4.1182,-4.0929,-4.0845,-4.0774,-4.059,-4.0645,-4.0645,-4.0547,-3.9704,-3.9006,-3.8405,-3.7576,-3.6834,-3.6206,-3.6126,-3.5992,-3.5764,-3.5723,-3.571,-3.571,-3.571,-3.571,-3.571,-3.571,-3.571,-3.571,-3.571,-3.5562,-3.5358,-3.5003,-3.4839,-3.4756,-3.4535,-3.4439,-3.4397,-3.4397,-3.4397,-3.4397,-3.4397,-3.435,-3.436,-3.4684,-3.5041,-3.5377,-3.5613,-3.5633,-3.5818,-3.6317,-3.6193,-3.592,-3.5716,-3.5416,-3.5126,-3.4872,-3.4835,-3.4775,-3.4775,-3.4775,-3.4775,-3.4775,-3.4775,-3.4775,-3.4775,-3.458,-3.4347,-3.4125,-3.3828,-3.358,-3.3331,-3.3281,-3.3281,-3.3281,-3.3281,-3.3281,-3.3281,-3.3281,-3.3281,-3.3281,-3.3281,-3.3281,-3.3281,-3.3281,-3.3281,-3.3231,-3.3231,-3.3081,-3.283,-3.283,-3.2667,-3.2392,-3.2392,-3.2229,-3.1913,-3.1913,-3.1772,-3.1618,-4.329,-4.3115,-4.2981,-4.2955,-4.2809,-4.2622,-4.2433,-4.2392,-4.2284,-4.2133,-4.2092,-4.2092,-4.2092,-4.2092,-4.2092,-4.2051,-4.2009,-4.1912,-4.166,-4.1171,-4.0746,-4.0497,-4.0305,-4.0208,-4.0166,-4.0506,-4.0435,-3.9901,-3.9283,-3.8624,-3.7964,-3.7151,-3.6712,-3.6603,-3.6246,-3.6086,-3.6032,-3.5804,-3.571,-3.571,-3.571,-3.571,-3.571,-3.571,-3.571,-3.571,-3.571,-3.5562,-3.5399,-3.5358,-3.5086,-3.4797,-3.4756,-3.4577,-3.4397,-3.4397,-3.4397,-3.4397,-3.4397,-3.4776,-3.5141,-3.5274,-3.5705,-3.6164,-3.6272,-3.6304,-3.6317,-3.6392,-3.6193,-3.5968,-3.5968,-3.5524,-3.5175,-3.5126,-3.4932,-3.4775,-3.4775,-3.4775,-3.4775,-3.4775,-3.4775,-3.4775,-3.4775,-3.458,-3.4347,-3.4125,-3.3828,-3.358,-3.3331,-3.3281,-3.3281,-3.3281,-3.3281,-3.3281,-3.3281,-3.3281,-3.3281,-3.3281,-3.3281,-3.3281,-3.3281,-3.3281,-3.3181,-3.2942,-3.2942,-3.2818,-3.2544,-3.2544,-3.2342,-3.2077,-3.2077,-3.1924,-3.1669,-3.1669,-3.1618,-3.1618,-4.3557,-4.3329,-4.3155,-4.3155,-4.2996,-4.285,-4.2729,-4.2541,-4.2351,-4.2284,-4.2175,-4.2092,-4.2092,-4.2092,-4.2092,-4.2092,-4.2092,-4.2051,-4.1939,-4.1305,-4.0862,-4.0617,-4.0549,-4.0385,-4.0122,-4.0576,-4.0337,-3.931,-3.9043,-3.8579,-3.7892,-3.7209,-3.6825,-3.6682,-3.6524,-3.6365,-3.6246,-3.6032,-3.5938,-3.5898,-3.5764,-3.571,-3.571,-3.571,-3.571,-3.571,-3.571,-3.5642,-3.5562,-3.544,-3.5195,-3.4962,-3.4839,-3.4618,-3.4397,-3.4397,-3.4397,-3.4397,-3.4397,-3.4842,-3.5301,-3.539,-3.5853,-3.6325,-3.6373,-3.6405,-3.6405,-3.6405,-3.6323,-3.6193,-3.6015,-3.5668,-3.5368,-3.5223,-3.4981,-3.4775,-3.4775,-3.4775,-3.4775,-3.4775,-3.4775,-3.4775,-3.4775,-3.4677,-3.4494,-3.4125,-3.3977,-3.3729,-3.3331,-3.3281,-3.3281,-3.3281,-3.3281,-3.3281,-3.3281,-3.3281,-3.3281,-3.3281,-3.3281,-3.3281,-3.3281,-3.3281,-3.3131,-3.2891,-3.2891,-3.2617,-3.2229,-3.2229,-3.2026,-3.1772,-3.1772,-3.1721,-3.1618,-3.1618,-3.1527,-3.1373]},{"header":{"parameterUnit":"m.s-1","parameterCategory":1,"la1":30.6,"la2":28.766,"lo1":-90.7593,"lo2":-88.6598,"dy":0.0162,"dx":0.0183,"nx":116,"ny":114,"refTime":"2023-06-16T12:00:00:Z","depth":0,"parameterNumber":3,"parameterNumberName":"V-component_of_WINDS"},"data":[0.0,0.0,0.0,0.0,0.0,0.0,0.0,0.0,0.0,0.0,0.0,0.0,0.0,0.0,0.0,0.0,0.0,0.0,0.0,0.0,0.0,0.0,0.0,0.0,0.0,0.0,0.0,0.0,0.0,0.0,0.0,0.0,0.0,0.0,0.0,0.0,0.0,0.0,0.0,0.0,0.0,0.0,0.0,0.0,0.0,0.0,0.0,0.0,0.0,0.0,0.0,0.0,0.0,0.0,0.0,0.0,0.0,0.0,0.0,0.0,0.0,0.0,0.0,0.0,0.0,0.0,0.0,0.0,0.0,0.0,0.0,0.0,0.0,0.0,0.0,0.0,0.0,0.0,0.0,0.0,0.0,0.0,0.0,0.0,0.0,0.0,0.0,0.0,0.0,0.0,0.0,0.0,0.0,0.0,0.0,0.0,0.0,0.0,0.0,0.0,0.0,0.0,0.0,0.0,0.0,0.0,0.0,0.0,0.0,0.0,0.0,0.0,0.0,0.0,0.0,0.0,0.0,0.0,0.0,0.0,0.0,0.0,0.0,0.0,0.0,0.0,0.0,0.0,0.0,0.0,0.0,0.0,0.0,0.0,0.0,0.0,0.0,0.0,0.0,0.0,0.0,0.0,0.0,0.0,0.0,0.0,0.0,0.0,0.0,0.0,0.0,0.0,0.0,0.0,0.0,0.0,0.0,0.0,0.0,0.0,0.0,0.0,0.0,0.0,0.0,0.0,0.0,0.0,0.0,0.0,0.0,0.0,0.0,0.0,0.0,0.0,0.0,0.0,0.0,0.0,0.0,0.0,0.0,0.0,0.0,0.0,0.0,0.0,0.0,0.0,0.0,0.0,0.0,0.0,0.0,0.0,0.0,0.0,0.0,0.0,0.0,0.0,0.0,0.0,0.0,0.0,0.0,0.0,0.0,0.0,0.0,0.0,0.0,0.0,0.0,0.0,0.0,0.0,0.0,0.0,0.0,0.0,0.0,0.0,0.0,0.0,0.0,0.0,0.0,0.0,0.0,0.0,0.0,0.0,0.0,0.0,0.0,0.0,0.0,0.0,0.0,0.0,0.0,0.0,0.0,0.0,0.0,0.0,0.0,0.0,0.0,0.0,0.0,0.0,0.0,0.0,0.0,0.0,0.0,0.0,0.0,0.0,0.0,0.0,0.0,0.0,0.0,0.0,0.0,0.0,0.0,0.0,0.0,0.0,0.0,0.0,0.0,0.0,0.0,0.0,0.0,0.0,0.0,0.0,0.0,0.0,0.0,0.0,0.0,0.0,0.0,0.0,0.0,0.0,0.0,0.0,0.0,0.0,0.0,0.0,0.0,0.0,0.0,0.0,0.0,0.0,0.0,0.0,0.0,0.0,0.0,0.0,0.0,0.0,0.0,0.0,0.0,0.0,0.0,0.0,0.0,0.0,0.0,0.0,0.0,0.0,0.0,0.0,0.0,0.0,0.0,0.0,0.0,0.0,0.0,0.0,0.0,0.0,0.0,0.0,0.0,0.0,0.0,0.0,0.0,0.0,0.0,0.0,0.0,0.0,0.0,0.0,0.0,0.0,0.0,0.0,0.0,0.0,0.0,0.0,0.0,0.0,0.0,0.0,0.0,0.0,0.0,0.0,0.0,0.0,0.0,0.0,0.0,0.0,0.0,0.0,0.0,0.0,0.0,0.0,0.0,0.0,0.0,0.0,0.0,0.0,0.0,0.0,0.0,0.0,0.0,0.0,0.0,0.0,0.0,0.0,0.0,0.0,0.0,0.0,0.0,0.0,0.0,0.0,0.0,0.0,0.0,0.0,0.0,0.0,0.0,0.0,0.0,0.0,0.0,0.0,0.0,0.0,0.0,0.0,0.0,0.0,0.0,0.0,0.0,0.0,0.0,0.0,0.0,0.0,0.0,0.0,0.0,0.0,0.0,0.0,0.0,0.0,0.0,0.0,0.0,0.0,0.0,0.0,0.0,0.0,0.0,0.0,0.0,0.0,0.0,0.0,0.0,0.0,0.0,0.0,0.0,0.0,0.0,0.0,0.0,0.0,0.0,0.0,0.0,0.0,0.0,0.0,0.0,0.0,0.0,0.0,0.0,0.0,0.0,0.0,0.0,0.0,0.0,0.0,0.0,0.0,0.0,0.0,0.0,0.0,0.0,0.0,0.0,0.0,0.0,0.0,0.0,0.0,0.0,0.0,0.0,0.0,0.0,0.0,0.0,0.0,0.0,0.0,0.0,0.0,0.0,0.0,0.0,0.0,0.0,0.0,0.0,0.0,0.0,0.0,0.0,0.0,0.0,0.0,0.0,0.0,0.0,0.0,0.0,0.0,0.0,0.0,0.0,0.0,0.0,0.0,0.0,0.0,0.0,0.0,0.0,0.0,0.0,0.0,0.0,0.0,0.0,0.0,0.0,0.0,0.0,0.0,0.0,0.0,0.0,0.0,0.0,0.0,0.0,0.0,0.0,0.0,0.0,0.0,0.0,0.0,0.0,0.0,0.0,0.0,0.0,0.0,0.0,0.0,0.0,0.0,0.0,0.0,0.0,0.0,0.0,0.0,0.0,0.0,0.0,0.0,0.0,0.0,0.0,0.0,0.0,0.0,0.0,0.0,0.0,0.0,0.0,0.0,0.0,0.0,0.0,0.0,0.0,0.0,0.0,0.0,0.0,0.0,0.0,0.0,0.0,0.0,0.0,0.0,0.0,0.0,0.0,0.0,0.0,0.0,0.0,0.0,0.0,0.0,0.0,0.0,0.0,0.0,0.0,0.0,0.0,0.0,0.0,0.0,0.0,0.0,0.0,0.0,0.0,0.0,0.0,0.0,0.0,0.0,0.0,0.0,0.0,0.0,0.0,0.0,0.0,0.0,0.0,0.0,0.0,0.0,0.0,0.0,0.0,0.0,0.0,0.0,0.0,0.0,0.0,0.0,0.0,0.0,0.0,0.0,0.0,0.0,0.0,0.0,0.0,0.0,0.0,0.0,0.0,0.0,0.0,0.0,0.0,0.0,0.0,0.0,0.0,0.0,0.0,0.0,0.0,0.0,0.0,0.0,0.0,0.0,0.0,0.0,0.0,0.0,0.0,0.0,0.0,0.0,0.0,0.0,0.0,0.0,0.0,0.0,0.0,0.0,0.0,0.0,0.0,0.0,0.0,0.0,0.0,0.0,0.0,0.0,0.0,0.0,0.0,0.0,0.0,0.0,0.0,0.0,0.0,0.0,0.0,0.0,0.0,0.0,0.0,0.0,0.0,0.0,0.0,0.0,0.0,0.0,0.0,0.0,0.0,0.0,0.0,0.0,0.0,0.0,0.0,0.0,0.0,0.0,0.0,0.0,0.0,0.0,0.0,0.0,0.0,0.0,0.0,0.0,0.0,0.0,0.0,0.0,0.0,0.0,0.0,0.0,0.0,0.0,0.0,0.0,0.0,0.0,0.0,0.0,0.0,0.0,0.0,0.0,0.0,0.0,0.0,0.0,0.0,0.0,0.0,0.0,0.0,0.0,0.0,0.0,0.0,0.0,0.0,0.0,0.0,0.0,0.0,0.0,0.0,0.0,0.0,0.0,0.0,0.0,0.0,0.0,0.0,0.0,0.0,0.0,0.0,0.0,0.0,0.0,0.0,0.0,0.0,0.0,0.0,0.0,0.0,0.0,0.0,0.0,0.0,0.0,0.0,0.0,0.0,0.0,0.0,0.0,0.0,0.0,0.0,0.0,0.0,0.0,0.0,0.0,0.0,0.0,0.0,0.0,0.0,0.0,0.0,0.0,0.0,0.0,0.0,0.0,0.0,0.0,0.0,0.0,0.0,0.0,0.0,0.0,0.0,0.0,0.0,0.0,0.0,0.0,0.0,0.0,0.0,0.0,0.0,0.0,0.0,0.0,0.0,0.0,0.0,0.0,0.0,0.0,0.0,0.0,0.0,0.0,0.0,0.0,0.0,0.0,0.0,0.0,0.0,0.0,0.0,0.0,0.0,0.0,0.0,0.0,0.0,0.0,0.0,0.0,0.0,0.0,0.0,0.0,0.0,0.0,0.0,0.0,0.0,0.0,0.0,0.0,0.0,0.0,0.0,0.0,0.0,0.0,0.0,0.0,0.0,0.0,0.0,0.0,0.0,0.0,0.0,0.0,0.0,0.0,0.0,0.0,0.0,0.0,0.0,0.0,0.0,0.0,0.0,0.0,0.0,0.0,0.0,0.0,0.0,0.0,0.0,0.0,0.0,0.0,0.0,0.0,0.0,0.0,0.0,0.0,0.0,0.0,0.0,0.0,0.0,0.0,0.0,0.0,0.0,0.0,0.0,0.0,0.0,0.0,0.0,0.0,0.0,0.0,0.0,0.0,0.0,0.0,0.0,0.0,0.0,0.0,0.0,0.0,0.0,0.0,0.0,0.0,0.0,0.0,0.0,0.0,0.0,0.0,0.0,0.0,0.0,0.0,0.0,0.0,0.0,0.0,0.0,0.0,0.0,0.0,0.0,0.0,0.0,0.0,0.0,0.0,0.0,0.0,0.0,0.0,0.0,0.0,0.0,0.0,0.0,0.0,0.0,0.0,0.0,0.0,0.0,0.0,0.0,0.0,0.0,0.0,0.0,0.0,0.0,0.0,0.0,0.0,0.0,0.0,0.0,0.0,0.0,0.0,0.0,0.0,0.0,0.0,0.0,0.0,0.0,0.0,0.0,0.0,0.0,0.0,0.0,0.0,0.0,0.0,0.0,0.0,0.0,0.0,0.0,0.0,0.0,0.0,0.0,0.0,0.0,0.0,0.0,0.0,0.0,0.0,0.0,0.0,0.0,0.0,0.0,0.0,0.0,0.0,0.0,0.0,0.0,0.0,0.0,0.0,0.0,0.0,0.0,0.0,0.0,0.0,0.0,0.0,0.0,0.0,0.0,0.0,0.0,0.0,0.0,0.0,0.0,0.0,0.0,0.0,0.0,0.0,0.0,0.0,0.0,0.0,0.0,0.0,0.0,0.0,0.0,0.0,0.0,0.0,0.0,0.0,0.0,0.0,0.0,0.0,0.0,0.0,0.0,0.0,0.0,0.0,0.0,0.0,0.0,0.0,0.0,0.0,0.0,0.0,0.0,0.0,0.0,0.0,0.0,0.0,0.0,0.0,0.0,0.0,0.0,0.0,0.0,0.0,0.0,0.0,0.0,0.0,0.0,0.0,0.0,0.0,0.0,0.0,0.0,0.0,0.0,0.0,0.0,0.0,0.0,0.0,0.0,0.0,0.0,0.0,0.0,0.0,0.0,0.0,0.0,0.0,0.0,0.0,0.0,0.0,0.0,0.0,0.0,0.0,0.0,0.0,0.0,0.0,0.0,0.0,0.0,0.0,0.0,0.0,0.0,0.0,0.0,0.0,0.0,0.0,0.0,0.0,0.0,0.0,0.0,0.0,0.0,0.0,0.0,0.0,0.0,0.0,0.0,0.0,0.0,0.0,0.0,0.0,0.0,0.0,0.0,0.0,0.0,0.0,0.0,0.0,0.0,0.0,0.0,0.0,0.0,0.0,0.0,0.0,0.0,0.0,0.0,0.0,0.0,0.0,0.0,0.0,0.0,0.0,0.0,0.0,0.0,0.0,0.0,0.0,0.0,0.0,0.0,0.0,0.0,0.0,0.0,0.0,0.0,0.0,0.0,0.0,0.0,0.0,0.0,0.0,0.0,0.0,0.0,0.0,0.0,0.0,0.0,0.0,0.0,0.0,0.0,0.0,0.0,0.0,0.0,0.0,0.0,0.0,0.0,0.0,0.0,0.0,0.0,0.0,0.0,0.0,0.0,0.0,0.0,0.0,0.0,0.0,0.0,0.0,0.0,0.0,0.0,0.0,0.0,0.0,0.0,0.0,0.0,0.0,0.0,0.0,0.0,0.0,0.0,0.0,0.0,0.0,0.0,0.0,0.0,0.0,0.0,0.0,0.0,0.0,0.0,0.0,0.0,0.0,0.0,0.0,0.0,0.0,0.0,0.0,0.0,0.0,0.0,0.0,0.0,0.0,0.0,0.0,0.0,0.0,0.0,0.0,0.0,0.0,0.0,0.0,0.0,0.0,0.0,0.0,0.0,0.0,0.0,0.0,0.0,0.0,0.0,0.0,-0.0048,-0.0423,0.0,0.0,0.0,0.0,0.0,0.0,0.0,0.0,0.0,0.0,0.0,0.0,0.0,0.0,0.0,0.0,0.0,0.0,0.0,0.0,0.0,0.0,0.0,0.0,0.0,0.0,0.0,0.0,0.0,0.0,0.0,0.0,0.0,0.0,0.0,0.0,0.0,0.0,0.0,0.0,0.0,0.0,0.0,0.0,0.0,0.0,0.0,0.0,0.0,0.0,0.0,0.0,0.0,0.0,0.0,0.0,0.0,0.0,0.0,0.0,0.0,0.0,0.0,0.0,0.0,0.0,0.0,0.0,0.0,0.0,0.0,0.0,0.0,0.0,0.0,0.0,0.0,0.0,0.0,0.0,0.0,0.0,0.0,0.0,0.0,0.0,0.0,0.0,0.0,0.0,0.0,0.0,0.0,0.0,0.0,0.0,0.0,0.0,0.0,0.0,0.0,0.0,0.0,0.0,0.0,0.0,0.0,0.0,0.0,0.0,0.0,0.0,0.0,0.0,0.0258,-0.015,0.0,0.0,0.0,0.0,0.0,0.0,0.0,0.0,0.0,0.0,0.0,0.0,0.0,0.0,0.0,0.0,0.0,0.0,0.0,0.0,0.0,0.0,0.0,0.0,0.0,0.0,0.0,0.0,0.0,0.0,0.0,0.0,0.0,0.0,0.0,0.0,0.0,0.0,0.0,0.0,0.0,0.0,0.0,0.0,0.0,0.0,0.0,0.0,0.0,0.0,0.0,0.0,0.0,0.0,0.0,0.0,0.0,0.0,0.0,0.0,0.0,0.0,0.0,0.0,0.0,0.0,0.0,0.0,0.0,0.0,0.0,0.0,0.0,0.0,0.0,0.0,0.0,0.0,0.0,0.0,0.0,0.0,0.0,0.0,0.0,0.0,0.0,0.0,0.0,0.0,0.0,0.0,0.0,0.0,0.0,0.0,0.0,0.0,0.0,0.0,0.0,0.0,0.0,0.0,0.0,0.0,0.0,0.0,0.2635,0.2328,0.1718,0.1237,0.0905,0.0791,0.0495,0.0107,-0.0367,-0.0681,0.0,0.0,0.0,0.0,0.0,0.0,0.0,0.0,0.0,0.0,0.0,0.0,0.0,0.0,0.0,0.0,0.0,0.0,0.0,0.0,0.0,0.0,0.0,0.0,0.0,0.0,0.0,0.0,0.0,0.0,0.0,0.0,0.0,0.0,0.0,0.0,0.0,0.0,-1.4137,-1.3895,-1.3744,-1.3676,-1.3864,0.0,0.0,0.0,0.0,0.0,0.0,0.0,0.0,0.0,0.0,0.0,0.0,0.0,0.0,0.0,0.0,0.0,0.0,0.0,0.0,0.0,0.0,0.0,0.0,0.0,0.0,0.0,0.0,0.0,0.0,0.0,0.0,0.0,0.0,0.0,0.0,0.0,0.0,0.0,0.0,0.0,0.0,0.0,0.1744,0.2409,0.0,0.0,0.0,0.0,0.0,0.0,0.0,0.0,0.0,0.0,0.0,0.0,0.0,0.3702,0.3388,0.3506,0.323,0.2621,0.2701,0.2333,0.1459,0.1345,0.0995,0.0468,0.0408,0.0,-0.0109,-0.0652,0.0,0.0,0.0,0.0,0.0,0.0,0.0,0.0,0.0,0.0,0.0,0.0,0.0,0.0,0.0,0.0,0.0,0.0,0.0,0.0,0.0,0.0,0.0,0.0,0.0,0.0,0.0,0.0,0.0,0.0,0.0,0.0,0.0,0.0,0.0,0.0,-1.4991,-1.4362,-1.4036,-1.3802,-1.3677,-1.3723,-1.3622,-1.382,-1.4336,-1.4288,0.0,0.0,0.0,0.0,0.0,0.0,0.0,0.0,0.0,0.0,0.0,0.0,0.0,0.0,0.0,0.0,0.0,0.0,0.0,0.0,0.0,0.0,0.0,0.0,0.0,0.0,0.0,0.0,0.0,0.0,0.0,0.0,0.0,0.0,0.0,0.0,0.0,0.0,0.0,0.1634,0.2385,0.2861,0.3167,0.3461,0.0,0.0,0.0,0.0,0.0,0.0,0.0,0.0,0.0,0.4105,0.4,0.384,0.3511,0.3458,0.317,0.271,0.2421,0.197,0.1374,0.1025,0.0605,0.0182,0.0,-0.0298,-0.0578,-0.0802,-0.1017,-0.1225,0.0,0.0,0.0,0.0,-0.2249,-0.2579,0.0,0.0,0.0,0.0,0.0,0.0,0.0,0.0,0.0,0.0,0.0,0.0,0.0,0.0,0.0,-2.3323,0.0,0.0,0.0,0.0,0.0,0.0,0.0,0.0,0.0,0.0,0.0,0.0,-1.4966,-1.4365,-1.3958,-1.3682,-1.36,-1.3652,-1.346,-1.3672,-1.4216,-1.432,-1.4486,0.0,0.0,0.0,0.0,0.0,0.0,0.0,0.0,0.0,0.0,0.0,0.0,0.0,0.0,0.0,0.0,0.0,0.0,0.0,0.0,0.0,0.0,0.0,0.0,0.0,0.0,0.0,0.0,0.0,0.0,0.0,0.0,0.0,0.0,0.0,0.0,0.0,0.0,0.2407,0.2956,0.3443,0.3719,0.3985,0.0,0.0,0.0,0.0,0.0,0.0,0.4783,0.475,0.4572,0.4237,0.401,0.3788,0.3519,0.3329,0.2961,0.2548,0.2108,0.1639,0.1032,0.0553,0.0123,-0.0247,-0.0494,-0.0859,-0.1272,-0.1074,-0.1233,-0.1562,-0.1852,-0.2183,-0.2442,-0.2442,-0.267,-0.2954,0.0,0.0,0.0,0.0,0.0,0.0,0.0,0.0,0.0,0.0,0.0,0.0,0.0,0.0,-2.3659,-2.2979,-2.2956,-2.2937,0.0,0.0,0.0,0.0,0.0,0.0,0.0,0.0,0.0,-1.6166,-1.5094,-1.4339,-1.3805,-1.3601,-1.3436,-1.3338,-1.3514,-1.3953,-1.4552,-1.4231,-1.4336,-1.4694,0.0,0.0,0.0,0.0,0.0,0.0,0.0,0.0,0.0,0.0,0.0,0.0,0.0,0.0,0.0,0.0,0.0,0.0,0.0,0.0,0.0,0.0,0.0,0.0,0.0,0.0,0.0,0.0,0.0,0.0,0.0,0.0,0.0,0.0,0.0,0.0,0.0,0.0,0.0,0.4247,0.4451,0.0,0.0,0.0,0.0,0.482,0.4992,0.5024,0.4835,0.4794,0.4595,0.4121,0.3785,0.3527,0.3289,0.3045,0.259,0.1929,0.1958,0.1294,0.0062,0.0062,-0.0309,-0.0926,-0.0988,-0.1357,-0.1907,-0.1516,-0.1552,-0.1883,-0.2237,-0.2587,-0.2877,-0.2877,-0.3053,-0.3289,0.0,0.0,0.0,0.0,0.0,0.0,0.0,0.0,0.0,0.0,0.0,0.0,0.0,-2.4067,-2.381,-2.3147,-2.3206,-2.3116,-2.2707,0.0,0.0,0.0,0.0,0.0,0.0,0.0,-1.6875,-1.5816,-1.4927,-1.4145,-1.3477,-1.34,-1.3393,-1.3438,-1.3512,-1.3881,-1.4452,-1.4336,-1.4569,-1.5025,-1.5146,-1.5241,0.0,0.0,0.0,0.0,0.0,0.0,0.0,0.0,0.0,0.0,0.0,0.0,0.0,0.0,0.0,0.0,0.0,0.0,0.0,0.0,0.0,0.0,0.0,0.0,0.0,0.0,0.0,0.0,0.0,0.0,0.0,0.0,0.0,0.0,0.0,0.0,0.0,0.4774,0.5049,0.0,0.5515,0.5394,0.5308,0.5315,0.5231,0.5046,0.4804,0.4738,0.4368,0.3792,0.3578,0.3329,0.3048,0.2549,0.2202,0.1958,0.1108,0.0432,0.0,-0.0432,-0.0987,-0.1666,-0.1666,-0.2036,-0.2651,-0.2699,-0.2685,-0.261,-0.2732,-0.3095,-0.3517,-0.3517,-0.3882,-0.4308,0.0,0.0,0.0,0.0,0.0,0.0,0.0,0.0,0.0,0.0,0.0,-2.4778,-2.4292,-2.4099,-2.3752,-2.3163,-2.3091,-2.2899,-2.2554,0.0,0.0,0.0,0.0,0.0,0.0,-1.7863,-1.6785,-1.5779,-1.482,-1.4028,-1.3365,-1.3185,-1.3179,-1.334,-1.3418,-1.3798,-1.4395,-1.4466,-1.4743,-1.5207,-1.5412,-1.5588,-1.5728,0.0,0.0,0.0,0.0,0.0,0.0,0.0,0.0,0.0,0.0,0.0,0.0,0.0,0.0,0.0,0.0,0.0,0.0,0.0,0.0,0.0,0.0,0.0,0.0,0.0,0.0,0.0,0.0,0.0,0.0,0.0,0.0,0.0,0.0,0.4241,0.4829,0.5312,0.5598,0.5799,0.5938,0.5761,0.5618,0.5625,0.5291,0.4958,0.4737,0.4412,0.4032,0.3534,0.3093,0.278,0.2612,0.1964,0.1542,0.1295,0.0432,-0.0247,-0.0679,-0.1111,-0.1727,-0.2343,-0.2467,-0.2837,-0.333,-0.3639,-0.3824,-0.3761,-0.3576,-0.3761,-0.4253,-0.4253,-0.4501,-0.4873,0.0,0.0,0.0,0.0,0.0,0.0,0.0,0.0,0.0,0.0,0.0,-2.502,-2.458,-2.3956,-2.342,-2.2969,-2.2494,-2.2277,-2.2412,-2.2089,0.0,0.0,0.0,0.0,-1.8719,-1.7914,-1.704,-1.61,-1.4892,-1.4037,-1.3515,-1.2999,-1.2856,-1.3065,-1.3233,-1.3723,-1.4419,-1.4565,-1.4839,-1.5226,-1.5455,-1.5605,-1.5746,0.0,0.0,0.0,0.0,0.0,0.0,0.0,0.0,0.0,0.0,0.0,0.0,0.0,0.0,0.0,0.0,0.0,0.0,0.0,0.0,0.0,0.0,0.0,0.0,0.0,0.0,0.0,0.0,0.0,0.0,0.0,0.0,0.0,0.4397,0.4819,0.5338,0.583,0.6075,0.6215,0.6218,0.6153,0.6006,0.5734,0.5214,0.4761,0.4479,0.393,0.3476,0.3237,0.2394,0.1945,0.1973,0.1296,0.0617,0.0,-0.0062,-0.074,-0.1973,-0.2035,-0.2405,-0.3023,-0.3394,-0.3701,-0.3947,-0.4316,-0.4808,-0.5364,-0.4685,-0.4624,-0.4933,-0.4933,-0.4933,-0.4933,0.0,0.0,0.0,0.0,0.0,0.0,0.0,0.0,0.0,0.0,-2.5646,-2.5189,-2.4765,-2.4274,-2.3806,-2.345,-2.2969,-2.2665,-2.2553,0.0,0.0,0.0,0.0,0.0,-1.9076,-1.8026,-1.7027,-1.6023,-1.5156,-1.4439,-1.3846,-1.3716,-1.3751,-1.3958,-1.3991,-1.4214,-1.4572,-1.5044,-1.5326,-1.5463,-1.5913,-1.6173,-1.6388,0.0,0.0,0.0,0.0,0.0,0.0,0.0,0.0,0.0,0.0,0.0,0.0,0.0,0.0,0.0,0.0,0.0,0.0,0.0,0.0,0.0,0.0,0.0,0.0,0.0,0.0,0.0,0.0,0.0,0.0,0.0,0.4195,0.4544,0.4544,0.519,0.5757,0.5936,0.6273,0.645,0.633,0.6197,0.5925,0.5496,0.5139,0.4594,0.3867,0.3744,0.3224,0.2238,0.2055,0.1659,0.0926,0.0494,0.0062,-0.037,-0.1111,-0.1665,-0.2035,-0.2775,-0.3268,-0.3698,-0.4007,-0.4404,-0.4817,-0.5262,-0.5642,-0.5813,-0.532,-0.5483,-0.5974,-0.5974,-0.616,-0.6346,0.0,0.0,0.0,0.0,0.0,0.0,0.0,0.0,0.0,0.0,-2.5865,-2.5508,-2.5202,-2.4478,-2.3905,-2.3634,-2.311,-2.2786,-2.2655,0.0,0.0,0.0,0.0,-1.9664,-1.9239,-1.8128,-1.7207,-1.6547,-1.5484,-1.4746,-1.4425,-1.4143,-1.4075,-1.4274,-1.4274,-1.4455,-1.4798,-1.5349,-1.5715,-1.5961,-1.6459,-1.6647,-1.6638,-1.7063,-1.7129,-1.7073,-1.7254,-1.7104,-1.6855,-1.6991,0.0,0.0,0.0,0.0,0.0,0.0,0.0,0.0,0.0,0.0,0.0,0.0,0.0,0.0,0.0,0.0,0.0,0.0,0.0,0.0,0.0,0.0,0.0,0.0,0.4762,0.5154,0.5154,0.563,0.6017,0.6132,0.6489,0.662,0.6431,0.6258,0.5982,0.5423,0.4983,0.4426,0.3643,0.3296,0.2709,0.1826,0.1396,0.0864,0.0309,-0.0308,-0.0802,-0.1111,-0.185,-0.2405,-0.2835,-0.3391,-0.3885,-0.4315,-0.4808,-0.5202,-0.5489,-0.606,-0.65,0.0,0.0,0.0,0.0,0.0,-0.7018,-0.7327,0.0,0.0,0.0,0.0,0.0,0.0,0.0,0.0,0.0,0.0,0.0,-2.5893,-2.5729,-2.4669,-2.3904,-2.3712,-2.3076,-2.2696,0.0,0.0,0.0,-2.1282,-2.0557,-1.9911,-1.939,-1.8267,-1.7529,-1.7275,-1.5855,-1.5179,-1.5093,-1.4463,-1.4249,-1.4369,-1.4339,-1.459,-1.5069,-1.5545,-1.6049,-1.658,-1.7035,-1.7017,-1.6751,-1.7153,-1.7509,-1.781,-1.8062,-1.8098,-1.8044,-1.8007,0.0,0.0,0.0,0.0,0.0,0.0,0.0,0.0,0.0,0.0,0.0,0.0,0.0,0.0,0.0,0.0,0.0,0.0,0.0,0.0,0.0,0.0,0.0,0.0,0.5301,0.5925,0.5938,0.6028,0.6139,0.6387,0.6589,0.6632,0.6384,0.6248,0.5924,0.5371,0.4758,0.4148,0.3541,0.272,0.0,0.0,0.0,-0.0062,-0.0247,-0.111,-0.1788,-0.2158,-0.2528,-0.3144,-0.3944,-0.4067,-0.4438,-0.5056,-0.5732,-0.6046,-0.6115,-0.6782,-0.7385,-0.7933,-0.7388,-0.7146,-0.7146,-0.7449,-0.7752,-0.7994,0.0,0.0,0.0,0.0,0.0,0.0,0.0,0.0,0.0,-2.7505,-2.6746,-2.6136,-2.5893,-2.4969,-2.4326,-2.4191,-2.3271,-2.2701,0.0,0.0,-2.2689,-2.2187,-2.1074,-2.0279,-1.98,-1.8738,-1.779,-1.7053,-1.6588,-1.6138,-1.5703,-1.542,-1.5332,-1.541,-1.5245,-1.5225,-1.536,-1.5773,-1.6218,-1.6696,-1.7098,-1.7293,-1.7361,-1.776,-1.7868,-1.7847,-1.8209,-1.811,-1.7812,-1.7466,-1.7122,-1.6606,-1.5716,0.0,0.0,0.0,0.0,0.0,0.0,0.0,0.0,0.0,0.0,0.0,0.0,0.0,0.0,0.0,0.0,0.0,0.0,0.0,0.0,0.5446,0.5782,0.6002,0.6242,0.6323,0.6337,0.6387,0.6366,0.623,0.6001,0.5638,0.5188,0.4698,0.4089,0.3496,0.2917,0.2274,0.1541,0.072,0.0245,-0.0494,-0.1603,-0.1788,-0.2343,-0.3208,-0.3515,0.0,-0.4315,-0.5116,-0.5609,-0.5734,-0.641,-0.6886,-0.7204,-0.7547,-0.8119,-0.8671,-0.8549,-0.8488,-0.8549,-0.861,-0.8671,-0.8671,0.0,0.0,0.0,0.0,0.0,0.0,0.0,0.0,0.0,0.0,-2.7089,-2.6344,-2.5818,-2.4934,-2.4235,-2.3824,-2.3397,0.0,0.0,-2.3515,-2.3314,-2.2504,-2.1715,-2.0944,-2.0178,-1.9218,-1.8467,-1.7897,-1.7435,-1.6981,-1.656,-1.6389,-1.6285,-1.6249,-1.6142,-1.6114,-1.6155,-1.6838,-1.7246,-1.7502,-1.8078,-1.8351,-1.8347,-1.8016,-1.81,-1.839,-1.8405,-1.8404,-1.8321,-1.7934,-1.7308,-1.6555,-1.5615,-1.4857,-1.4096,0.0,0.0,0.0,0.0,0.0,0.0,0.0,0.0,0.0,0.0,0.0,0.0,0.0,0.0,0.2506,0.3623,0.0,0.5018,0.5795,0.6018,0.622,0.6379,0.6387,0.6387,0.6387,0.6294,0.6049,0.573,0.5405,0.4896,0.4085,0.3785,0.3191,0.2299,0.1648,0.1017,0.0241,-0.0551,-0.1295,-0.1973,-0.265,-0.3206,-0.3699,-0.4375,-0.4807,-0.5177,-0.5853,-0.6344,-0.6653,-0.7202,-0.76,-0.8018,-0.8628,-0.9031,-0.94,-0.97,-0.964,-0.9339,-0.9339,-0.9582,-0.9822,0.0,0.0,0.0,0.0,0.0,0.0,0.0,0.0,0.0,0.0,0.0,-2.6774,-2.5954,-2.5002,-2.4123,0.0,0.0,0.0,0.0,-2.4231,-2.3971,-2.2798,-2.2328,-2.16,-2.0564,-1.9781,-1.9203,-1.8925,-1.8327,-1.7859,-1.7512,-1.7363,-1.7207,-1.7088,-1.7032,-1.7004,-1.7058,-1.7908,-1.8317,-1.8448,-1.9126,-1.9455,-1.9408,-1.8499,-1.8502,-1.8925,-1.8636,-1.8598,-1.8689,-1.8254,-1.7344,-1.6251,-1.5451,-1.4432,-1.3381,-1.2429,-1.1446,0.0,0.0,0.0,0.0,0.0,0.0,0.0,0.0,-0.0899,0.0347,0.1576,0.2359,0.3164,0.4281,0.4894,0.544,0.5902,0.6226,0.6387,0.6387,0.6337,0.6337,0.6337,0.6192,0.5942,0.5464,0.5134,0.4567,0.3695,0.3359,0.282,0.1849,0.1129,0.0423,-0.0182,-0.1348,-0.2096,-0.2342,-0.3389,-0.4006,-0.4313,-0.5114,-0.573,-0.6101,-0.6528,-0.7016,-0.7508,-0.8055,-0.8419,-0.872,-0.9636,-1.0001,-1.0061,-1.0668,-1.0607,-1.0183,-1.0061,-1.0365,-1.0785,0.0,0.0,0.0,0.0,0.0,0.0,0.0,0.0,0.0,0.0,0.0,0.0,0.0,0.0,0.0,0.0,0.0,0.0,-2.4473,-2.486,-2.4664,-2.3698,-2.2824,-2.1949,-2.1129,-2.0319,-1.9718,-1.9326,-1.9239,-1.9004,-1.8617,-1.8417,-1.8255,-1.8116,-1.787,-1.7772,-1.7805,-1.8283,-1.8717,-1.9134,-1.9627,-2.0011,-2.0226,-1.9966,-1.9466,-1.8891,-1.8933,-1.8499,-1.7863,-1.7266,-1.6631,-1.5873,-1.4759,-1.3838,-1.2958,-1.1826,-1.0895,-1.0029,-0.8996,-0.7431,-0.58,-0.4615,-0.3461,-0.2323,0.0,0.0,0.1059,0.2307,0.3215,0.3998,0.4863,0.5426,0.5904,0.6299,0.6379,0.6387,0.6387,0.6189,0.6042,0.6042,0.5935,0.5683,0.5204,0.4489,0.3908,0.3639,0.262,0.1968,0.1821,0.0717,-0.0182,-0.086,-0.1601,-0.2527,-0.3697,-0.382,-0.4498,-0.5671,-0.5794,-0.6162,-0.6839,-0.7444,-0.775,-0.7933,-0.9089,-0.9636,-0.9697,-1.0425,-1.0668,-1.0728,-1.1091,-1.1394,-1.1514,-1.091,-1.0728,-1.077,0.0,0.0,0.0,0.0,0.0,0.0,0.0,0.0,0.0,0.0,0.0,0.0,0.0,0.0,0.0,0.0,0.0,0.0,-2.5041,-2.5488,-2.5147,-2.3859,-2.3428,-2.2675,-2.1442,-2.104,-2.0646,-2.0333,-2.0257,-2.0004,-1.9619,-1.9541,-1.9333,-1.9054,-1.8948,-1.9036,-1.9332,-1.9757,-2.0192,-2.0623,-2.1026,-2.121,-2.1219,-2.0837,-2.0347,-1.9813,-1.9269,-1.8774,0.0,0.0,-1.6607,-1.5779,-1.4509,-1.3499,-1.2533,-1.1377,-1.0308,-0.9097,-0.7413,-0.6065,-0.4868,-0.3678,-0.2493,-0.1331,-0.0281,0.0847,0.1987,0.2992,0.3824,0.4572,0.5255,0.5723,0.6035,0.6329,0.6387,0.6337,0.6189,0.6092,0.5864,0.5417,0.5359,0.5223,0.4837,0.411,0.3427,0.284,0.2196,0.1469,0.0776,-0.0122,-0.0931,-0.1624,-0.2709,-0.3544,-0.4049,-0.4763,-0.5428,-0.599,-0.674,-0.7199,-0.7508,-0.818,-0.8665,-0.9028,-1.0001,-1.0486,-1.0728,-1.1212,-1.1454,-1.1635,-1.1997,-1.2115,-1.2082,-1.1606,-1.1542,-1.1696,0.0,0.0,0.0,0.0,0.0,0.0,0.0,0.0,0.0,0.0,0.0,0.0,0.0,0.0,0.0,0.0,0.0,0.0,0.0,-2.6162,-2.5761,-2.4422,-2.4134,-2.3445,-2.2213,-2.1876,-2.1589,-2.1369,-2.1237,-2.0993,-2.0633,-2.0608,-2.0396,-2.0042,-2.0194,-2.0382,-2.0677,-2.1281,-2.1691,-2.1972,-2.2352,-2.239,-2.2175,-2.1753,-2.1333,-2.0796,-1.9586,-1.8959,0.0,0.0,-1.6473,-1.5573,-1.4343,-1.3177,-1.2049,-1.094,-0.9503,-0.7894,-0.6208,-0.5083,-0.4137,-0.2989,-0.1757,-0.0559,0.043,0.1585,0.2703,0.3546,0.4246,0.4905,0.5372,0.5689,0.5939,0.6137,0.6187,0.6147,0.5982,0.5785,0.5519,0.4998,0.4792,0.4588,0.4317,0.3674,0.2967,0.2124,0.1583,0.0896,0.0,-0.0871,-0.1706,-0.2347,-0.359,-0.4383,-0.4769,-0.5607,-0.6256,-0.6607,-0.7529,-0.8027,-0.8177,-0.8851,-0.9518,-1.0243,-1.0849,-1.1273,-1.1575,-1.1937,-1.2238,-1.2539,-1.284,-1.2903,-1.2781,-1.2552,-1.2417,-1.2274,0.0,0.0,0.0,0.0,0.0,0.0,0.0,0.0,0.0,0.0,0.0,0.0,0.0,0.0,0.0,0.0,0.0,0.0,0.0,-2.6963,-2.6604,-2.5792,-2.498,-2.4273,-2.365,-2.2864,-2.2397,-2.2244,-2.218,-2.202,-2.1746,-2.1616,-2.1396,-2.1177,-2.1629,-2.1691,-2.1538,-2.2537,-2.2889,-2.2811,-2.3346,-2.3357,-2.3058,-2.2896,-2.2427,-2.1628,-1.9901,0.0,0.0,-1.6987,-1.6008,-1.5051,-1.4101,-1.2856,-1.1533,-1.0519,-0.8549,-0.6544,-0.587,-0.4696,-0.3426,-0.244,-0.1249,-0.0047,0.1021,0.2059,0.3005,0.3814,0.4431,0.4883,0.5138,0.5438,0.5636,0.5636,0.5636,0.5672,0.5777,0.5328,0.4948,0.5094,0.4166,0.3526,0.3526,0.3067,0.2468,0.184,0.0711,0.0,-0.0062,-0.1376,-0.2348,-0.3025,-0.3802,-0.4833,-0.6116,-0.6178,-0.6833,-0.8054,-0.8051,-0.8361,-0.8915,-0.9521,-1.0304,-1.1273,-1.1635,-1.1937,-1.2174,-1.2539,-1.2844,-1.3204,-1.3569,-1.3734,-1.3752,-1.3901,-1.3131,-1.2065,0.0,0.0,0.0,0.0,0.0,0.0,0.0,0.0,0.0,0.0,0.0,0.0,0.0,0.0,0.0,0.0,0.0,0.0,0.0,-2.7233,-2.6861,-2.6233,-2.5948,-2.5545,-2.5029,-2.4248,-2.3803,-2.3758,-2.3658,-2.3482,-2.3319,-2.3641,-2.3658,-2.3375,-2.3376,-2.348,-2.3697,-2.396,-2.4189,-2.4386,-2.45,-2.4366,-2.4121,-2.3826,-2.3339,-2.2683,0.0,0.0,0.0,-1.7541,-1.6446,-1.5409,-1.4294,-1.2989,-1.1515,-0.9616,-0.8164,-0.6924,-0.5588,-0.4429,-0.3286,-0.1978,-0.0879,0.0186,0.1197,0.2139,0.2996,0.3755,0.4395,0.4885,0.514,0.5438,0.5586,0.5586,0.5696,0.56,0.5276,0.5126,0.4853,0.4448,0.3841,0.3279,0.2773,0.2328,0.1826,0.1263,0.0426,-0.0434,-0.1397,-0.2127,-0.293,-0.3858,-0.4815,-0.5699,-0.6362,-0.6955,-0.7513,-0.8174,-0.8877,-0.9442,-0.9883,-1.0728,-1.1333,-1.1635,-1.2178,-1.2719,-1.3204,-1.3324,-1.3688,-1.4157,-1.4306,-1.4281,-1.4225,-1.4291,-1.3997,-1.3402,0.0,0.0,0.0,0.0,0.0,0.0,0.0,0.0,0.0,0.0,0.0,0.0,0.0,0.0,0.0,0.0,0.0,-2.7274,0.0,0.0,-2.732,-2.6986,-2.6756,-2.6474,-2.6163,-2.5416,-2.5062,-2.5108,-2.4956,-2.4888,-2.485,-2.5103,-2.5105,-2.4927,-2.4914,-2.5045,-2.5211,-2.5323,-2.5473,-2.5646,-2.5508,-2.5342,-2.5077,-2.4652,-2.415,0.0,0.0,0.0,0.0,-1.8186,-1.6932,-1.5754,-1.4573,-1.3015,-1.1232,-0.9426,-0.8144,-0.6985,-0.5642,-0.4429,-0.3286,-0.2025,-0.0971,0.0,0.1044,0.1973,0.2819,0.3525,0.4106,0.4549,0.4732,0.4937,0.5046,0.508,0.5137,0.5097,0.4744,0.4719,0.4494,0.3947,0.3429,0.285,0.2208,0.1565,0.0972,0.0555,-0.0312,-0.1204,-0.2078,-0.2885,-0.3633,-0.4445,-0.5554,-0.6384,-0.6855,-0.7614,-0.8255,-0.8862,-0.963,-1.0304,-1.0849,-1.1514,-1.2057,-1.2479,-1.2904,-1.3444,-1.4047,-1.4167,-1.4525,-1.4986,-1.504,-1.4975,-1.4899,-1.495,-1.4816,-1.4541,0.0,0.0,0.0,0.0,0.0,0.0,0.0,0.0,0.0,0.0,0.0,0.0,0.0,0.0,0.0,0.0,0.0,0.0,0.0,0.0,0.0,-2.802,-2.7406,-2.7066,-2.7066,-2.6412,-2.6146,-2.6275,-2.6146,-2.6153,-2.6274,-2.6054,-2.59,-2.5867,-2.6299,-2.6347,-2.6138,-2.6564,-2.6669,-2.6537,-2.6404,-2.619,-2.5907,-2.5439,0.0,0.0,0.0,0.0,-2.0602,-1.8834,-1.7354,-1.6053,-1.4935,-1.2886,-1.0695,-0.9876,-0.8399,-0.6824,-0.5951,-0.4743,-0.3424,-0.2482,-0.1478,-0.0464,0.052,0.1521,0.2389,0.3021,0.3525,0.3842,0.3964,0.3981,0.4008,0.4083,0.4098,0.4154,0.4249,0.411,0.3843,0.3564,0.2842,0.2246,0.1849,0.0689,-0.0126,-0.0186,-0.1399,-0.2145,-0.2308,-0.3562,-0.4512,-0.4905,-0.5982,-0.6855,-0.7526,-0.8199,-0.8983,-0.9974,-1.0257,-1.091,-1.1816,-1.1877,-1.2539,-1.3688,-1.3748,-1.4112,-1.465,-1.4997,-1.5348,-1.5618,-1.5724,-1.5755,-1.5839,-1.5818,-1.573,-1.5452,0.0,0.0,0.0,0.0,0.0,0.0,0.0,0.0,0.0,0.0,0.0,0.0,0.0,0.0,0.0,0.0,0.0,0.0,0.0,0.0,0.0,0.0,0.0,0.0,0.0,0.0,0.0,0.0,0.0,-2.7294,-2.7317,-2.7705,-2.7881,-2.7873,-2.7777,-2.7643,-2.7479,-2.75,-2.7433,-2.7306,0.0,-2.7011,-2.6803,0.0,0.0,0.0,0.0,0.0,-2.1573,-1.9404,-1.7281,-1.545,-1.4592,-1.3218,-1.1677,-1.0465,-0.9303,-0.8087,-0.6596,-0.5453,-0.4346,-0.3022,-0.1943,-0.0951,0.0,0.0692,0.1446,0.2343,0.2642,0.2995,0.3603,0.3698,0.3804,0.4083,0.4194,0.4124,0.3769,0.373,0.3463,0.279,0.2302,0.1727,0.0876,-0.0193,-0.1042,-0.1622,-0.1959,-0.2638,-0.368,-0.4084,-0.4826,-0.6049,-0.6585,-0.7319,-0.8323,-0.9293,-0.98,-0.988,-1.0933,-1.1575,-1.1816,-1.2784,-1.3384,-1.3748,-1.4172,-1.4769,-1.5359,-1.5418,-1.5665,-1.6003,-1.6268,-1.6281,-1.6118,-1.6402,-1.6421,-1.6358,0.0,0.0,0.0,0.0,0.0,0.0,0.0,0.0,0.0,0.0,0.0,0.0,0.0,0.0,0.0,0.0,0.0,0.0,0.0,0.0,0.0,0.0,0.0,0.0,0.0,0.0,0.0,0.0,0.0,0.0,0.0,-2.8584,-2.8724,-2.8724,-2.8549,-2.8405,-2.8332,0.0,0.0,0.0,0.0,0.0,0.0,0.0,0.0,0.0,0.0,-2.3205,-2.1733,-2.0118,-1.7995,-1.588,-1.493,-1.3843,-1.2655,-1.1553,-1.031,-0.9056,-0.7698,-0.6467,-0.5319,-0.4117,-0.3089,-0.2105,-0.1165,-0.0407,0.0366,0.1153,0.16,0.2019,0.2495,0.2771,0.2973,0.3234,0.3438,0.3407,0.2987,0.299,0.2703,0.1819,0.1419,0.0816,-0.0193,-0.1044,-0.1982,-0.2858,-0.3059,-0.347,-0.4238,-0.4911,-0.5649,-0.6453,-0.7254,-0.8204,-0.9285,-0.9909,-1.0374,-1.0668,-1.1454,-1.2118,-1.2664,-1.3389,-1.3928,-1.4341,-1.4823,-1.5364,-1.5833,-1.613,-1.635,-1.6528,-1.672,-1.6753,-1.6635,-1.6998,-1.71,-1.7087,0.0,0.0,0.0,0.0,0.0,0.0,0.0,0.0,0.0,0.0,0.0,0.0,0.0,0.0,0.0,0.0,0.0,0.0,0.0,0.0,0.0,0.0,0.0,0.0,0.0,0.0,0.0,0.0,0.0,0.0,0.0,0.0,0.0,0.0,0.0,0.0,0.0,0.0,0.0,0.0,0.0,0.0,0.0,0.0,0.0,0.0,0.0,-2.3547,-2.1704,-2.0974,-1.908,-1.6869,-1.5865,-1.4767,-1.3673,-1.2886,-1.1526,-1.0048,-0.9087,-0.787,-0.6602,-0.5628,-0.4648,-0.371,-0.2773,-0.1791,-0.0946,-0.0367,0.0323,0.0889,0.1069,0.147,0.18,0.2006,0.2237,0.2281,0.2005,0.1988,0.1672,0.0739,0.0377,-0.0192,-0.1318,-0.2052,-0.2866,-0.3987,-0.439,-0.4585,-0.4577,-0.5848,-0.6654,-0.6855,-0.8187,-0.9327,-1.0216,-1.0404,-1.0937,-1.1816,-1.1997,-1.2603,-1.3688,-1.3868,-1.4406,-1.5175,-1.5537,-1.5957,-1.6301,-1.679,-1.7005,-1.7098,-1.7158,-1.7204,-1.7194,-1.7569,-1.7687,-1.7752,0.0,0.0,0.0,0.0,0.0,0.0,0.0,0.0,0.0,0.0,-3.1166,-3.0402,0.0,0.0,0.0,0.0,0.0,0.0,0.0,0.0,0.0,0.0,0.0,0.0,0.0,-2.8636,-2.8708,-2.8818,-2.8818,0.0,0.0,0.0,0.0,0.0,0.0,0.0,0.0,0.0,0.0,0.0,0.0,0.0,0.0,0.0,0.0,0.0,-2.5794,-2.4186,-2.2728,-2.2036,-2.0031,-1.7765,-1.7401,-1.6252,-1.4941,-1.4273,-1.3178,-1.1986,-1.0869,-0.9831,-0.8746,-0.7599,-0.6631,-0.5661,-0.473,-0.3798,-0.291,-0.2201,-0.146,-0.0745,-0.0143,0.0242,0.0599,0.1056,0.1171,0.109,0.0756,0.0713,0.0364,-0.0626,-0.0836,-0.1382,-0.2877,-0.3387,-0.4115,-0.5279,-0.592,-0.6194,-0.6122,-0.6652,-0.7452,-0.8584,-0.9718,-1.0313,-1.0216,-1.1355,-1.1872,-1.1816,-1.2844,-1.3509,-1.3748,-1.4764,-1.5359,-1.5537,-1.6124,0.0,-1.7232,-1.708,-1.7187,-1.7521,-1.774,-1.7728,-1.755,-1.8076,-1.8265,-1.8224,0.0,0.0,0.0,0.0,0.0,0.0,0.0,-3.269,-3.2921,-3.2921,-3.269,-3.2259,-3.152,-3.1136,-3.092,0.0,0.0,0.0,0.0,0.0,0.0,0.0,0.0,0.0,0.0,-2.866,-2.8747,-2.8794,0.0,-2.8794,-2.8794,-2.8794,-2.8794,-2.8794,-2.8794,-2.8747,0.0,0.0,0.0,0.0,0.0,0.0,0.0,0.0,0.0,0.0,0.0,-2.5421,-2.4107,-2.3323,-2.1741,-1.9928,-1.8735,-1.7553,-1.6501,-1.5936,-1.4928,-1.3915,-1.32,-1.225,-1.1231,-1.0321,-0.9286,-0.8201,-0.7131,-0.6055,-0.5038,-0.4194,-0.3289,-0.2521,-0.2032,-0.1486,-0.0937,-0.0527,-0.0319,-0.0327,-0.0525,-0.0775,-0.1222,-0.2031,-0.2355,-0.3078,-0.441,-0.4748,-0.5424,-0.6713,-0.7048,-0.7179,-0.7132,-0.788,-0.8848,-0.9918,-1.0784,-1.1297,-1.1296,-1.23,-1.28,-1.2784,-1.3569,-1.4227,-1.4704,-1.5299,-1.5887,-1.6354,-1.6832,-1.7225,-1.7481,-1.7496,-1.762,-1.784,-1.7929,-1.8034,-1.8055,-1.8489,-1.8643,-1.8554,0.0,0.0,0.0,0.0,0.0,0.0,0.0,-3.3198,-3.3629,-3.3629,-3.415,-3.4089,-3.298,-3.2256,-3.184,0.0,0.0,0.0,0.0,0.0,0.0,0.0,0.0,0.0,0.0,0.0,0.0,-2.87,-2.87,0.0,0.0,0.0,0.0,0.0,-2.8783,-2.8781,-2.8684,-2.8716,0.0,0.0,0.0,-2.9497,0.0,0.0,0.0,0.0,0.0,-2.6539,-2.5335,-2.4504,-2.3427,-2.2151,-2.0488,-1.9177,-1.8158,-1.769,-1.6911,-1.6114,-1.5738,-1.4902,-1.395,-1.3273,-1.2277,-1.1098,-0.9804,-0.8569,-0.7455,-0.6419,-0.5349,-0.4471,-0.4101,-0.3374,-0.2733,-0.242,-0.2182,-0.2072,-0.2097,-0.2451,-0.2951,-0.3589,-0.4171,-0.4951,-0.5984,-0.6206,-0.6894,-0.8318,-0.8607,-0.8573,-0.8251,-0.9436,-1.0379,-1.1052,-1.1776,-1.2287,-1.2551,-1.32,-1.3686,-1.3995,-1.4311,-1.4948,-1.5715,-1.5893,-1.6419,-1.7114,-1.7529,-1.7737,-1.7793,-1.8017,-1.8134,-1.8171,-1.8193,-1.8384,-1.8639,-1.8966,-1.9023,-1.8889,0.0,0.0,0.0,0.0,0.0,0.0,0.0,-3.3921,-3.4412,-3.4412,-3.4459,-3.4459,-3.432,-3.3644,-3.3213,0.0,0.0,0.0,0.0,0.0,0.0,0.0,0.0,0.0,0.0,0.0,0.0,-2.8436,-2.8323,0.0,0.0,0.0,0.0,0.0,0.0,-2.8966,-2.9012,-2.9594,0.0,0.0,0.0,0.0,0.0,0.0,0.0,0.0,0.0,-2.6981,-2.5953,-2.537,-2.4492,-2.3599,-2.3209,-2.1666,-1.9885,-1.9474,-1.9285,-1.9035,-1.8221,-1.7738,-1.7238,-1.6352,-1.5362,-1.4294,-1.2821,-1.1563,-1.0342,-0.9113,-0.7764,-0.6665,-0.6109,-0.5454,-0.4873,-0.4467,-0.4415,-0.4412,-0.4423,-0.4522,-0.4848,-0.5386,-0.6074,-0.6742,-0.7601,-0.8055,-0.8868,-1.0191,-1.1227,-1.122,-1.0009,-1.0986,-1.178,-1.2111,-1.2894,-1.3314,-1.349,-1.3956,-1.4447,-1.4887,-1.5285,-1.5655,-1.6059,-1.695,-1.7367,-1.7467,-1.8084,-1.8477,0.0,-1.8468,-1.8542,-1.881,-1.8833,-1.8974,-1.9272,-1.9524,-1.958,-1.9459,0.0,0.0,0.0,0.0,0.0,0.0,-3.3398,-3.4352,-3.5106,-3.5106,-3.546,-3.5722,-3.5722,-3.506,-3.4491,-3.412,0.0,0.0,0.0,0.0,0.0,0.0,0.0,0.0,0.0,0.0,-2.947,-2.947,-2.9358,0.0,0.0,0.0,0.0,0.0,0.0,-2.9255,-2.919,-2.9472,0.0,0.0,0.0,0.0,0.0,0.0,0.0,0.0,0.0,0.0,-2.7027,-2.6358,-2.5709,-2.5146,-2.4862,-2.3977,-2.2931,-2.1968,-2.1549,-2.1301,-2.1078,-2.0725,-2.0248,-1.9579,-1.8527,-1.7349,-1.6086,-1.4537,-1.3,-1.168,-1.0475,-0.9366,-0.8486,-0.7914,-0.7326,-0.6763,-0.6629,-0.6543,-0.6401,-0.6863,-0.7279,-0.7561,-0.82,-0.8883,-0.9495,-1.0036,-1.0825,-1.1836,-1.2885,-1.3197,-1.2441,-1.2626,-1.2894,-1.3223,-1.3945,-1.4498,-1.4861,-1.5292,-1.5633,-1.5891,-1.6241,-1.6591,-1.695,-1.7713,-1.8152,-1.8397,-1.8787,-1.8928,0.0,-1.8942,-1.9,-1.9184,-1.9323,-1.9532,-1.9761,-1.9668,-1.9691,-1.9649,0.0,0.0,0.0,0.0,0.0,-3.3721,-3.3721,-3.4891,-3.5784,-3.5784,-3.6199,-3.6492,-3.6492,-3.6061,-3.5614,-3.5136,-3.4245,0.0,0.0,0.0,0.0,0.0,0.0,0.0,0.0,0.0,-3.0188,-3.0151,-2.9966,-2.986,0.0,0.0,-2.9507,-2.9522,0.0,0.0,0.0,0.0,0.0,0.0,0.0,0.0,0.0,0.0,0.0,0.0,0.0,0.0,0.0,0.0,0.0,-2.664,-2.642,-2.6117,-2.5588,-2.4202,-2.3678,-2.352,-2.3659,-2.345,-2.3073,-2.248,-2.1445,-2.0272,-1.9096,-1.7548,-1.5973,-1.4569,-1.3284,-1.212,-1.1124,-1.0452,-0.9796,-0.9109,-0.8938,-0.8834,-0.8493,-0.908,-0.9521,-0.9542,-1.0315,-1.1007,-1.1362,-1.227,-1.2965,-1.3388,-1.445,-1.489,-1.4553,-1.446,-1.446,-1.453,-1.5062,-1.5639,-1.6243,-1.6452,-1.6714,-1.7034,-1.7286,-1.759,-1.7948,-1.8532,-1.8955,-1.9131,-1.9437,-1.9429,0.0,-1.9433,-1.9529,-1.9576,-1.9843,-2.0094,-2.0305,-2.0023,-1.9988,-2.0031,0.0,0.0,0.0,0.0,0.0,0.0,-3.4489,-3.5645,-3.6476,-3.6476,-3.6492,-3.6492,-3.6492,-3.6492,-3.6476,-3.6476,-3.5275,0.0,0.0,0.0,0.0,0.0,0.0,0.0,0.0,0.0,-3.0136,-3.0008,-2.9669,-2.9493,-2.9493,-2.9235,-2.9098,-2.9142,0.0,0.0,0.0,0.0,0.0,0.0,0.0,0.0,0.0,0.0,0.0,0.0,0.0,0.0,0.0,0.0,0.0,0.0,0.0,-2.7967,-2.7535,-2.5948,-2.566,-2.5854,-2.5797,-2.5776,-2.5599,-2.4914,-2.4061,-2.3046,-2.173,-2.0584,-1.9346,-1.785,-1.6243,-1.4829,-1.4022,-1.3068,-1.218,-1.141,-1.1505,-1.1402,-1.075,-1.1191,-1.1522,-1.1318,-1.2183,-1.2936,-1.3348,-1.4732,-1.5368,-1.5033,-1.5958,-1.6372,-1.5994,-1.6618,-1.6683,-1.5974,-1.6304,-1.6823,-1.7464,-1.7275,-1.752,-1.8153,-1.8333,-1.8532,-1.8939,-1.9519,-1.9752,-1.9724,-2.0039,-2.0155,0.0,-2.0067,-2.0086,-2.0138,-2.0411,-2.0668,-2.0877,-2.0821,-2.0761,-2.0611,0.0,0.0,0.0,0.0,0.0,0.0,0.0,-3.5922,-3.6492,-3.6492,-3.6492,-3.6492,-3.6492,-3.6492,-3.6492,-3.6492,-3.5706,0.0,0.0,0.0,0.0,0.0,0.0,0.0,0.0,0.0,-3.122,-3.1022,-3.0824,-3.0697,-3.0598,-3.0352,-3.0265,-3.028,-3.0397,-3.0426,0.0,0.0,0.0,0.0,0.0,0.0,-3.1324,0.0,0.0,0.0,0.0,0.0,0.0,0.0,0.0,0.0,0.0,0.0,0.0,-2.8916,-2.8436,-2.7895,-2.7688,-2.7629,-2.7435,-2.6659,-2.585,-2.5041,-2.3995,-2.2712,-2.136,-2.0104,-1.8754,-1.7527,-1.6632,-1.5729,-1.4961,-1.4543,-1.4121,-1.3877,-1.3786,-1.4004,-1.4259,-1.4538,-1.5256,-1.587,-1.6435,-1.6932,-1.7116,-1.687,-1.7375,-1.7568,-1.7352,-1.7852,-1.7793,-1.7077,-1.7335,-1.7767,-1.8237,-1.8438,-1.8721,-1.8955,-1.924,-1.9519,-1.9866,-2.045,-2.0621,-2.0362,-2.0867,-2.0826,-2.0402,-2.0751,-2.0909,-2.096,-2.1216,-2.1369,-2.1397,-2.09,-2.08,-2.0802,0.0,0.0,0.0,0.0,0.0,0.0,0.0,-3.6061,-3.6492,-3.6492,-3.6492,-3.6599,-3.6846,-3.6876,-3.6969,-3.723,-3.6861,0.0,0.0,0.0,0.0,0.0,0.0,0.0,0.0,-3.2595,-3.2332,-3.2139,-3.1916,-3.1765,-3.1628,-3.1431,-3.1277,-3.1201,-3.1108,-3.1139,0.0,0.0,0.0,0.0,0.0,0.0,-3.1804,0.0,0.0,0.0,0.0,0.0,0.0,0.0,0.0,0.0,0.0,0.0,0.0,0.0,-3.0291,-2.9819,-2.9358,-2.9015,-2.87,-2.8075,-2.7366,-2.6595,-2.585,-2.4661,-2.3451,-2.2534,-2.1325,-2.0144,-1.9268,-1.8443,-1.7658,-1.6983,-1.6709,-1.6472,-1.6147,-1.6364,-1.6693,-1.7059,-1.7666,-1.8228,-1.8675,-1.8843,-1.8852,-1.8558,-1.8854,-1.8895,-1.8641,-1.9072,-1.9142,-1.8688,-1.874,-1.8933,-1.9175,-1.9572,-1.9766,-1.9832,-2.0185,-2.0507,-2.0788,-2.1299,-2.1342,-2.1093,-2.144,-2.1336,0.0,-2.1318,-2.1522,-2.1623,-2.1928,-2.1996,-2.1853,-2.1451,-2.1232,-2.1161,0.0,0.0,0.0,0.0,0.0,0.0,0.0,-3.6091,-3.6492,-3.6492,-3.6492,-3.6753,-3.743,-3.7507,-3.7769,-3.8446,0.0,0.0,0.0,0.0,0.0,0.0,0.0,0.0,-3.3985,-3.3652,-3.3392,-3.3192,-3.2849,-3.2611,-3.2481,-3.2288,-3.208,-3.1917,-3.1917,-3.2015,0.0,0.0,0.0,0.0,0.0,0.0,0.0,0.0,0.0,0.0,0.0,0.0,0.0,0.0,0.0,0.0,0.0,0.0,0.0,0.0,0.0,0.0,0.0,-3.0037,-2.9431,-2.9246,-2.8562,-2.7841,-2.744,-2.6482,0.0,-2.5032,-2.3824,-2.264,-2.1838,-2.1114,-2.0225,-1.8919,-1.9216,-1.9178,-1.7945,-1.8478,-1.896,-1.9046,-1.9643,-2.0102,-2.0271,-2.0641,-2.063,-2.0093,-2.0317,-2.0273,-1.98,-2.0348,-2.0672,-2.0729,-2.0443,-2.0231,-2.0146,-2.0611,-2.0787,-2.0749,-2.1112,-2.1432,-2.1702,-2.1973,-2.2018,-2.1957,-2.1917,-2.1857,-2.1776,-2.1827,-2.1979,-2.2224,-2.245,-2.2427,-2.2319,-2.2187,-2.191,-2.1538,0.0,0.0,0.0,0.0,0.0,0.0,0.0,0.0,0.0,0.0,-3.6492,-3.6753,-3.743,-3.7507,-3.7769,0.0,0.0,0.0,0.0,0.0,0.0,0.0,0.0,0.0,-3.3789,-3.3439,-3.3207,-3.3066,-3.272,-3.2449,-3.2288,-3.2047,-3.195,-3.1917,-3.1917,-3.2015,0.0,0.0,0.0,0.0,0.0,0.0,0.0,0.0,0.0,0.0,-3.3304,-3.3276,0.0,0.0,0.0,0.0,0.0,0.0,0.0,0.0,-3.1783,-3.1665,-3.1889,0.0,-3.019,-3.0229,-2.9721,-2.9143,0.0,-2.812,-2.7205,-2.6337,-2.5183,-2.4185,-2.3849,-2.2839,-2.2012,-2.1924,-2.1478,-2.1024,-2.0732,-2.0982,-2.1306,-2.1596,-2.1969,-2.2164,-2.2229,-2.2108,-2.1834,-2.1548,-2.132,-2.1232,-2.1116,-2.1292,-2.1607,-2.2104,-2.2059,-2.1661,-2.0868,-2.147,-2.164,-2.1421,-2.1976,-2.24,-2.2659,-2.2696,-2.2665,-2.2577,-2.2749,-2.2638,-2.2325,-2.2787,-2.3046,-2.3061,-2.2763,-2.2646,-2.2536,-2.1943,-2.168,-2.1538,0.0,0.0,0.0,0.0,0.0,0.0,0.0,0.0,0.0,0.0,0.0,0.0,0.0,0.0,0.0,0.0,0.0,0.0,0.0,0.0,0.0,0.0,0.0,-3.5294,-3.4538,-3.4161,-3.3873,-3.3644,-3.3383,-3.3087,-3.282,-3.272,-3.2619,-3.2551,-3.2652,-3.2753,0.0,0.0,0.0,0.0,-3.336,0.0,0.0,0.0,0.0,0.0,-3.3361,-3.3241,0.0,-3.3157,-3.3037,-3.2846,0.0,0.0,0.0,0.0,-3.2078,-3.2049,-3.2304,-3.1588,-3.0842,-3.118,-3.0717,-3.0068,-2.9803,-2.9001,-2.8174,-2.7692,-2.667,-2.5862,-2.5678,-2.4926,-2.4245,-2.3859,-2.3616,-2.3366,-2.3083,-2.3142,-2.3249,-2.3409,-2.3567,-2.3611,-2.3611,-2.3335,-2.3032,-2.2728,-2.2547,-2.2433,-2.2313,-2.2425,-2.2675,-2.3043,-2.3037,-2.2651,-2.1781,-2.2127,-2.2278,-2.2279,-2.2626,-2.3022,-2.3392,-2.3305,-2.322,-2.3154,-2.3246,-2.3087,-2.2937,-2.3247,-2.3447,-2.356,-2.3068,-2.2849,-2.2721,-2.2288,-2.1989,-2.1808,0.0,0.0,0.0,0.0,0.0,0.0,0.0,0.0,0.0,0.0,0.0,0.0,0.0,0.0,0.0,0.0,0.0,0.0,0.0,0.0,0.0,0.0,0.0,-3.6307,-3.5621,-3.5126,-3.4716,-3.4414,-3.4176,-3.3902,-3.3605,-3.357,-3.3466,-3.3326,-3.3466,-3.357,0.0,0.0,-3.3862,-3.3862,-3.3862,0.0,0.0,0.0,0.0,0.0,0.0,0.0,0.0,-3.2952,-3.281,-3.2632,-3.2453,0.0,0.0,0.0,0.0,0.0,-3.256,-3.2045,-3.1586,-3.2045,-3.1571,-3.091,-3.0519,-2.9765,-2.9102,-2.8951,-2.8227,-2.7508,-2.7276,-2.6977,-2.6445,-2.5409,-2.5469,-2.5509,-2.5052,-2.4935,-2.4922,-2.4901,-2.4876,-2.482,-2.4701,-2.4345,-2.402,-2.3696,-2.3698,-2.3588,-2.3315,-2.3611,-2.3767,-2.3784,-2.3757,-2.348,-2.2898,-2.2749,-2.2847,-2.3127,-2.3239,-2.3512,-2.4055,-2.381,-2.3735,-2.3745,-2.354,0.0,-2.3456,-2.3546,-2.3669,-2.3768,-2.3359,-2.3065,-2.2898,-2.2712,-2.243,-2.2185,0.0,0.0,0.0,0.0,0.0,0.0,0.0,0.0,0.0,0.0,0.0,0.0,0.0,0.0,0.0,0.0,0.0,0.0,0.0,0.0,0.0,0.0,-3.689,-3.6216,-3.6112,-3.5211,-3.4616,-3.4414,-3.4088,-3.3813,-3.3605,-3.3431,-3.3326,-3.329,-3.3326,-3.3431,-3.3605,-3.364,-3.364,-3.364,-3.364,0.0,0.0,0.0,0.0,0.0,0.0,0.0,0.0,-3.2739,-3.2596,-3.2453,-3.2417,0.0,0.0,0.0,0.0,0.0,-3.3303,-3.2976,-3.2593,-3.2479,-3.2272,-3.201,-3.1851,-3.1517,-3.0988,-3.0152,-2.9607,-2.9135,-2.8535,-2.8118,-2.7744,-2.7458,-2.6841,-2.6523,-2.6745,-2.6539,-2.6385,-2.635,-2.636,-2.6149,-2.5468,-2.5136,-2.4796,-2.4464,-2.4187,-2.4099,-2.4363,-2.4417,-2.4531,-2.4779,-2.4487,-2.4311,-2.4145,-2.3628,-2.3478,-2.3753,-2.4287,-2.4565,-2.465,-2.4436,-2.4351,-2.4359,0.0,-2.3755,-2.3746,-2.4192,-2.4137,-2.3892,-2.3702,-2.3326,-2.2958,-2.2598,-2.241,-2.2353,0.0,0.0,0.0,0.0,0.0,0.0,0.0,0.0,0.0,0.0,0.0,0.0,0.0,0.0,0.0,0.0,0.0,0.0,0.0,0.0,0.0,-3.8659,-3.7576,-3.663,-3.5874,-3.5341,-3.4762,-3.4122,-3.3848,-3.364,-3.3431,-3.3361,-3.329,-3.329,-3.329,-3.3361,-3.3431,-3.3431,-3.3628,-3.3924,0.0,0.0,0.0,0.0,0.0,0.0,0.0,0.0,0.0,0.0,-3.3366,-3.3179,-3.3081,0.0,0.0,0.0,0.0,0.0,-3.347,-3.3454,-3.3333,-3.3106,-3.2784,-3.2552,-3.255,-3.2217,-3.1728,-3.1069,-3.0694,-3.0275,-2.9786,-2.9643,-2.9498,-2.9204,-2.8544,-2.8031,-2.8048,-2.794,-2.7802,-2.7576,-2.7232,-2.6859,-2.6504,-2.5991,-2.5605,-2.5439,-2.5286,-2.528,-2.5402,-2.5402,-2.5363,-2.5248,-2.5066,-2.4928,-2.4914,-2.4591,-2.4407,-2.4406,-2.4676,-2.4849,-2.497,-2.4765,-2.4654,-2.4584,0.0,-2.4242,-2.4372,-2.4403,-2.4294,-2.4068,-2.355,-2.3172,-2.2955,-2.2726,-2.2662,-2.2784,0.0,0.0,0.0,0.0,0.0,0.0,0.0,0.0,0.0,0.0,0.0,0.0,0.0,0.0,0.0,0.0,0.0,0.0,0.0,0.0,-3.9068,-3.8958,-3.823,-3.7184,-3.5784,-3.5499,-3.4845,-3.3827,-3.3675,-3.3501,-3.329,-3.329,-3.329,-3.329,-3.329,-3.329,-3.329,-3.3445,-3.3768,-3.4217,0.0,0.0,0.0,0.0,0.0,0.0,0.0,0.0,0.0,0.0,0.0,0.0,0.0,0.0,0.0,-3.3514,-3.3554,-3.3742,-3.3749,-3.3777,-3.379,-3.3809,-3.342,-3.3063,-3.3149,-3.2781,-3.2385,-3.2116,-3.1858,-3.1573,-3.11,-3.1095,-3.098,-3.0433,-2.9951,-2.9546,-2.9176,-2.9111,-2.9036,-2.8716,-2.8071,-2.762,-2.7473,-2.6873,-2.6384,-2.6302,-2.6293,-2.638,-2.6432,-2.6357,-2.6148,-2.5839,-2.5703,-2.5551,-2.5393,-2.5433,-2.5284,-2.5,-2.4977,-2.506,-2.5308,-2.507,-2.493,-2.4882,-2.4666,-2.4679,-2.4722,-2.4506,-2.426,-2.4013,-2.344,-2.3126,-2.3002,-2.2909,-2.2969,-2.3091,0.0,0.0,0.0,0.0,0.0,0.0,0.0,0.0,0.0,0.0,0.0,0.0,0.0,0.0,0.0,0.0,0.0,0.0,0.0,0.0,-3.8922,-3.8553,-3.8472,-3.7733,-3.6293,-3.5507,-3.4622,-3.3605,-3.3605,-3.3501,-3.329,-3.329,-3.329,-3.329,-3.329,-3.329,-3.3333,-3.3894,-3.4161,-3.4209,-3.4599,0.0,0.0,0.0,0.0,0.0,0.0,0.0,0.0,0.0,0.0,0.0,0.0,0.0,-3.4113,-3.3913,-3.4065,-3.4366,-3.45,-3.4172,-3.3933,-3.4533,-3.4311,-3.3923,-3.3915,-3.3684,-3.3474,-3.3382,-3.3377,-3.3251,-3.2639,-3.2303,-3.179,-3.0923,-3.07,-3.061,-3.0346,-3.0287,-3.0165,-2.9748,-2.9288,-2.8797,-2.82,-2.7727,-2.7344,-2.6934,-2.6952,-2.7047,-2.7401,-2.7071,-2.6833,-2.6796,-2.6416,-2.6028,-2.5668,-2.5916,-2.5907,-2.5624,-2.5487,-2.5612,-2.5806,-2.5339,-2.5213,-2.5418,-2.5062,-2.4665,-2.4373,-2.4584,-2.419,-2.346,-2.3673,-2.35,-2.3096,-2.3067,-2.3101,-2.3091,0.0,0.0,0.0,0.0,0.0,0.0,0.0,0.0,0.0,0.0,0.0,0.0,0.0,0.0,0.0,0.0,0.0,0.0,0.0,0.0,-3.8664,-3.8516,-3.8269,-3.7624,-3.656,-3.5892,-3.5082,-3.4151,-3.3649,-3.3361,-3.329,-3.329,-3.329,-3.329,-3.329,-3.3501,-3.3866,-3.4104,-3.4579,-3.5194,-3.5356,-3.5485,0.0,0.0,0.0,0.0,0.0,0.0,0.0,0.0,-3.478,-3.47,0.0,-3.4458,-3.4508,-3.4138,-3.425,-3.4487,-3.439,-3.4387,-3.4552,-3.5164,-3.4872,-3.4473,-3.4525,-3.4601,-3.4627,-3.4415,-3.445,-3.4339,-3.3798,-3.3054,-3.251,-3.2415,-3.2049,-3.166,-3.1359,-3.1313,-3.1093,-3.0446,-2.9887,-2.9306,-2.8809,-2.8219,-2.7808,-2.7608,-2.7381,-2.7428,-2.7706,-2.7333,-2.7057,-2.7004,-2.7083,-2.693,-2.65,-2.6772,-2.6706,-2.6402,-2.6139,-2.6033,-2.6068,-2.5549,-2.5355,-2.5347,-2.4937,-2.4804,-2.4745,-2.4316,-2.3955,-2.367,-2.3629,-2.3598,-2.3537,-2.3537,-2.3368,-2.3182,0.0,0.0,0.0,0.0,0.0,0.0,0.0,0.0,0.0,0.0,0.0,0.0,0.0,0.0,0.0,0.0,0.0,0.0,-3.8922,-3.8664,-3.8478,-3.8404,-3.8081,-3.7614,-3.6996,-3.6331,-3.5557,-3.4715,-3.3951,-3.3473,-3.329,-3.329,-3.329,-3.329,-3.329,-3.3515,-3.3936,-3.4242,-3.479,-3.5499,-3.5787,-3.5993,0.0,0.0,0.0,0.0,0.0,0.0,0.0,0.0,0.0,0.0,0.0,0.0,0.0,0.0,-3.4461,-3.463,-3.4711,-3.4873,-3.5203,-3.5743,-3.5555,-3.5345,-3.5509,-3.5478,-3.5457,-3.5535,-3.5374,-3.5072,-3.4697,-3.398,-3.346,-3.3558,-3.3111,-3.2603,-3.2266,-3.2138,-3.1797,-3.1143,-3.0539,-3.002,-2.9556,-2.8964,-2.8564,-2.8437,-2.8183,-2.8033,-2.8129,-2.7678,-2.7435,-2.7382,-2.7483,-2.7397,-2.7152,-2.7485,-2.7491,-2.7027,-2.6874,-2.6526,-2.6117,-2.5738,-2.5466,-2.5305,-2.5119,-2.4979,-2.4851,-2.426,-2.3935,-2.3777,-2.3656,-2.3667,-2.3777,-2.3647,-2.3448,-2.3177,0.0,0.0,0.0,0.0,0.0,0.0,0.0,0.0,0.0,0.0,0.0,0.0,0.0,0.0,0.0,0.0,0.0,0.0,-3.8516,-3.8478,-3.8404,-3.8202,-3.7991,-3.7815,-3.7625,-3.6807,-3.601,-3.5189,-3.4548,-3.3894,-3.329,-3.329,-3.329,-3.329,-3.329,-3.329,-3.3375,-3.4376,-3.478,-3.4891,-3.5751,-3.6086,-3.6072,0.0,0.0,0.0,0.0,0.0,0.0,0.0,-3.5127,0.0,0.0,0.0,0.0,0.0,-3.477,-3.4809,-3.5676,-3.5781,-3.5756,-3.6309,-3.6396,-3.6532,-3.6984,-3.6234,-3.5714,-3.6711,-3.6289,-3.5678,-3.5468,-3.5108,-3.4673,-3.4047,-3.3607,-3.3292,-3.2985,-3.2603,-3.2261,-3.1853,-3.1418,-3.0992,-3.0566,-3.0158,-2.9751,-2.9344,-2.9306,-2.906,-2.8644,-2.8209,-2.8028,-2.8028,-2.764,-2.7431,-2.7431,-2.8014,-2.8066,-2.7575,-2.7709,-2.7121,-2.5889,-2.5742,-2.5603,-2.5436,-2.5681,-2.5273,-2.4515,-2.4504,-2.4199,-2.3797,-2.3797,-2.3787,-2.3737,-2.3358,-2.3187,-2.3116,0.0,0.0,0.0,0.0,0.0,0.0,0.0,0.0,0.0,0.0,0.0,0.0,0.0,0.0,0.0,0.0,0.0,0.0,-3.8516,-3.8231,-3.8043,-3.8005,-3.7649,-3.7457,-3.738,-3.7003,-3.6282,-3.5189,-3.5006,-3.4562,-3.3922,-3.3922,-3.3612,-3.3108,-3.3108,-3.3288,-3.3617,-3.4348,-3.483,-3.5132,-3.585,-3.5992,-3.5804,0.0,0.0,0.0,0.0,0.0,0.0,0.0,0.0,0.0,0.0,0.0,0.0,-3.4633,-3.4922,-3.5296,-3.605,-3.62,-3.6358,-3.7279,-3.72,-3.7143,-3.8048,-3.7469,-3.6848,-3.7178,-3.6899,-3.6446,-3.6146,-3.5613,-3.517,-3.4984,-3.4485,-3.4047,-3.3985,-3.3602,-3.3194,-3.2749,-3.2134,-3.1583,-3.1094,-3.048,-3.0055,-2.9929,-2.9368,-2.9036,-2.9076,-2.8701,-2.8564,-2.8789,-2.866,-2.8601,-2.8601,-2.8515,-2.8199,-2.7751,-2.7462,-2.7122,-2.6735,-2.6396,-2.6054,-2.5661,-2.5464,-2.5048,-2.4484,-2.4129,-2.4048,-2.4067,-2.4067,-2.4002,-2.3843,-2.3752,-2.3258,-2.2684,0.0,0.0,0.0,0.0,0.0,0.0,0.0,0.0,0.0,0.0,0.0,0.0,0.0,0.0,0.0,0.0,0.0,0.0,0.0,0.0,-3.7777,-3.7777,-3.7457,-3.7264,-3.7187,-3.707,-3.6652,-3.592,-3.5667,-3.5245,-3.459,-3.4228,-3.382,-3.3336,-3.3014,-3.3018,-3.3348,-3.3859,-3.4365,-3.4867,-3.5351,-3.564,-3.571,0.0,0.0,0.0,0.0,0.0,0.0,0.0,0.0,0.0,0.0,0.0,0.0,-3.4851,-3.5251,-3.5747,-3.6524,-3.6711,-3.6898,-3.777,-3.7822,-3.784,-3.8665,-3.8367,-3.7864,-3.7817,-3.7396,-3.7032,-3.6839,-3.6228,-3.5798,-3.5798,-3.5356,-3.4922,-3.4738,-3.436,-3.3902,-3.3093,-3.2612,-3.2034,-3.1299,-3.0819,-3.0399,-3.0053,-2.9539,-2.9228,-2.9222,-2.9006,-2.8963,-2.929,-2.929,-2.9252,-2.9122,-2.9013,-2.8676,-2.8001,-2.7813,-2.7636,-2.7441,-2.6723,-2.6135,-2.5669,-2.5143,-2.4761,-2.4496,-2.4168,-2.4196,-2.4335,-2.4335,-2.4143,-2.3898,-2.367,-2.3132,-2.247,0.0,0.0,0.0,0.0,0.0,0.0,0.0,0.0,0.0,0.0,0.0,0.0,0.0,0.0,0.0,0.0,0.0,0.0,0.0,0.0,-3.7586,-3.7586,-3.7341,-3.7148,-3.6993,-3.694,-3.6954,-3.6954,-3.6392,-3.584,-3.5236,-3.4413,-3.3968,-3.3793,-3.3093,-3.2723,-3.2674,-3.3097,-3.3612,-3.4148,-3.4609,-3.5114,-3.5642,-3.5696,0.0,0.0,0.0,0.0,0.0,0.0,0.0,0.0,-3.4397,0.0,-3.5003,-3.532,-3.5659,-3.613,-3.7044,-3.7245,-3.7366,-3.7905,-3.8241,-3.8603,-3.9009,-3.9011,-3.8812,-3.8488,-3.7938,-3.7506,-3.7506,-3.6961,-3.6545,-3.6484,-3.6197,-3.5773,-3.5281,-3.4904,-3.424,-3.3179,-3.2987,-3.2513,-3.1364,-3.1252,-3.0878,-3.0029,-2.9927,-2.9725,-2.9258,-2.9237,-2.9396,-2.9711,-2.9711,-2.959,-2.928,-2.9544,-2.9245,-2.8334,-2.8523,-2.8391,-2.7913,-2.6812,-2.5987,-2.5476,-2.4792,-2.4497,-2.4497,-2.4497,-2.4497,-2.4497,-2.4497,-2.4271,-2.3867,-2.3412,-2.2956,-2.2501,0.0,0.0,0.0,0.0,0.0,0.0,0.0,0.0,0.0,0.0,0.0,0.0,0.0,0.0,0.0,0.0,0.0,0.0,0.0,0.0,-3.7341,-3.7341,-3.7007,-3.6825,-3.6786,-3.6628,-3.6549,-3.6549,-3.6582,-3.6269,-3.5669,-3.5273,-3.4503,-3.3418,-3.3243,-3.2832,-3.2341,-3.2917,-3.3207,-3.3411,-3.4407,-3.487,-3.5032,-3.5533,-3.571,0.0,0.0,0.0,0.0,0.0,0.0,0.0,-3.4397,-3.476,-3.5232,-3.5364,-3.5795,-3.6437,-3.7509,-3.768,-3.7666,-3.8435,-3.8785,-3.9125,-3.9765,-3.9908,-3.9697,-3.8871,-3.8418,-3.819,-3.819,-3.7818,-3.7517,-3.7264,-3.6587,-3.6018,-3.5661,-3.4905,-3.426,-3.4001,-3.3654,-3.3201,-3.2577,-3.2188,-3.1736,-3.1168,-3.0811,-3.0569,-3.0464,-3.0412,-3.0464,-3.0568,-3.0568,-3.0336,-2.9923,-2.9592,-2.9176,-2.8603,-2.8328,-2.7913,-2.742,-2.7186,-2.6498,-2.5547,-2.4821,-2.4497,-2.4497,-2.4497,-2.4497,-2.4497,-2.4497,-2.4271,-2.3909,-2.3805,-2.3432,-2.3069,0.0,0.0,0.0,0.0,0.0,0.0,0.0,0.0,0.0,0.0,0.0,0.0,0.0,0.0,0.0,0.0,0.0,0.0,0.0,0.0,0.0,-3.7007,-3.6707,-3.6563,-3.6563,-3.6445,-3.6405,-3.6405,-3.6405,-3.6318,-3.6078,-3.554,-3.4904,-3.4183,-3.352,-3.2985,-3.264,-3.2667,-3.2843,-3.3183,-3.4041,-3.4531,-3.4856,-3.5493,-3.571,-3.5669,-3.548,0.0,0.0,0.0,0.0,0.0,0.0,0.0,-3.5146,-3.5352,-3.575,-3.6319,-3.7333,-3.7629,-3.7815,-3.8785,-3.9243,-3.9611,-3.9957,-4.029,-4.0164,-3.9337,-3.8959,-3.8846,-3.8846,-3.8429,-3.7992,-3.7558,-3.7125,-3.6618,-3.5972,-3.5482,-3.5032,-3.4656,-3.419,-3.3647,-3.3062,-3.2523,-3.205,-3.1566,-3.1307,-3.1178,-3.1178,-3.1178,-3.123,-3.1373,-3.1167,-3.0871,-3.052,-3.0041,-2.955,-2.907,-2.8726,-2.8099,-2.7282,-2.6832,-2.6165,-2.5379,-2.5019,-2.4828,-2.4828,-2.4743,-2.47,-2.4658,-2.454,-2.4271,-2.3919,-2.3919,-2.3659,-2.3346,0.0,0.0,0.0,0.0,0.0,0.0,0.0,0.0,0.0,0.0,0.0,0.0,0.0,0.0,0.0,0.0,0.0,0.0,0.0,0.0,0.0,0.0,-3.6484,-3.6365,-3.6365,-3.6312,-3.6272,-3.6272,-3.6112,-3.6112,-3.6258,-3.5605,-3.5239,-3.5102,-3.3925,-3.3292,-3.3074,-3.2572,-3.2653,-3.3156,-3.3664,-3.426,-3.4856,-3.5493,-3.5669,-3.5642,-3.544,-3.5236,-3.5003,-3.4797,0.0,0.0,0.0,0.0,-3.502,-3.5236,-3.5628,-3.6151,-3.6928,-3.7405,-3.7988,-3.91,-3.9648,-3.9959,-3.9978,-4.0287,-4.0388,-3.972,-3.9464,-3.9265,-3.9184,-3.8762,-3.8272,-3.7785,-3.758,-3.7174,-3.6297,-3.605,-3.5748,-3.5135,-3.4592,-3.3975,-3.3329,-3.274,-3.2257,-3.1815,-3.1783,-3.1783,-3.1783,-3.1783,-3.179,-3.1944,-3.1578,-3.1189,-3.0852,-3.0438,-2.9978,-2.9485,-2.9089,-2.8353,-2.7261,-2.6346,-2.5701,-2.5285,-2.52,-2.52,-2.52,-2.5031,-2.4946,-2.4946,-2.47,-2.4439,-2.4106,-2.4106,-2.3991,-2.3819,0.0,0.0,0.0,0.0,0.0,0.0,0.0,0.0,0.0,0.0,-3.4054,0.0,0.0,0.0,0.0,0.0,0.0,0.0,0.0,0.0,0.0,-3.6445,-3.6246,-3.6126,-3.6126,-3.5898,-3.5804,-3.5804,-3.5764,-3.5764,-3.5804,-3.5682,-3.537,-3.4828,-3.4665,-3.4027,-3.3088,-3.3006,-3.3033,-3.3156,-3.3664,-3.426,-3.4856,-3.5493,-3.5602,-3.5399,-3.5195,-3.5003,-3.4797,-3.4535,-3.4439,0.0,0.0,0.0,-3.5227,-3.502,-3.5576,-3.6325,-3.6649,-3.7526,-3.8536,-3.9727,-3.9808,-3.979,-4.022,-4.0227,-4.0042,-3.997,-3.9641,-3.9252,-3.8831,-3.8692,-3.8556,-3.818,-3.7517,-3.6961,-3.6611,-3.5948,-3.5435,-3.5379,-3.4854,-3.4352,-3.3819,-3.338,-3.2878,-3.2437,-3.2392,-3.2392,-3.2392,-3.2392,-3.2191,-3.1766,-3.1699,-3.1218,-3.0348,-3.0222,-2.9978,-2.9474,-2.8567,-2.7841,-2.7251,-2.6508,-2.5961,-2.5517,-2.5285,-2.52,-2.52,-2.5158,-2.5158,-2.5158,-2.5115,-2.5084,-2.5031,-2.5031,-2.4988,-2.5019,0.0,0.0,0.0,0.0,0.0,0.0,0.0,0.0,0.0,0.0,0.0,-3.3709,0.0,0.0,0.0,0.0,0.0,0.0,0.0,0.0,0.0,-3.6246,-3.5978,-3.5898,-3.5898,-3.5764,-3.571,-3.571,-3.571,-3.571,-3.571,-3.571,-3.5574,-3.5276,-3.4938,-3.4504,-3.4027,-3.3702,-3.3552,-3.3607,-3.4165,-3.4558,-3.4856,-3.5493,-3.5602,-3.5358,-3.5154,-3.4962,-3.4756,-3.4481,-3.4397,-3.4397,-3.4397,0.0,0.0,0.0,-3.5192,-3.5673,-3.6476,-3.7543,-3.8517,-3.8999,-3.9513,-3.9874,-3.9947,-4.0067,-4.0147,-3.9841,-3.9637,-3.9378,-3.9018,-3.8818,-3.8557,-3.8073,-3.7729,-3.7374,-3.6919,-3.6579,-3.6332,-3.6332,-3.5672,-3.5096,-3.4878,-3.4164,-3.36,-3.3431,-3.3408,-3.3408,-3.3408,-3.3093,-3.284,-3.2609,-3.1997,-3.148,-3.102,-3.0802,-3.0274,-2.9488,-2.863,-2.7901,-2.729,-2.6702,-2.6229,-2.5937,-2.5686,-2.5591,-2.5591,-2.5464,-2.5422,-2.5422,-2.5242,-2.52,-2.52,-2.52,-2.5285,-2.5422,0.0,0.0,0.0,0.0,0.0,0.0,0.0,0.0,0.0,0.0,0.0,0.0,0.0,0.0,0.0,0.0,0.0,0.0,0.0,0.0,0.0,-3.5978,-3.5804,-3.571,-3.571,-3.571,-3.571,-3.571,-3.571,-3.571,-3.571,-3.571,-3.571,-3.5696,-3.5209,-3.4924,-3.4761,-3.4328,-3.4138,-3.4179,-3.4612,-3.4965,-3.529,-3.5778,-3.5872,-3.5719,-3.5608,-3.5359,-3.5107,-3.4913,-3.4737,-3.462,-3.462,-3.4515,0.0,0.0,0.0,-3.5174,-3.6488,-3.7404,-3.8155,-3.8442,-3.9204,-3.9813,-3.955,-3.9812,-3.9988,-3.9635,-3.9443,-3.9299,-3.9092,-3.8847,-3.8563,-3.8202,-3.8088,-3.7904,-3.7512,-3.7346,-3.7299,-3.7169,-3.6341,-3.5738,-3.5596,-3.4781,-3.4261,-3.4261,-3.4261,-3.4201,-3.4071,-3.3705,-3.3314,-3.3007,-3.2217,-3.17,-3.1525,-3.1031,-3.0349,-2.9473,-2.8749,-2.802,-2.7352,-2.6896,-2.6561,-2.6354,-2.6104,-2.599,-2.5948,-2.577,-2.5696,-2.5644,-2.5464,-2.538,-2.538,-2.538,-2.5506,-2.5696,0.0,0.0,0.0,0.0,0.0,0.0,0.0,0.0,0.0,0.0,0.0,0.0,-3.3058,-3.3023,-3.2917,-3.2739,-3.3348,0.0,0.0,0.0,0.0,-3.5696,-3.571,0.0,-3.571,-3.571,-3.571,-3.571,-3.571,-3.571,-3.571,-3.571,-3.571,-3.571,-3.5683,-3.5317,-3.4788,-3.4761,-3.4748,-3.4748,-3.4788,-3.5506,-3.651,-3.6537,-3.6611,-3.6737,-3.6737,-3.6422,-3.6018,-3.6018,-3.5678,-3.5247,-3.5247,-3.4855,-3.4397,0.0,0.0,0.0,-3.6693,-3.7113,-3.742,-3.8498,-3.9003,-3.9234,-3.9234,-3.9307,-3.9332,-3.9308,-3.9047,-3.8838,-3.881,-3.8822,-3.881,-3.8785,-3.8563,-3.834,-3.8368,-3.8092,-3.7741,-3.7236,-3.6696,-3.6156,-3.5651,-3.5111,-3.4775,-3.4775,-3.4775,-3.4558,-3.4018,-3.3959,-3.3385,-3.2198,-3.2114,-3.1717,-3.1019,-3.0514,-2.9973,-2.939,-2.8645,-2.7997,-2.7476,-2.7056,-2.6891,-2.685,-2.6396,-2.6199,-2.6157,-2.599,-2.5895,-2.5895,-2.5853,-2.5853,-2.5853,-2.5853,-2.5853,-2.5895,0.0,0.0,0.0,0.0,0.0,0.0,0.0,0.0,0.0,0.0,0.0,0.0,0.0,-3.3456,-3.3463,-3.3628,-3.3762,0.0,0.0,0.0,0.0,-3.5087,-3.51,-3.5276,-3.571,-3.571,-3.5533,-3.51,-3.51,-3.491,-3.4531,-3.4531,-3.4531,-3.4572,-3.5331,-3.5601,-3.5358,-3.5358,-3.5358,-3.5385,-3.5818,-3.6212,-3.6646,-3.7053,-3.7028,-3.6817,-3.6817,-3.6501,-3.6109,-3.6109,-3.5979,-3.5757,-3.5404,-3.5155,-3.4894,-3.4515,-3.4786,-3.5245,-3.5592,-3.6515,-3.741,-3.7668,-3.8332,-3.9013,-3.9407,-3.9348,-3.9347,-3.9751,-3.9569,-3.9374,-3.9374,-3.9062,-3.8788,-3.8788,-3.8736,-3.8684,-3.8684,-3.8566,-3.8319,-3.7782,-3.7246,-3.6709,-3.6173,-3.5637,-3.532,-3.532,-3.532,-3.5088,-3.4552,-3.4198,-3.3628,-3.2852,-3.2455,-3.2099,-3.1641,-3.0981,-3.0326,-2.9633,-2.8892,-2.8239,-2.7748,-2.7412,-2.729,-2.7249,-2.6839,-2.6479,-2.6188,-2.6104,-2.6032,-2.5895,-2.5895,-2.5895,-2.5939,-2.6256,-2.6376,-2.642,0.0,0.0,0.0,0.0,0.0,0.0,0.0,0.0,-3.3466,-3.3326,0.0,0.0,0.0,0.0,-3.3888,-3.4058,-3.3984,-3.3869,-3.3831,-3.3831,-3.4062,-3.4578,-3.4604,-3.4819,-3.5291,-3.5305,-3.5047,-3.4504,-3.4504,-3.4287,-3.3908,-3.3908,-3.3908,-3.3948,-3.4734,-3.5195,-3.5385,-3.5628,-3.571,-3.5764,-3.6361,-3.6727,-3.6999,-3.7813,-3.793,-3.7723,-3.7878,-3.769,-3.7246,-3.705,-3.6854,-3.6606,-3.6057,-3.56,-3.5182,-3.458,-3.4685,-3.4995,-3.5007,-3.5859,-3.6832,-3.7012,-3.7745,-3.8499,-3.9038,-3.9124,-3.9232,-3.9829,-3.9804,-3.9714,-3.9904,-3.9633,-3.931,-3.9102,-3.9114,-3.9154,-3.9193,-3.9258,-3.8985,-3.8353,-3.7929,-3.7431,-3.6696,-3.6297,-3.6086,-3.6086,-3.6086,-3.5762,-3.5039,-3.4653,-3.4073,-3.3175,-3.2672,-3.23,-3.2125,-3.1277,-3.0574,-3.0001,-2.9035,-2.8361,-2.8002,-2.7644,-2.7522,-2.7482,-2.7138,-2.6768,-2.6396,-2.6271,-2.6203,-2.622,-2.6136,-2.6245,-2.642,-2.6834,-2.6954,-2.7042,0.0,0.0,0.0,0.0,0.0,0.0,0.0,0.0,-3.3333,-3.3347,0.0,0.0,0.0,0.0,0.0,-3.3935,-3.3935,-3.3844,-3.3729,-3.3677,-3.3829,-3.4193,-3.4206,0.0,-3.4485,-3.4485,-3.4308,-3.388,-3.388,-3.388,-3.3853,-3.3853,-3.3853,-3.3853,-3.388,-3.4219,-3.4802,-3.5398,-3.571,-3.5791,-3.6388,-3.7012,-3.7662,-3.8884,-3.937,-3.9475,-4.0087,-4.0015,-3.952,-3.8932,-3.8383,-3.7821,-3.7207,-3.6227,-3.5182,-3.4593,-3.441,-3.4528,0.0,0.0,0.0,-3.6698,-3.7235,-3.7635,-3.817,-3.8547,-3.8953,-3.9492,-3.9594,-3.9786,-4.0376,-4.0478,-4.0338,-3.9788,-3.9749,-3.9788,-4.0083,-4.0121,-3.9816,-3.8941,-3.8787,-3.8351,-3.7249,-3.7121,-3.7108,-3.7108,-3.7108,-3.6621,-3.5449,-3.536,-3.4659,-3.3149,-3.2649,-3.2431,-3.2407,-3.1361,-3.067,-3.036,-2.9125,-2.8431,-2.8219,-2.7725,-2.7522,-2.7534,-2.7324,-2.7131,-2.6937,-2.6429,-2.6528,-2.6906,-2.6724,-2.6922,-2.7359,-2.7613,-2.7712,-2.7767,0.0,0.0,0.0,0.0,0.0,-3.4916,-3.4711,-3.4683,-3.461,0.0,0.0,0.0,-3.467,-3.5026,-3.5098,-3.4585,-3.4427,-3.4134,-3.3678,-3.3496,-3.3646,-3.4193,-3.4206,-3.4286,-3.4485,-3.4485,-3.4106,-3.3308,-3.3308,-3.3091,-3.2671,-3.2671,-3.2671,-3.2684,-3.3118,-3.3634,-3.4192,-3.4788,-3.5574,-3.6402,-3.7026,-3.7851,-3.8898,-3.9658,-3.9989,-4.006,-4.0233,-4.0015,-3.9586,-3.9416,-3.8972,-3.8318,-3.7312,-3.6227,-3.526,-3.5103,-3.4737,-3.4437,-3.4607,0.0,0.0,0.0,0.0,0.0,-3.8348,-3.8523,-3.8604,-3.922,-3.9141,-3.9173,-3.9761,-3.9863,-3.9954,-4.0236,-4.03,-4.03,-4.0402,-4.0389,-4.0184,-3.9504,-3.9043,-3.8505,-3.7813,-3.7365,-3.7108,0.0,-3.7108,-3.6621,-3.5449,-3.4605,-3.396,-3.3569,-3.327,-3.2825,-3.2242,-3.1431,-3.068,-3.0029,-2.9132,-2.8685,-2.8605,-2.8207,-2.8086,-2.8286,-2.8103,-2.8061,-2.8137,-2.7476,-2.7411,-2.7784,-2.7708,-2.7743,-2.7942,-2.8355,-2.8489,-2.8589,0.0,0.0,0.0,0.0,0.0,-3.5484,-3.5231,-3.5115,-3.4966,0.0,0.0,0.0,-3.5298,-3.5546,-3.5534,-3.5075,-3.4928,-3.4566,-3.378,-3.3635,-3.3662,-3.3925,-3.4019,-3.406,-3.4005,-3.4084,-3.3648,-3.2721,-3.2721,-3.2544,-3.2218,-3.2277,-3.23,-3.2314,-3.2727,-3.342,-3.4216,-3.4428,-3.5329,-3.6659,-3.7241,-3.8247,-3.94,-4.0255,-4.0817,-4.1264,-4.1359,-4.1161,-4.0779,-4.0445,-3.9599,-3.8553,-3.7665,-3.675,-3.5966,-3.5704,-3.5378,-3.5103,-3.5103,-3.5365,-3.577,-3.6332,0.0,0.0,-3.8161,-3.8244,-3.8306,-3.8865,-3.8886,-3.8923,-3.9491,-3.9582,-3.9698,-4.0046,-4.0404,-4.0624,-4.0668,-4.0643,-4.0488,-4.007,-3.9573,-3.9051,-3.8506,-3.8015,-3.7723,-3.7723,-3.7488,-3.6818,-3.5543,-3.4555,-3.3937,-3.3852,-3.3641,-3.3162,-3.2353,-3.1729,-3.0932,-3.0063,-2.9309,-2.8882,-2.8803,-2.8606,-2.8626,-2.8757,-2.8659,-2.8831,-2.9129,-2.8626,-2.8455,-2.8508,-2.8431,-2.851,-2.8723,-2.9117,-2.9274,-2.9319,0.0,0.0,-3.681,-3.63,-3.6216,-3.6019,-3.547,-3.5176,-3.4988,0.0,-3.5171,-3.5447,-3.5845,-3.5873,-3.5791,-3.5601,-3.5546,-3.5101,-3.4136,-3.4056,-3.3948,-3.3692,-3.3882,-3.3767,-3.3315,-3.3496,-3.3149,-3.2218,-3.2218,-3.2218,-3.2205,-3.2359,-3.2417,-3.2453,-3.2701,-3.3477,-3.4609,-3.441,-3.527,-3.6782,-3.7311,-3.8285,-3.9617,-4.0703,-4.1707,-4.2623,-4.2961,-4.2924,-4.2567,-4.1634,-4.0239,-3.8789,-3.8187,-3.7586,-3.6985,-3.6384,-3.6162,-3.6109,-3.6109,-3.6109,-3.624,-3.6854,-3.6998,0.0,-3.7769,-3.79,-3.8044,-3.8514,-3.8619,-3.8802,-3.9403,-3.9507,-3.9581,-3.9634,-4.0272,-4.0798,-4.0865,-4.0995,-4.0926,-4.0537,-4.0141,-3.9717,-3.921,-3.8812,-3.8602,-3.8602,-3.8003,-3.7006,-3.568,-3.4892,-3.441,-3.416,-3.3937,-3.3376,-3.2609,-3.2059,-3.1299,-3.0256,-2.9483,-2.9077,-2.894,-2.9023,-2.9094,-2.9154,-2.923,-2.9494,-2.986,-2.9662,-2.9428,-2.9183,-2.9038,-2.9206,-2.9623,-2.9829,-2.9931,-3.0023,0.0,-3.7017,-3.695,-3.6824,-3.6796,-3.6768,-3.6694,-3.6462,-3.6281,-3.6124,-3.6223,-3.6538,-3.7065,-3.7007,-3.6893,-3.6851,-3.6497,-3.5989,-3.5323,-3.5128,-3.4792,-3.4267,-3.4502,-3.4231,-3.3328,-3.3496,-3.3149,-3.2218,-3.2218,-3.2277,-3.2359,-3.2381,-3.2489,-3.266,-3.3242,-3.3928,-3.4623,-3.5041,-3.6163,-3.7576,-3.7516,-3.8786,-4.0784,-4.1028,-4.1963,-4.3224,-4.3295,-4.3341,-4.3122,-4.1765,-4.0762,-3.9899,-3.888,-3.8174,-3.7612,-3.6998,-3.6488,-3.6109,-3.6109,-3.6109,-3.624,-3.6854,-3.6998,0.0,-3.7769,-3.79,-3.7926,-3.8031,-3.807,-3.8227,-3.8776,-3.9034,-3.9333,-3.9767,-4.0142,-4.0481,-4.0772,-4.1442,-4.1656,-4.1121,-4.055,-4.0,-3.9402,-3.8876,-3.8602,-3.8602,-3.7603,-3.6641,-3.5865,-3.5268,-3.4867,-3.4673,-3.4397,-3.3654,-3.2441,-3.199,-3.1229,-3.0124,-2.9598,-2.9458,-2.9702,-2.9557,-2.9737,-3.0181,-3.0052,-3.0162,-3.0427,-3.0168,-3.0021,-2.9976,-2.9942,-3.0,-3.008,-3.0125,-3.0273,-3.0487,-3.6978,-3.6978,-3.6978,-3.6978,-3.6978,-3.6954,-3.685,-3.6668,-3.6581,-3.6631,-3.6866,-3.7147,-3.7331,-3.7243,-3.7115,-3.6887,-3.6658,-3.6309,-3.589,-3.5486,-3.5211,-3.5023,-3.4956,-3.4632,-3.3912,-3.3799,-3.3398,-3.2653,-3.2414,-3.2322,-3.2417,-3.2596,-3.2891,-3.3304,-3.3759,-3.4464,-3.5356,-3.5572,-3.6635,-3.8131,-3.7796,-3.9054,-4.1123,-4.1123,-4.2127,-4.3611,-4.3758,-4.3661,-4.3333,-4.2284,-4.1241,-4.0318,-3.9743,-3.8985,-3.8253,-3.8103,-3.7624,-3.7195,-3.7298,-3.7342,-3.7421,-3.7725,-3.7701,0.0,0.0,-3.7559,-3.7377,-3.7063,-3.6998,-3.7135,-3.7513,-3.7701,-3.8034,-3.8707,-3.9255,-3.9747,-4.0254,-4.084,-4.1106,-4.0765,-4.0361,-3.9914,-3.9606,-3.9194,-3.8706,-3.8084,-3.748,-3.6699,-3.569,-3.5397,-3.5127,-3.4797,-3.4673,-3.4047,-3.2861,-3.251,-3.1886,-3.0939,-3.0451,-3.0279,-3.036,-3.0358,-3.0519,-3.0718,-3.0731,-3.0899,-3.1143,-3.0881,-3.0859,-3.0962,-3.0709,-3.0618,-3.0641,-3.1021,-3.124,-3.139,-3.6978,-3.6978,-3.6978,-3.6978,-3.6978,-3.6915,-3.6707,-3.6621,-3.6739,-3.7153,-3.7529,-3.775,-3.7698,-3.7719,-3.7554,-3.7188,-3.7113,-3.6919,-3.6462,-3.6044,-3.5725,-3.5597,-3.5374,-3.5007,-3.4499,-3.4103,-3.3647,-3.3125,-3.2645,-3.2453,-3.2525,-3.2846,-3.3344,-3.398,-3.4279,-3.5026,-3.6079,-3.6154,-3.7069,-3.8449,-3.8171,-3.9311,-4.1156,-4.111,-4.2222,-4.385,-4.4094,-4.3966,-4.3565,-4.2918,-4.1805,-4.0713,-4.0595,-3.9926,-3.9186,-3.9176,-3.8813,-3.8495,-3.8584,-3.8602,-3.8602,-3.8602,-3.8453,-3.8113,0.0,0.0,0.0,-3.6359,-3.6227,-3.6284,-3.6515,-3.6615,-3.686,-3.7483,-3.8202,-3.8791,-3.9303,-3.9604,-3.9881,-4.0228,-4.0026,-3.9828,-3.9707,-3.9456,-3.8817,-3.758,-3.7485,-3.6915,-3.5548,-3.548,-3.5277,-3.4921,-3.488,-3.4397,-3.3398,-3.314,-3.2598,-3.1858,-3.1411,-3.1145,-3.0937,-3.1144,-3.1174,-3.106,-3.1356,-3.1563,-3.177,-3.1657,-3.1716,-3.191,-3.14,-3.1192,-3.1297,-3.1925,-3.2206,-3.23,-3.6978,-3.6978,-3.6978,-3.6978,-3.6978,-3.6915,-3.6707,-3.6967,-3.7442,-3.8143,-3.8516,-3.8948,-3.9427,-3.9568,-3.958,-3.9532,-3.9336,-3.8836,-3.7769,-3.7639,-3.6996,-3.565,-3.5717,-3.5421,-3.4512,-3.4103,-3.3723,-3.327,-3.2682,-3.2596,-3.2917,-3.2988,-3.3443,-3.4181,-3.4801,-3.547,-3.6174,-3.7231,-3.7997,-3.8546,-3.8823,-3.9901,-4.136,-4.1156,-4.2222,-4.385,-4.4094,-4.4208,-4.4063,-4.3235,-4.2482,-4.183,-4.1276,-4.1023,-4.0704,-3.9728,-3.9428,-3.9255,-3.8749,-3.8602,-3.8602,-3.8602,-3.8557,-3.8411,-3.7781,0.0,-3.7475,-3.6851,0.0,-3.6731,-3.6774,0.0,0.0,-3.7252,-3.7477,-3.7673,-3.7741,-3.7808,-3.8387,-4.0015,-4.0182,-3.9938,-3.941,-3.9346,-3.8817,-3.758,-3.7485,-3.6957,-3.5737,-3.5669,-3.5562,-3.5358,-3.5154,-3.4683,-3.3831,-3.3439,-3.2868,-3.2085,-3.1818,-3.1621,-3.1424,-3.143,-3.1509,-3.1601,-3.1905,-3.2031,-3.2081,-3.2311,-3.2395,-3.2394,-3.21,-3.1983,-3.1983,-3.2324,-3.2629,-3.2817,-3.6978,-3.6978,-3.6978,-3.6978,-3.6875,-3.6747,-3.6563,-3.7043,-3.7794,-3.8776,-3.9231,-3.9597,-4.0047,-3.9986,-3.9846,-3.9729,-3.9647,-3.9403,-3.8932,-3.8392,-3.7851,-3.7347,-3.654,-3.6003,-3.571,-3.5042,-3.4369,-3.3817,-3.3445,-3.3193,-3.3002,-3.3471,-3.4096,-3.4801,-3.5456,-3.6061,-3.6694,-3.754,-3.8231,-3.8753,-3.8976,-4.0115,-4.1604,-4.1249,-4.2222,-4.3796,-4.3904,-4.3899,-4.3708,-4.3379,-4.2734,-4.2039,-4.1786,-4.1479,-4.1053,-4.0402,-3.9966,-3.9564,-3.911,-3.8993,-3.8993,-3.8993,-3.889,-3.8515,-3.7605,-3.7304,-3.6937,-3.6005,0.0,0.0,0.0,0.0,0.0,0.0,-3.6901,-3.7121,-3.7445,-3.7599,-3.7913,-3.8559,-3.864,0.0,-3.8301,-3.8347,-3.8022,-3.7053,-3.6999,-3.6619,-3.5764,-3.571,-3.5602,-3.5399,-3.5195,-3.4884,-3.4441,-3.3975,-3.3514,-3.3034,-3.2826,-3.252,-3.2191,-3.2087,-3.2164,-3.2321,-3.2325,-3.2598,-3.303,-3.3161,-3.3279,-3.3405,-3.3442,-3.3157,-3.2875,-3.342,-3.3779,-3.4019,-3.6978,-3.6978,-3.6978,-3.6978,-3.6811,-3.6714,-3.6793,-3.7316,-3.8163,-3.9297,-3.9747,-4.0128,-4.0638,-4.0562,-4.0539,-4.0527,-4.0396,-4.0288,-4.0179,-3.9399,-3.8852,-3.8706,-3.7611,-3.6884,-3.6619,-3.5829,-3.5166,-3.4536,-3.4113,-3.3706,-3.3324,-3.3942,-3.4562,-3.5217,-3.5836,-3.6539,-3.7274,-3.7906,-3.8538,-3.9184,-3.9548,-4.0603,-4.1925,-4.1684,-4.2507,-4.3805,-4.3628,-4.3534,-4.3458,-4.3346,-4.2847,-4.2324,-4.2324,-4.2043,-4.1587,-4.1174,-4.0641,-4.0094,-3.9667,-3.9427,-3.9305,-3.9305,-3.9145,-3.8701,-3.7542,-3.7144,-3.6655,-3.5477,-3.5277,0.0,0.0,0.0,-3.5656,-3.6252,0.0,-3.6606,-3.7069,-3.7276,-3.7468,-3.7558,-3.7655,-3.7697,0.0,-3.7796,-3.7578,-3.6729,-3.6688,-3.6375,-3.575,-3.571,-3.5642,-3.548,-3.5236,-3.5044,-3.488,-3.441,-3.4021,-3.3713,-3.3556,-3.3303,-3.2891,-3.2784,-3.2815,-3.3013,-3.3034,-3.331,-3.3792,-3.3935,-3.4112,-3.431,-3.4531,-3.4292,-3.391,-3.4436,-3.4726,-3.4932,-3.6978,-3.6978,-3.6978,-3.6978,-3.6811,-3.6952,-3.7633,-3.8104,-3.8729,-3.9648,-4.0087,-4.0603,-4.1561,-4.1944,-4.2355,-4.2866,-4.2409,-4.1999,-4.1634,-4.1041,-4.0171,-3.8944,-3.8854,-3.8108,-3.6632,-3.6265,-3.5823,-3.5347,-3.4381,-3.4002,-3.4175,-3.4189,-3.4562,-3.5217,-3.5836,-3.6778,-3.7906,-3.8566,-3.924,-3.9859,-4.0834,-4.1671,-4.241,-4.2712,-4.3226,-4.3737,-4.3118,-4.328,-4.3687,-4.3104,-4.29,0.0,0.0,-4.2873,-4.2738,-4.2141,-4.1557,-4.0947,-4.0323,-3.9739,-3.9305,-3.9305,-3.9292,-3.8993,-3.7756,-3.7485,-3.7147,-3.5927,-3.5669,-3.5669,-3.5669,-3.5669,-3.5683,-3.5696,-3.5939,0.0,0.0,-3.6301,-3.6794,-3.7687,-3.8019,-3.82,-3.82,-3.82,-3.7813,-3.6976,-3.688,-3.6538,-3.575,-3.571,-3.571,-3.5669,-3.5318,-3.5086,-3.5086,-3.4605,-3.4147,-3.3713,-3.367,-3.3622,-3.3461,-3.3461,-3.349,-3.3584,-3.4106,-3.4207,-3.403,-3.4546,-3.4763,-3.4775,-3.5078,-3.5163,-3.515,-3.5163,-3.5175,-3.5223,-3.6811,-3.6811,-3.6811,-3.6811,-3.6962,-3.7358,-3.8092,-3.8657,-3.9338,-4.0253,-4.0689,-4.1276,-4.2172,-4.2259,-4.2396,-4.2971,-4.306,-4.2859,-4.2343,-4.2033,-4.1553,-4.0723,-3.969,-3.8918,-3.8396,-3.7428,-3.6601,-3.6006,-3.5575,-3.4952,-3.4217,-3.4646,-3.4992,-3.5217,-3.5836,-3.6754,-3.7934,-3.8635,-3.9268,-3.9929,-4.1146,-4.1934,-4.2451,-4.2753,-4.3009,-4.3158,-4.2955,-4.3009,0.0,-4.2955,-4.2887,-4.2887,-4.2887,-4.2887,-4.2765,-4.2181,-4.1869,-4.1489,0.0,0.0,-4.0045,-3.9649,-3.9554,-3.9335,-3.856,-3.8197,-3.7851,-3.7038,-3.6592,-3.6307,-3.6307,-3.6116,-3.5938,-3.5938,-3.6152,-3.6286,0.0,-3.6484,-3.6781,-3.7237,-3.7226,-3.7174,-3.7013,-3.7133,-3.7036,-3.6588,-3.6454,-3.6401,-3.6498,-3.6008,-3.5886,-3.628,-3.5642,-3.5236,-3.5086,-3.4797,-3.4607,-3.4504,-3.4345,-3.4379,-3.4539,-3.4225,-3.4297,-3.4644,-3.4642,-3.5025,-3.5588,-3.5771,-3.61,-3.6467,-3.6529,-3.6579,-3.6493,-3.5733,-3.5572,-3.5812,-3.6881,-3.6922,-3.6922,-3.6922,-3.7399,-3.8018,-3.863,-3.9237,-3.9961,-4.0918,-4.1304,-4.1887,-4.2765,-4.2915,-4.3153,-4.3743,-4.386,-4.3711,-4.3192,-4.2958,-4.2506,-4.1781,-4.0583,-3.9798,-3.9452,-3.8445,-3.7564,-3.6747,-3.6543,-3.577,-3.4576,-3.5043,-3.5263,-3.5217,-3.5911,-3.6958,-3.8271,-3.8733,-3.938,-4.021,-4.1466,-4.2283,-4.2854,-4.2978,-4.2984,-4.2887,0.0,-4.2887,-4.2887,-4.2887,-4.2887,-4.2887,-4.2887,-4.2984,-4.295,-4.2569,-4.2358,-4.2057,-4.1046,-4.0727,0.0,-3.9969,-3.9818,-3.9653,-3.9021,-3.8755,-3.8462,-3.7862,-3.7425,-3.7112,-3.6907,-3.6688,-3.6453,-3.6233,-3.6365,-3.651,0.0,-3.6733,-3.685,-3.6978,-3.6889,-3.6747,-3.6628,-3.6733,-3.6707,-3.6524,-3.6405,-3.6493,-3.6893,-3.6402,-3.6389,-3.6904,-3.6357,-3.5907,-3.5698,-3.5502,-3.5335,-3.5227,-3.5097,-3.5142,-3.5377,-3.506,-3.5144,-3.5494,-3.5491,-3.5864,-3.6444,-3.6628,-3.6961,-3.7318,-3.7369,-3.7468,-3.7494,-3.664,-3.6526,-3.6925,-3.7234,-3.7331,-3.7345,-3.7345,-3.8087,-3.8844,-3.9295,-3.9848,-4.0556,-4.1483,-4.1905,-4.2498,-4.3345,-4.3979,-4.4573,-4.5181,-4.4957,-4.4594,-4.4289,-4.3748,-4.3062,-4.2141,-4.1503,-4.0713,-3.9809,-3.9355,-3.8671,-3.7627,-3.7251,-3.6427,-3.5189,-3.5337,-3.5323,-3.5212,-3.5981,-3.7282,-3.8818,-3.8888,-3.9606,-4.0898,-4.1826,-4.2768,-4.3559,-4.3362,-4.3108,-4.2854,-4.2833,-4.2846,-4.2833,-4.2806,-4.2867,-4.2895,-4.2895,-4.3101,-4.3307,-4.3307,-4.3099,-4.2694,-4.1984,-4.1377,-4.0797,-4.0161,-4.0009,0.0,0.0,-3.9139,-3.8974,-3.8407,-3.8269,-3.8062,-3.7454,-3.7316,-3.7095,-3.6502,-3.6589,-3.6786,-3.6993,-3.6978,-3.6978,-3.6978,-3.6978,-3.6978,-3.6978,-3.6978,-3.6915,-3.6707,-3.6721,-3.6773,-3.6976,-3.6948,-3.7098,-3.7555,-3.7342,-3.7102,-3.6817,-3.6615,-3.6323,-3.5898,-3.5854,-3.5884,-3.5968,-3.6006,-3.6045,-3.6125,-3.6648,-3.675,-3.6591,-3.7146,-3.743,-3.7505,-3.768,-3.7941,-3.8165,-3.7829,-3.8002,-3.8519,-3.7648,-3.7891,-3.8133,-3.8133,-3.8306,-3.8806,-3.9807,-4.0485,-4.1044,-4.1537,-4.2449,-4.3239,-4.3641,-4.4239,-4.4824,-4.5435,-4.5608,-4.5431,-4.4893,-4.4533,-4.4072,-4.3348,-4.2522,-4.1734,-4.0968,-4.0385,-3.9493,-3.8281,-3.7856,-3.6796,-3.5189,-3.5337,-3.5133,-3.4723,-3.5382,-3.6429,-3.7777,-3.8549,-4.0154,-4.2121,-4.2175,-4.2624,-4.3199,0.0,-4.2516,-4.2093,-4.2215,-4.2236,-4.2202,-4.1881,-4.2125,-4.2555,-4.2697,-4.3127,-4.3519,-4.3519,-4.3456,-4.3144,-4.2095,-4.1844,-4.1619,-4.0562,-4.0298,-4.0257,0.0,0.0,0.0,-3.9568,-3.9181,-3.8684,-3.8076,-3.7702,-3.7323,-3.674,-3.6772,-3.6954,-3.6978,-3.6978,-3.6978,-3.6978,-3.6978,-3.6978,-3.6978,-3.6978,-3.6993,-3.6915,-3.6786,-3.7101,-3.802,0.0,-3.7372,-3.841,-3.7801,-3.7315,-3.7102,-3.683,-3.6826,-3.698,-3.6597,-3.6658,-3.7114,-3.7352,-3.7479,-3.7515,-3.7868,-3.8336,-3.884,-3.8793,-3.9146,-3.9664,-3.9753,-3.9816,-3.9765,-3.8861,-3.8702,-3.9043,-3.801,-3.8687,-3.9197,-3.9197,-3.9414,-3.9821,-4.0485,-4.111,-4.1754,-4.245,-4.3233,-4.3939,-4.4298,-4.4886,-4.5433,-4.5728,-4.602,-4.5828,-4.4978,-4.478,-4.4362,-4.3612,-4.2828,-4.2175,-4.1741,-4.1144,-4.0093,-3.8656,-3.8455,-3.7271,-3.53,-3.5461,-3.5208,-3.4676,-3.525,-3.6179,-3.7402,-3.8744,-4.0378,-4.2163,-4.1971,-4.2258,0.0,-4.2542,-4.2196,-4.1769,-4.1594,-4.1707,-4.1885,-4.1668,-4.1837,-4.2172,-4.2265,-4.2625,-4.2981,-4.2981,-4.3074,-4.2944,-4.1984,-4.1823,-4.1702,-4.0752,-4.0515,-4.0515,-4.0515,-4.04,-4.03,0.0,-4.0035,-3.9604,0.0,-3.8503,-3.7872,-3.7004,-3.6993,-3.7148,-3.7148,-3.7226,-3.7264,-3.7264,-3.7264,-3.7264,-3.7264,-3.7109,-3.6978,-3.6978,-3.6889,-3.7316,0.0,0.0,-3.8116,-3.9168,-3.8708,-3.8315,-3.794,-3.7796,-3.775,-3.7751,-3.7455,-3.7528,-3.7881,-3.8075,-3.8251,-3.8364,-3.8794,-3.9265,-3.9734,-3.9789,-4.0083,-4.0504,-4.0757,-4.0858,-4.0781,-4.0405,-4.0171,-4.0184,-3.8654,-3.9604,-4.0309,-4.0309,-4.0825,-4.1232,-4.1232,-4.1666,-4.2426,-4.3669,-4.4047,-4.4488,-4.5079,-4.5723,-4.6073,-4.6073,-4.6282,-4.5926,-4.4895,-4.4678,-4.4257,-4.3437,-4.2916,-4.2458,-4.2224,-4.1739,-4.0612,-3.8902,-3.8902,-3.7676,-3.5373,-3.5608,-3.5346,-3.469,-3.5403,-3.639,-3.7618,-3.9056,-4.0407,-4.1615,-4.1615,-4.1819,-4.213,-4.213,-4.1907,-4.1574,-4.1065,-4.1228,-4.1663,-4.1639,-4.1667,-4.1736,-4.1781,-4.2004,-4.2255,-4.2255,-4.2404,-4.2444,-4.1783,-4.1615,-4.146,-4.0885,-4.073,-4.073,-4.0787,-4.0773,-4.073,-4.0787,-4.0773,-4.0548,-3.9985,-3.9336,-3.8505,-3.7405,-3.7268,-3.7341,-3.7341,-3.7495,-3.7625,-3.7625,-3.7625,0.0,-3.7625,-3.7264,-3.707,-3.7017,-3.7017,0.0,0.0,0.0,-3.8893,-3.9747,-3.9744,-3.9496,-3.9011,0.0,-3.8724,-3.841,-3.8364,-3.8451,-3.8605,-3.8683,-3.8825,-3.9025,-3.9616,-3.9923,-4.0011,-4.045,-4.0656,-4.0757,-4.1211,-4.1411,-4.1461,-4.198,-4.1895,-4.156,-4.0526,-4.0811,-4.0947,-4.0947,-4.1449,-4.1842,-4.1842,-4.1937,-4.2426,-4.3669,-4.4261,-4.482,-4.5468,-4.6064,-4.6416,-4.6416,-4.6021,-4.5655,-4.5451,-4.4716,-4.4223,-4.4053,-4.3835,-4.3259,-4.2238,-4.2292,-4.1206,-3.8902,-3.8902,-3.7636,-3.5226,-3.5571,-3.5103,-3.4111,-3.5218,-3.6798,-3.8647,-3.893,-4.0027,-4.1615,-4.1615,-4.1641,-4.1695,-4.1695,-4.1387,-4.0881,-4.0769,-4.0856,-4.1035,-4.0741,-4.0965,-4.1413,-4.1563,-4.206,-4.2539,-4.2539,-4.2584,-4.2444,-4.1783,-4.1615,-4.1504,-4.1042,-4.0958,-4.1015,-4.1213,-4.1114,-4.1015,-4.1213,-4.1114,-4.0816,-4.0443,0.0,-3.8574,-3.8346,-3.7876,-3.7534,-3.7534,-3.7586,-3.7625,-3.7625,-3.7625,-3.7625,-3.7625,-3.7534,-3.7419,-3.7264,-3.7264,-3.7698,0.0,0.0,-3.9061,0.0,-3.992,0.0,0.0,0.0,-3.9118,-3.9537,-3.9354,-3.9442,-3.9741,-4.0167,-4.0284,-4.0145,-4.0532,-4.0941,-4.1353,-4.1222,-4.1398,-4.1832,-4.1931,-4.198,-4.2029,-4.2582,-4.2693,-4.2644,-4.1055,-4.1367,-4.1584,-4.1584,-4.2073,-4.2466,-4.2466,-4.2466,-4.2887,-4.4108,-4.4786,-4.5397,-4.598,-4.6035,-4.6007,-4.6007,-4.5478,-4.5054,-4.4893,-4.4433,-4.4165,-4.4125,-4.4046,-4.351,-4.2418,-4.2539,-4.1362,-3.8902,-3.8902,-3.7676,-3.53,-3.5461,-3.511,-3.4425,-3.5573,-3.7109,-3.8902,0.0,0.0,-4.1137,-4.1137,-4.1137,-4.1137,-4.1137,-4.0955,-4.0702,-4.0702,-4.0755,-4.0791,-4.0598,-4.074,-4.1035,-4.1094,-4.1348,-4.1601,-4.1601,-4.1688,-4.1691,-4.1367,-4.1396,-4.1454,-4.1284,-4.1198,-4.1241,-4.1396,-4.1297,-4.1241,-4.1396,-4.1297,-4.1056,-4.0581,-4.0008,0.0,-3.9136,-3.886,-3.8753,-3.8753,-3.8558,-3.8419,-3.8419,-3.8117,-3.7915,-3.7915,-3.7915,-3.7801,-3.7457,-3.7457,-3.7934,0.0,0.0,-3.9326,0.0,0.0,0.0,0.0,0.0,0.0,-3.979,-3.9698,-3.9981,-4.0609,-4.09,-4.1081,-4.1274,-4.1452,-4.1683,-4.1881,-4.1796,-4.1881,-4.2128,-4.2435,-4.2533,-4.2582,-4.3101,-4.3245,-4.3245,-4.1476,-4.1869,-4.2195,-4.2195,-4.2575,-4.2887,-4.2887,-4.2995,-4.3416,-4.4379,-4.4908,-4.5438,-4.6035,-4.5682,-4.5448,-4.5499,-4.4955,-4.4511,-4.428,-4.4178,-4.4132,-4.4001,-4.4035,-4.3603,-4.2612,-4.2584,-4.1476,-3.9099,-3.8972,-3.7802,-3.5732,-3.5642,-3.5427,-3.5196,0.0,0.0,0.0,0.0,-3.969,-4.0702,-4.0702,-4.0702,-4.0702,-4.0702,-4.0617,-4.0505,-4.0505,-4.0421,-4.0308,-4.0308,-4.0491,-4.0702,-4.0702,-4.073,-4.0773,-4.0773,-4.0944,-4.11,-4.11,-4.1241,-4.1396,-4.1438,-4.1465,-4.148,-4.1522,-4.1522,-4.148,-4.1522,-4.1564,-4.142,-4.0933,-4.0718,0.0,0.0,-3.9902,-3.9935,-3.9935,-3.9557,-3.9266,-3.9266,-3.8647,-3.8202,-3.8202,-3.8202,-3.8052,-3.7763,-3.7687,-3.8129,-3.9211,0.0,0.0,0.0,0.0,-4.0225,-3.9832,0.0,-4.0031,-4.0148,-4.0283,-4.0763,-4.1496,-4.1496,-4.1701,-4.2079,-4.2177,-4.2226,-4.2373,-4.2409,-4.2409,-4.2457,-4.286,-4.3067,-4.3115,-4.3566,-4.3757,-4.379,-4.2616,-4.2765,-4.2806,-4.2806,-4.2846,-4.2887,-4.2887,-4.3335,-4.3777,-4.385,-4.3954,-4.4176,-4.48,-4.4827,-4.4887,-4.5139,-4.4592,-4.4308,-4.4456,-4.4186,-4.3996,-4.3988,-4.4223,-4.3788,-4.2612,-4.2584,-4.1629,-3.9704,-3.9183,-3.8199,-3.6835,-3.6476,-3.6292,0.0,0.0,0.0,0.0,-3.9493,-4.0083,-4.0702,-4.0702,-4.0702,-4.0702,-4.0702,-4.035,-3.9859,-3.9859,-3.9549,-3.9085,-3.9085,-3.9788,-4.0702,-4.0702,-4.0816,-4.0958,-4.0958,-4.1156,-4.1354,-4.1354,-4.1396,-4.1423,-4.1619,-4.166,-4.1758,-4.1968,-4.1856,-4.1758,-4.1995,-4.2009,-4.2036,-4.1978,-4.1456,-4.1036,0.0,-4.0644,-4.0437,-4.0437,-3.9867,-3.9481,-3.9481,-3.8708,-3.8202,-3.8202,-3.8202,-3.8165,-3.8165,-3.7953,-3.8322,0.0,0.0,0.0,-4.093,0.0,-4.0399,-4.0312,-4.065,-4.0935,-4.1264,-4.1885,-4.2215,-4.2368,-4.2368,-4.2297,-4.2128,-4.2351,-4.2741,-4.3211,-4.3375,-4.3457,-4.3457,-4.3505,-4.3553,-4.3614,-4.4115,-4.4317,-4.4411,-4.2833,-4.2887,-4.2887,-4.2887,-4.2887,-4.2887,-4.2887,-4.309,-4.324,-4.324,-4.3877,-4.442,-4.4678,-4.4529,-4.4425,-4.4573,-4.4131,-4.3953,-4.4192,-4.4065,-4.4082,-4.4223,-4.4013,-4.3455,-4.2598,-4.2205,-4.1278,-3.9788,-3.9211,-3.8255,-3.6978,-3.6475,0.0,0.0,0.0,-3.8112,-3.8944,-3.9563,-4.014,-4.0702,-4.0702,-4.0477,-4.0154,-4.0154,-3.9774,-3.9282,-3.9282,-3.9113,-3.8902,-3.9039,-3.9562,-4.0196,-4.0322,-4.0633,-4.1043,-4.1198,-4.1409,-4.1577,-4.1577,-4.1689,-4.1829,-4.1912,-4.1939,-4.1953,-4.2092,-4.1995,-4.1953,-4.2092,-4.2216,-4.2284,-4.2284,-4.2173,-4.2063,-4.2063,0.0,-4.1817,-4.1817,-4.0906,-4.0297,-4.0297,-3.9243,-3.856,-3.856,-3.8927,-3.9176,-3.9176,-3.885,-3.8957,0.0,0.0,0.0,-4.1226,0.0,-4.0702,-4.0587,-4.094,-4.1315,-4.1622,-4.2301,-4.2826,-4.3149,-4.3149,-4.3088,-4.2991,-4.3088,-4.3293,-4.3471,-4.3553,-4.3709,-4.3865,-4.4007,-4.4195,-4.435,-4.4723,-4.4815,-4.4862,-4.2887,-4.2887,-4.2887,-4.2887,-4.2887,-4.2887,-4.2887,-4.2887,-4.2887,-4.2887,-4.3633,-4.4226,-4.4262,-4.4092,-4.3979,-4.4125,-4.3725,-4.3554,-4.3864,-4.3696,-4.3678,-4.3877,-4.3455,-4.2935,-4.2317,-4.1854,-4.1109,-4.0041,-3.9479,-3.8719,-3.7793,0.0,0.0,0.0,-3.799,-3.8707,-3.9211,-3.9788,-4.0196,-4.0435,-4.0435,-4.0055,-3.9563,-3.9563,-3.9169,-3.8635,-3.8635,-3.8549,-3.8434,-3.8595,-3.8979,-3.9475,-3.9837,-4.0389,-4.0956,-4.1166,-4.1504,-4.1841,-4.1841,-4.1953,-4.2092,-4.2092,-4.2092,-4.2092,-4.2092,-4.2133,-4.2201,-4.2242,-4.2392,-4.2514,-4.2514,-4.2622,-4.2688,-4.2688,0.0,-4.2809,-4.2809,-4.1701,-4.0888,-4.0888,-3.963,-3.887,-3.9062,-3.9519,-3.9887,-4.0064,-4.0002,-4.0022,0.0,0.0,0.0,0.0,0.0,0.0,0.0,-4.1725,-4.2119,-4.2324,-4.2902,-4.3308,-4.36,-4.36,-4.3695,-4.3851,-4.3851,-4.3885,-4.4026,-4.4026,-4.4134,-4.435,-4.4537,-4.4723,-4.4922,-4.5138,-4.5261,-4.5353,-4.2887,-4.2887,-4.2887,-4.2887,-4.2887,-4.2887,-4.2887,-4.2887,-4.2887,-4.2887,-4.29,-4.2997,-4.33,-4.3335,-4.3526,-4.394,-4.3445,-4.3222,-4.3512,-4.2935,-4.2612,-4.2598,-4.2584,-4.2289,-4.1643,-4.1615,-4.1306,-4.0688,-4.0069,-3.976,-3.9732,0.0,-3.8874,-3.8902,-3.9479,-3.976,-3.9816,-4.0421,-4.0336,-3.9788,-3.9788,-3.9465,-3.8916,-3.8916,-3.8482,-3.7906,-3.7906,-3.7645,-3.7331,-3.7317,-3.7859,-3.8642,-3.9299,-4.0103,-4.0824,-4.0824,-4.1435,-4.2092,-4.2092,-4.2092,-4.2092,-4.2092,-4.2092,-4.2092,-4.2092,-4.2242,-4.2474,-4.2648,-4.2688,-4.2688,-4.2688,-4.2688,-4.2688,-4.2688,0.0,0.0,-4.2981,-4.1896,-4.1095,-4.1095,-3.9757,-3.9047,-3.9725,-3.9799,-4.0064,-4.0752,-4.1347,0.0,0.0,0.0,0.0,-4.1673,-4.2081,0.0,-4.2267,-4.3257,-4.3684,-4.3497,-4.3822,-4.3865,-4.36,-4.36,-4.3899,-4.4411,-4.4411,-4.463,-4.5078,-4.5078,-4.5078,-4.5078,-4.5078,-4.5078,-4.5124,-4.5413,-4.564,-4.5925,-4.2887,-4.2887,-4.2887,-4.2887,-4.2887,-4.2887,-4.2887,-4.2887,-4.2887,-4.2887,-4.2887,-4.2882,-4.2887,-4.3237,-4.3462,-4.3403,-4.338,-4.3223,-4.2907,-4.2697,-4.2584,-4.2584,-4.2163,-4.1826,-4.1615,-4.1207,-4.0898,-4.0702,0.0,0.0,0.0,-3.9,-3.8902,-3.8944,-3.9549,-3.9591,-3.924,-3.9816,-3.9718,-3.9197,-3.9197,-3.8818,-3.8241,-3.8375,-3.802,-3.7508,-3.7639,-3.7628,-3.7534,-3.7663,-3.7868,-3.8146,-3.8501,-3.9308,-4.0173,-4.0278,-4.0528,-4.0728,-4.0728,-4.0728,-4.0844,-4.1294,-4.1424,-4.1567,-4.2181,-4.2474,-4.2607,-4.2688,-4.2795,-4.2915,-4.2915,-4.301,-4.309,-4.309,-4.317,0.0,-4.2652,-4.1846,-4.1308,-4.1308,-4.0457,-4.0152,-4.0807,-4.1322,-4.1665,-4.1873,0.0,0.0,0.0,0.0,0.0,0.0,-4.3041,0.0,-4.3185,-4.3767,-4.406,-4.3984,-4.4503,-4.4709,-4.4602,-4.4602,-4.4709,-4.4894,-4.4894,-4.494,-4.5124,-4.5124,-4.5216,-4.5367,-4.5367,-4.558,-4.5851,-4.5956,-4.6135,-4.6373,-4.2887,-4.2887,-4.2887,-4.2887,-4.2887,-4.2887,-4.2887,-4.2887,-4.2887,-4.2887,-4.2887,-4.2801,-4.2626,-4.2968,0.0,-4.2928,-4.2845,-4.2626,-4.2247,-4.1994,-4.1868,-4.1868,-4.1488,-4.1264,-4.1264,-4.0898,0.0,-4.0702,-4.0308,-3.9929,-3.9605,-3.9605,-3.9479,-3.9268,-3.9606,-3.9479,-3.893,-3.931,-3.9113,-3.855,-3.8631,-3.8251,-3.7687,-3.7884,-3.7721,-3.7419,-3.7534,-3.7663,-3.7739,-3.7853,-3.7967,-3.8028,-3.8165,-3.8678,-3.9256,-3.9644,-3.9915,-4.0104,-4.0104,-4.0104,-4.0191,-4.0612,-4.0768,-4.1102,-4.2027,-4.2375,-4.2514,-4.2845,-4.305,-4.3115,-4.3115,-4.321,-4.3329,-4.3423,-4.3463,-4.3277,-4.2694,-4.2281,-4.1934,-4.1641,-4.125,-4.125,0.0,-4.2386,-4.2732,0.0,0.0,0.0,0.0,0.0,0.0,-4.3835,-4.418,0.0,-4.4255,-4.4627,-4.4778,-4.4688,-4.4741,-4.4652,-4.4379,-4.4379,-4.4424,-4.4514,-4.4514,-4.4604,-4.4694,-4.4784,-4.5062,-4.5414,-4.5518,-4.5886,-4.6358,-4.6358,-4.6491,-4.6712,-4.2833,-4.286,-4.2887,0.0,-4.2887,0.0,-4.2887,-4.2887,-4.2887,-4.2887,-4.2846,-4.2698,-4.2383,-4.2461,-4.2523,-4.2455,0.0,0.0,0.0,-4.1011,-4.0702,-4.0702,-4.0702,-4.0702,-4.0702,-4.0702,-4.0702,-4.0702,-4.0702,-4.0702,-4.0702,-4.0659,-4.0336,-3.9788,-3.9746,-3.9422,-3.8846,-3.8846,-3.8466,-3.7875,-3.8048,-3.7813,-3.7303,-3.7534,-3.7625,-3.7625,-3.7663,-3.7777,-3.7929,-3.7929,-3.8043,-3.8202,-3.8202,-3.8202,-3.8318,-3.8942,-3.9523,-3.9958,-3.9958,-3.9958,-3.9973,-4.0056,-4.0271,-4.071,-4.169,-4.1986,-4.2272,-4.3056,-4.326,-4.329,-4.329,-4.3329,-4.3423,-4.3651,-4.3729,-4.3566,-4.3092,-4.2986,-4.2758,-4.2136,0.0,0.0,-4.2986,-4.3062,-4.3335,0.0,0.0,0.0,0.0,0.0,-4.4199,-4.4765,-4.537,-4.5564,-4.5376,-4.5754,-4.5806,-4.5477,-4.4692,-4.3956,-4.3297,-4.3297,-4.3428,-4.3661,-4.3661,-4.3806,-4.408,-4.4223,-4.4702,-4.5288,-4.5476,-4.5961,-4.658,-4.658,-4.6726,-4.696,0.0,0.0,-4.2887,-4.2887,-4.2887,-4.2887,-4.2887,-4.2887,-4.2887,-4.2887,-4.2493,-4.2073,-4.168,-4.143,-4.1235,-4.0916,-4.1359,-4.1404,-4.094,-4.0786,-4.0702,-4.0702,-4.0702,-4.0702,-4.0702,-4.0702,-4.0702,-4.0702,-4.0702,-4.0702,-4.0688,-4.0224,-3.9929,-3.976,-3.9338,-3.8735,-3.8131,-3.8131,-3.7765,-3.7242,-3.7438,-3.743,-3.7341,-3.7701,-3.7815,-3.7853,-3.7991,-3.8104,-3.8127,-3.8127,-3.8165,-3.8202,-3.8202,-3.8202,-3.8231,-3.8391,-3.8536,-3.8652,-3.8652,-3.8652,-3.8806,-3.9492,-4.0274,-4.1009,-4.1249,-4.1844,-4.2363,-4.2566,-4.2985,-4.329,-4.329,-4.3463,-4.3636,-4.369,-4.3847,-4.3721,-4.3077,-4.2986,-4.2925,0.0,-4.2758,-4.3016,-4.3684,-4.3745,-4.4018,0.0,0.0,0.0,0.0,-4.6286,-4.6085,-4.5715,-4.6121,-4.6359,-4.627,-4.6388,-4.6123,-4.5581,-4.5391,-4.4923,-4.4279,-4.4279,-4.4322,-4.4364,-4.4364,-4.4407,-4.4449,-4.4492,-4.4623,-4.477,-4.4812,-4.5368,-4.6132,-4.6132,-4.6703,-4.7452,-4.1598,-4.1856,-4.2086,-4.2086,-4.2086,-4.2086,-4.2086,-4.2086,-4.2086,-4.2086,-4.1802,-4.14,-4.0913,-4.0799,-4.0642,-4.0253,-4.0794,-4.1053,-4.0716,-4.0702,-4.0702,-4.0702,-4.0702,-4.0702,-4.0702,-4.0702,-4.0702,-4.0702,-4.0702,-4.0561,-4.0266,-3.9929,-3.9479,-3.8903,-3.8566,-3.8074,-3.7484,-3.7484,-3.7288,-3.7017,-3.7303,-3.7419,-3.7457,-3.7877,-3.8028,-3.8066,-3.8165,-3.8202,-3.8202,-3.8202,-3.8202,-3.8202,-3.8202,-3.8202,-3.8202,-3.8202,-3.8202,-3.8202,-3.8202,-3.8277,-3.8477,-3.9164,-3.9757,-4.03,-4.0688,-4.1144,-4.1677,-4.2276,-4.2641,-4.3024,-4.3418,-4.3596,-4.3769,-4.3949,-4.4065,-4.3937,-4.3342,-4.3548,-4.3624,-4.3318,-4.3548,-4.3884,-4.4251,-4.4557,-4.4893,-4.526,-4.5776,0.0,-4.7098,-4.735,-4.7223,-4.6728,-4.6927,-4.6931,-4.6756,-4.6343,-4.5828,-4.5122,-4.4842,-4.4398,-4.3735,-4.3735,-4.3735,-4.3735,-4.3735,-4.3735,-4.3735,-4.3844,-4.4036,-4.4302,-4.4427,-4.4968,-4.5734,-4.6117,-4.6644,-4.7202,-4.0987,-4.1055,-4.1123,-4.1123,-4.1123,-4.1123,-4.1123,-4.1123,-4.1123,-4.1123,-4.1042,-4.077,-4.0241,-4.0359,-4.0337,-3.9963,-4.0357,-4.0616,-4.0702,-4.0702,-4.0702,-4.0702,-4.0702,-4.0702,-4.0702,-4.0702,-4.0659,-4.0561,-4.0561,-4.0252,-3.9634,-3.955,-3.8931,-3.7906,-3.7793,-3.747,-3.6978,-3.6978,-3.6978,-3.7017,-3.7419,-3.7625,-3.7649,-3.8052,-3.8202,-3.8202,-3.8202,-3.8202,-3.8202,-3.8202,-3.8202,-3.8202,-3.8202,-3.8202,-3.8202,-3.8202,-3.8202,-3.8202,-3.8202,-3.8352,-3.8627,-3.8995,-3.9104,-3.9326,-4.0076,-4.0337,-4.0711,-4.1871,-4.2261,-4.2653,-4.3395,-4.3654,-4.3871,-4.4243,-4.432,-4.4197,-4.3802,0.0,-4.4409,-4.3824,-4.4255,-4.4656,-4.4764,-4.5249,-4.5664,-4.588,-4.6705,-4.7267,-4.7318,-4.7611,-4.7661,-4.7407,-4.7561,-4.7392,-4.6855,-4.6104,-4.5367,-4.4541,-4.4039,-4.3434,-4.2809,-4.2809,-4.2809,-4.2809,-4.2809,-4.2809,-4.2809,-4.3036,-4.3418,-4.3979,-4.4167,-4.4653,-4.5353,-4.6207,-4.6592,-4.6815,-4.0291,-4.0757,-4.1123,-4.1123,-4.1123,-4.1123,-4.1123,-4.1123,-4.1123,-4.1123,-4.0662,-4.0296,-4.0201,-3.999,-3.9796,-3.9744,-3.9966,-4.0257,-4.0659,-4.0702,-4.0702,-4.0702,-4.0702,-4.0702,-4.0702,-4.0702,-4.0449,-3.9929,-3.9929,-3.9606,-3.9043,-3.8454,-3.8088,-3.7878,-3.7358,-3.7077,-3.6978,-3.6978,-3.6978,-3.7017,-3.7419,-3.7625,-3.7649,-3.8052,-3.8202,-3.8202,-3.8202,-3.8202,-3.8202,-3.8202,-3.8202,-3.8202,-3.8202,-3.8202,-3.8202,-3.8202,-3.8202,-3.8202,-3.8202,-3.8464,-3.8797,-3.9031,-3.9228,-3.9403,-3.9508,-3.9993,-4.0457,-4.0666,-4.1632,-4.2479,-4.2793,-4.3454,-4.4026,-4.4243,-4.4435,-4.4541,-4.4471,0.0,-4.4579,-4.4471,-4.4548,-4.4803,-4.5372,-4.5526,-4.6065,-4.7204,-4.6917,-4.6963,-4.7532,-4.7092,-4.6711,-4.6524,-4.7414,-4.7507,-4.668,-4.6518,-4.5747,-4.4344,-4.424,-4.3852,-4.321,-4.321,-4.321,-4.321,-4.321,-4.321,-4.321,-4.3478,-4.3657,-4.3762,-4.3983,-4.447,-4.5137,-4.5829,-4.6559,-4.7287,-3.946,-3.9839,-4.0146,-4.0146,-4.0146,-4.0146,-4.0146,-4.0146,-4.0146,-4.0146,-3.9888,-3.9712,-3.9712,-3.9571,-3.9554,-3.97,-3.9774,-3.998,-4.03,-4.0457,-4.0587,-4.0702,-4.0702,-4.0702,-4.0702,-4.0702,-4.0393,-3.9788,-3.9788,-3.9283,-3.8341,-3.8032,-3.7723,-3.7386,-3.7105,-3.6978,-3.6978,-3.6978,-3.6978,-3.7017,-3.7303,-3.7495,-3.761,-3.7915,-3.8104,-3.8202,-3.8202,-3.8202,-3.8202,-3.8202,-3.8202,-3.8202,-3.8202,-3.8202,-3.8202,-3.8202,-3.8277,-3.8404,-3.8486,-3.8723,-3.9017,-3.9228,-3.9337,-3.9388,-3.9388,-3.9649,-3.9963,-4.0337,-4.0988,-4.1784,-4.2674,-4.3282,-4.3831,-4.4373,-4.4549,0.0,0.0,-4.461,-4.461,-4.461,-4.491,-4.5249,-4.5557,-4.5911,-4.6388,-4.7004,-4.6773,-4.6742,-4.705,-4.6757,-4.6564,-4.6484,-4.6732,-4.6652,-4.6252,-4.5889,-4.5364,-4.468,-4.4333,-4.4001,-4.366,-4.366,-4.366,-4.366,-4.366,-4.366,-4.3699,-4.3793,-4.3871,-4.3871,-4.3949,-4.417,-4.4573,-4.5346,-4.6097,-4.689,-3.8832,-3.9011,-3.9203,-3.9203,-3.9247,-3.9305,-3.9305,-3.9305,-3.9305,-3.9305,-3.9305,-3.9305,-3.9305,-3.9305,-3.9394,-3.9598,-3.9598,-3.9686,-3.9922,-4.0124,-4.0342,-4.063,-4.0659,-4.0702,-4.0702,-4.0702,-4.0336,-3.9564,-3.9564,-3.8917,-3.7681,-3.7681,-3.7428,-3.6978,-3.6978,-3.6978,-3.6978,-3.6978,-3.6978,-3.7017,-3.7226,-3.738,-3.7572,-3.7815,-3.8005,-3.8127,-3.8165,-3.8202,-3.8202,-3.8202,-3.8202,-3.8202,-3.8202,-3.8202,-3.8202,-3.8202,-3.8389,-3.8612,-3.876,-3.8943,-3.9141,-3.9337,-3.9388,-3.9388,-3.9388,-3.9388,-3.9574,-4.0068,-4.0596,-4.1293,-4.2523,-4.319,-4.3761,-4.4495,0.0,0.0,0.0,-4.461,-4.461,-4.461,-4.5172,-4.5588,-4.5588,-4.6203,-4.6603,-4.6603,-4.6449,-4.6357,-4.6357,-4.6219,-4.6126,-4.6126,-4.6076,-4.5966,-4.5773,-4.5312,-4.4978,-4.4747,-4.423,-4.3988,-4.3988,-4.3988,-4.3988,-4.3988,-4.3988,-4.3988,-4.3988,-4.4065,-4.4065,-4.405,-4.4127,-4.4127,-4.4257,-4.5108,-4.5769,-4.6361,-3.8544,-3.88,-3.8908,-3.8908,-3.9145,-3.9305,-3.9305,-3.9305,-3.9305,-3.9305,-3.9305,-3.9305,-3.9305,-3.9305,-3.9305,-3.9349,-3.9349,-3.9452,-3.9686,-3.9744,-3.9963,-4.0399,-4.0587,-4.0702,-4.0702,-4.0702,-4.0112,-3.8986,-3.8986,-3.8325,-3.7063,-3.7063,-3.7021,-3.6978,-3.6978,-3.6978,-3.6978,-3.6978,-3.6978,-3.7017,-3.7226,-3.7303,-3.7341,-3.7739,-3.7891,-3.7929,-3.8127,-3.8202,-3.8202,-3.8202,-3.8202,-3.8202,-3.8202,-3.8202,-3.8202,-3.8202,-3.8449,-3.8797,-3.8797,-3.8943,-3.9141,-3.9337,-3.9388,-3.9388,-3.9388,-3.9388,-3.9388,-3.9448,-4.0641,-4.1738,-4.2008,-4.3251,-4.4297,-4.4572,0.0,0.0,-4.461,-4.461,-4.461,-4.461,-4.5172,-4.5588,-4.5588,-4.6203,-4.6603,-4.6603,-4.6018,-4.5664,-4.5664,-4.5064,-4.4764,-4.4764,-4.5902,-4.6137,-4.5367,-4.5306,-4.4852,-4.4063,-4.4003,-4.3988,-4.3988,-4.3988,-4.3988,-4.3988,-4.3988,-4.3988,-4.4026,-4.4205,-4.4281,-4.4281,-4.4473,-4.4549,-4.4664,-4.5518,-4.5889,-4.616,-3.8349,-3.853,-3.8711,-3.8711,-3.889,-3.9056,-3.9056,-3.9203,-3.9305,-3.9305,-3.9305,-3.9305,-3.9305,-3.9305,-3.9305,-3.9305,-3.9305,-3.9349,-3.9452,-3.9598,-3.992,-4.0399,-4.0471,-4.0587,-4.0702,-4.0702,-4.0097,-3.8902,-3.8902,-3.8255,-3.6978,-3.6978,-3.6978,-3.6978,-3.6978,-3.6978,-3.6978,-3.6978,-3.6978,-3.7017,-3.707,-3.7187,-3.7341,-3.7625,-3.7777,-3.7929,-3.8142,-3.8202,-3.8202,-3.8202,-3.8202,-3.8202,-3.8202,-3.8202,-3.8202,-3.8202,-3.8486,-3.8782,-3.8782,-3.9031,-3.9301,-3.9388,-3.9388,-3.9388,-3.9388,-3.9388,-3.946,-3.9553,-4.0456,-4.1462,-4.2056,-4.3118,-4.4019,-4.451,0.0,-4.461,-4.461,-4.461,-4.461,-4.461,-4.5172,-4.5588,-4.5588,-4.5818,-4.5972,-4.5972,-4.5341,-4.4995,-4.4995,-4.4764,-4.461,-4.461,-4.508,-4.518,-4.4857,-4.4857,-4.468,-4.4358,-4.4358,-4.4358,-4.4358,-4.4358,-4.4358,-4.4396,-4.4496,-4.4549,-4.4572,-4.4792,-4.4867,-4.4867,-4.4942,-4.498,-4.5011,-4.5335,-4.573,-4.615,-3.8089,-3.8317,-3.8453,-3.8453,-3.8666,-3.8787,-3.8787,-3.898,-3.9083,-3.9158,-3.9145,-3.9203,-3.9305,-3.9305,-3.9305,-3.9305,-3.9305,-3.9305,-3.9305,-3.9452,-3.9774,-4.0255,-4.0255,-4.0385,-4.0587,-4.063,-4.0125,-3.9197,-3.9,-3.8368,-3.7274,-3.7077,-3.6978,-3.6978,-3.6978,-3.6978,-3.6978,-3.6978,-3.6978,-3.6978,-3.6978,-3.707,-3.7226,-3.7419,-3.7625,-3.7815,-3.8028,-3.8127,-3.8202,-3.8202,-3.8202,-3.8202,-3.8202,-3.8202,-3.8202,-3.8202,-3.8427,-3.8723,-3.8782,-3.9068,-3.9301,-3.9388,-3.9388,-3.9388,-3.9388,-3.9388,-3.9505,-3.9917,-4.0722,-4.1587,-4.2463,-4.3322,-4.4071,-4.4548,-4.461,-4.461,-4.461,-4.461,-4.461,-4.461,-4.5172,-4.5511,-4.5295,-4.5464,-4.5495,-4.528,-4.491,-4.4739,-4.4776,-4.4776,-4.4776,-4.4776,-4.4776,-4.4776,-4.4776,-4.4663,-4.461,-4.4685,-4.4685,-4.4739,-4.4776,-4.4776,-4.4776,-4.4814,-4.4927,-4.5002,-4.5002,-4.5129,-4.5182,-4.5182,-4.5182,-4.5182,-4.522,-4.5257,-4.5575,-4.6034,-3.79,-3.8057,-3.82,-3.82,-3.8408,-3.8602,-3.8602,-3.8602,-3.8679,-3.8863,-3.8908,-3.9011,-3.9247,-3.9305,-3.9305,-3.9305,-3.9305,-3.9305,-3.9305,-3.9305,-3.9526,-3.9952,-3.9996,-4.0097,-4.0399,-4.0399,-4.0221,-3.9788,-3.9211,-3.8538,-3.7892,-3.7274,-3.6978,-3.6978,-3.6978,-3.6978,-3.6978,-3.6978,-3.6978,-3.6978,-3.6978,-3.6978,-3.7017,-3.7226,-3.7419,-3.7625,-3.7815,-3.8028,-3.8202,-3.8202,-3.8202,-3.8202,-3.8202,-3.8202,-3.8202,-3.8202,-3.8329,-3.8553,-3.876,-3.8943,-3.9141,-3.9337,-3.9388,-3.9388,-3.9388,-3.9388,-3.964,-4.0504,-4.1403,-4.2271,-4.315,-4.4012,-4.461,-4.461,-4.461,-4.461,-4.461,-4.461,-4.461,-4.461,-4.5172,-4.5311,-4.4671,-4.5187,-4.5295,-4.4671,-4.4799,-4.5002,-4.5182,-4.5182,-4.5182,-4.5182,-4.5182,-4.5182,-4.5182,-4.4814,-4.4685,-4.4911,-4.4911,-4.5002,-4.5182,-4.5182,-4.5182,-4.5182,-4.5182,-4.5182,-4.5182,-4.522,-4.522,-4.522,-4.522,-4.522,-4.522,-4.5442,-4.5515,-4.5609,-3.7854,-3.7946,-3.7979,-3.7979,-3.8181,-3.8304,-3.8304,-3.8498,-3.8602,-3.8679,-3.8679,-3.8756,-3.9011,-3.9011,-3.91,-3.9292,-3.9305,-3.9305,-3.9305,-3.9305,-3.9349,-3.9526,-3.9672,-3.9892,-4.0097,-4.0097,-3.9935,-3.9522,-3.8908,-3.8375,-3.7892,-3.7274,-3.6978,-3.6978,-3.6978,-3.6978,-3.6978,-3.6978,-3.6978,-3.6978,-3.6978,-3.6978,-3.7017,-3.7226,-3.7341,-3.7419,-3.7777,-3.7929,-3.7991,-3.8165,-3.8202,-3.8202,-3.8202,-3.8202,-3.8202,-3.8202,-3.8329,-3.8516,-3.859,-3.8848,-3.9141,-3.9337,-3.9388,-3.9388,-3.9388,-3.9768,-4.0231,-4.0631,-4.1782,-4.2818,-4.3242,-4.4012,-4.461,-4.461,-4.461,-4.461,-4.461,-4.461,-4.461,-4.461,-4.4795,-4.4803,-4.4641,-4.4795,-4.4863,-4.4814,-4.5002,-4.5129,-4.5182,-4.5182,-4.5182,-4.5182,-4.5182,-4.5182,-4.5182,-4.5092,-4.5055,-4.5092,-4.5092,-4.5129,-4.5182,-4.5182,-4.5182,-4.522,-4.5368,-4.5405,-4.5442,-4.5552,-4.5625,-4.5625,-4.5625,-4.5625,-4.5625,-4.5698,-4.5698,-4.5766,-3.7703,-3.7749,-3.7762,-3.79,-3.8024,-3.8089,-3.8089,-3.8194,-3.833,-3.8408,-3.8453,-3.8544,-3.8742,-3.8787,-3.889,-3.9114,-3.9247,-3.9305,-3.9305,-3.9305,-3.9305,-3.9305,-3.9452,-3.9642,-3.9892,-3.9892,-3.9786,-3.9629,-3.9103,-3.8615,-3.815,-3.7599,-3.7217,-3.6978,-3.6978,-3.6978,-3.6978,-3.6978,-3.6978,-3.6978,-3.6978,-3.6978,-3.7017,-3.7148,-3.7226,-3.7341,-3.7586,-3.7777,-3.7929,-3.8028,-3.8127,-3.8202,-3.8202,-3.8202,-3.8202,-3.8202,-3.8277,-3.8404,-3.8478,-3.8738,-3.9017,-3.9228,-3.9337,-3.9448,-3.9753,-4.0113,-4.0621,-4.1332,-4.2312,-4.3138,-4.3586,-4.4197,-4.461,-4.461,-4.461,-4.461,-4.461,-4.461,-4.461,-4.461,-4.461,-4.461,-4.461,-4.461,-4.4739,-4.5002,-4.5204,-4.5368,-4.5442,-4.5442,-4.5442,-4.5442,-4.5442,-4.5442,-4.5442,-4.5442,-4.5405,-4.5331,-4.5331,-4.5368,-4.5442,-4.5442,-4.5442,-4.5442,-4.5552,-4.5625,-4.5625,-4.5735,-4.5807,-4.5807,-4.5807,-4.5859,-4.5916,-4.5916,-4.5952,-4.6008,-3.7413,-3.7505,-3.7564,-3.7808,-3.79,-3.79,-3.79,-3.79,-3.7979,-3.8167,-3.8167,-3.8258,-3.8557,-3.8557,-3.8634,-3.8877,-3.9114,-3.9261,-3.9247,-3.9247,-3.9247,-3.9305,-3.9305,-3.9394,-3.9656,-3.9656,-3.9774,-3.9966,-3.9475,-3.8992,-3.8477,-3.7997,-3.7487,-3.6978,-3.6978,-3.6978,-3.6978,-3.6978,-3.6978,-3.6978,-3.6978,-3.6978,-3.6978,-3.6978,-3.7109,-3.7264,-3.7303,-3.7534,-3.7853,-3.7891,-3.8028,-3.8202,-3.8202,-3.8202,-3.8202,-3.8202,-3.8202,-3.824,-3.8404,-3.8612,-3.8848,-3.9106,-3.9303,-3.9627,-4.0262,-4.0487,-4.0995,-4.2363,-4.2894,-4.3335,-4.4136,-4.4473,-4.461,-4.461,-4.461,-4.461,-4.461,-4.461,-4.461,-4.461,-4.461,-4.461,-4.461,-4.461,-4.4814,-4.5182,-4.5405,-4.5589,-4.5771,-4.5807,-4.5807,-4.5807,-4.5807,-4.5807,-4.5807,-4.5807,-4.5698,-4.5515,-4.5515,-4.5625,-4.5807,-4.5807,-4.5807,-4.5807,-4.5807,-4.5807,-4.5807,-4.5807,-4.5807,-4.5807,-4.5807,-4.5952,-4.6096,-4.6096,-4.6187,-4.6298,-3.7108,-3.7366,-3.7505,-3.7564,-3.7749,-3.79,-3.79,-3.79,-3.79,-3.7979,-3.7979,-3.807,-3.8258,-3.8304,-3.8395,-3.8634,-3.8724,-3.8814,-3.8966,-3.8997,-3.91,-3.9305,-3.9305,-3.9349,-3.9407,-3.9394,-3.9496,-3.9774,-3.8692,-3.8185,-3.827,-3.7378,-3.6872,-3.6786,-3.6915,-3.6978,-3.6978,-3.6978,-3.6978,-3.6978,-3.6978,-3.6978,-3.6978,-3.6978,-3.7017,-3.7109,-3.7226,-3.7341,-3.7457,-3.7777,-3.8028,-3.8202,-3.8202,-3.8202,-3.8202,-3.8202,-3.8202,-3.8202,-3.824,-3.8389,-3.8744,-3.946,-3.9802,-4.0018,-4.033,-4.119,-4.2051,-4.2389,-4.3165,-4.3844,-4.4035,-4.4358,-4.461,-4.461,-4.461,-4.461,-4.461,-4.461,-4.461,-4.461,-4.461,-4.461,-4.461,-4.4905,-4.5108,-4.5182,-4.5515,-4.5735,-4.5807,-4.5807,-4.5807,-4.5807,-4.5807,-4.5807,-4.5807,-4.5807,-4.5771,-4.5735,-4.5735,-4.5771,-4.5807,-4.5807,-4.5807,-4.5807,-4.5807,-4.5807,-4.5807,-4.5807,-4.588,-4.604,-4.604,-4.6132,-4.6243,-4.6243,-4.6278,-4.6333,-3.6862,-3.7015,-3.7168,-3.7307,-3.7505,-3.7703,-3.7703,-3.7808,-3.79,-3.79,-3.79,-3.7946,-3.8057,-3.8057,-3.8148,-3.8408,-3.8512,-3.8634,-3.8756,-3.8756,-3.8845,-3.91,-3.91,-3.9158,-3.9305,-3.9305,-3.9349,-3.9496,-3.8685,-3.821,-3.7992,-3.7302,-3.6881,-3.6707,-3.6811,-3.6915,-3.6978,-3.6978,-3.6978,-3.6978,-3.6978,-3.6978,-3.6978,-3.6978,-3.6978,-3.7017,-3.7109,-3.7226,-3.7341,-3.7777,-3.7967,-3.8066,-3.8165,-3.8202,-3.8202,-3.8202,-3.8202,-3.8202,-3.8202,-3.8366,-3.8714,-3.9599,-4.0186,-4.0725,-4.1227,-4.1916,-4.2485,-4.2761,-4.3395,-4.3871,-4.3988,-4.4243,-4.4511,-4.4572,-4.461,-4.461,-4.461,-4.461,-4.461,-4.461,-4.461,-4.461,-4.461,-4.4889,-4.5092,-4.5182,-4.5478,-4.5698,-4.5771,-4.5807,-4.5807,-4.5807,-4.5807,-4.5807,-4.5807,-4.5807,-4.5807,-4.5807,-4.5807,-4.5807,-4.5807,-4.5807,-4.5807,-4.5807,-4.5807,-4.5844,-4.5952,-4.5952,-4.606,-4.6187,-4.6187,-4.6314,-4.6423,-4.6423,-4.6493,-4.6615,-3.6628,-3.6675,-3.6769,-3.7015,-3.7261,-3.7459,-3.7505,-3.7703,-3.7854,-3.79,-3.79,-3.79,-3.79,-3.79,-3.7979,-3.8122,-3.8376,-3.8512,-3.8557,-3.8464,-3.8487,-3.8671,-3.876,-3.8863,-3.9112,-3.9251,-3.9251,-3.9156,-3.8762,-3.8247,-3.7576,-3.7249,-3.6915,-3.6603,-3.6682,-3.6786,-3.6954,-3.6993,-3.6978,-3.6978,-3.6978,-3.6978,-3.6978,-3.6978,-3.6978,-3.6978,-3.6978,-3.7148,-3.7341,-3.7701,-3.7853,-3.7929,-3.8104,-3.8165,-3.8202,-3.8202,-3.8202,-3.8202,-3.8202,-3.8402,-3.8837,-3.9723,-4.0577,-4.1421,-4.2348,-4.256,-4.2686,-4.3185,-4.3518,-4.3769,-4.391,-4.4127,-4.4358,-4.4534,-4.4587,-4.461,-4.461,-4.461,-4.461,-4.461,-4.461,-4.461,-4.461,-4.4761,-4.4964,-4.5182,-4.5405,-4.5589,-4.5771,-4.5807,-4.5807,-4.5807,-4.5807,-4.5807,-4.5807,-4.5807,-4.5807,-4.5807,-4.5807,-4.5807,-4.5807,-4.5807,-4.5807,-4.5844,-4.5844,-4.5952,-4.6132,-4.6132,-4.6223,-4.6369,-4.6369,-4.6458,-4.6652,-4.6652,-4.6772,-4.6876,-3.6405,-3.6581,-3.6709,-3.6769,-3.6968,-3.7214,-3.7459,-3.7505,-3.7657,-3.7854,-3.79,-3.79,-3.79,-3.79,-3.79,-3.7946,-3.7992,-3.807,-3.8258,-3.7809,-3.7665,-3.7847,-3.8081,-3.8239,-3.8283,-3.8945,-3.9047,-3.8532,-3.7935,-3.738,-3.6742,-3.6429,-3.6234,-3.6206,-3.6563,-3.6721,-3.6747,-3.6915,-3.6978,-3.6978,-3.6978,-3.6978,-3.6978,-3.6978,-3.6978,-3.6978,-3.6978,-3.7148,-3.7303,-3.7341,-3.7625,-3.7891,-3.7929,-3.8066,-3.8202,-3.8202,-3.8202,-3.8202,-3.8202,-3.8623,-3.9372,-4.04,-4.1165,-4.1878,-4.2942,-4.317,-4.3185,-4.3275,-4.3518,-4.3729,-4.3729,-4.4065,-4.432,-4.4358,-4.4511,-4.461,-4.461,-4.461,-4.461,-4.461,-4.461,-4.461,-4.461,-4.4761,-4.4964,-4.5182,-4.5405,-4.5589,-4.5771,-4.5807,-4.5807,-4.5807,-4.5807,-4.5807,-4.5807,-4.5807,-4.5807,-4.5807,-4.5807,-4.5807,-4.5807,-4.5807,-4.588,-4.6076,-4.6076,-4.6116,-4.6262,-4.6262,-4.6404,-4.6563,-4.6563,-4.6668,-4.6842,-4.6842,-4.6876,-4.6876,-3.6146,-3.6358,-3.6534,-3.6534,-3.6722,-3.6922,-3.7062,-3.7307,-3.7551,-3.7657,-3.7808,-3.79,-3.79,-3.79,-3.79,-3.79,-3.79,-3.7946,-3.8011,-3.7519,-3.7279,-3.7546,-3.7648,-3.7824,-3.8075,-3.8759,-3.8698,-3.7878,-3.7621,-3.7174,-3.6592,-3.6089,-3.5952,-3.6126,-3.6286,-3.6445,-3.6563,-3.6747,-3.6811,-3.685,-3.6954,-3.6978,-3.6978,-3.6978,-3.6978,-3.6978,-3.6978,-3.707,-3.7148,-3.7264,-3.7495,-3.7739,-3.7853,-3.8028,-3.8202,-3.8202,-3.8202,-3.8202,-3.8202,-3.8696,-3.9465,-4.0533,-4.1244,-4.1972,-4.3061,-4.329,-4.329,-4.329,-4.3384,-4.3518,-4.369,-4.3949,-4.4166,-4.4281,-4.4473,-4.461,-4.461,-4.461,-4.461,-4.461,-4.461,-4.461,-4.461,-4.4685,-4.4852,-4.5182,-4.5294,-4.5478,-4.5771,-4.5807,-4.5807,-4.5807,-4.5807,-4.5807,-4.5807,-4.5807,-4.5807,-4.5807,-4.5807,-4.5807,-4.5807,-4.5807,-4.5916,-4.6112,-4.6112,-4.6259,-4.6458,-4.6458,-4.6598,-4.6772,-4.6772,-4.6807,-4.6876,-4.6876,-4.6961,-4.7064]}]]